[[{"header":{"parameterUnit":"m.s-1","parameterCategory":1,"la1":30.6,"la2":28.766,"lo1":-90.7593,"lo2":-88.6598,"dx":0.0162,"dy":0.0183,"nx":116,"ny":114,"refTime":"2022-12-21T06:00:00:Z","depth":0,"parameterNumber":2,"parameterNumberName":"U-component_of_WINDS"},"data":[0.0,0.0,0.0,0.0,0.0,0.0,0.0,0.0,0.0,0.0,0.0,0.0,0.0,0.0,0.0,0.0,0.0,0.0,0.0,0.0,0.0,0.0,0.0,0.0,0.0,0.0,0.0,0.0,0.0,0.0,0.0,0.0,0.0,0.0,0.0,0.0,0.0,0.0,0.0,0.0,0.0,0.0,0.0,0.0,0.0,0.0,0.0,0.0,0.0,0.0,0.0,0.0,0.0,0.0,0.0,0.0,0.0,0.0,0.0,0.0,0.0,0.0,0.0,0.0,0.0,0.0,0.0,0.0,0.0,0.0,0.0,0.0,0.0,0.0,0.0,0.0,0.0,0.0,0.0,0.0,0.0,0.0,0.0,0.0,0.0,0.0,0.0,0.0,0.0,0.0,0.0,0.0,0.0,0.0,0.0,0.0,0.0,0.0,0.0,0.0,0.0,0.0,0.0,0.0,0.0,0.0,0.0,0.0,0.0,0.0,0.0,0.0,0.0,0.0,0.0,0.0,0.0,0.0,0.0,0.0,0.0,0.0,0.0,0.0,0.0,0.0,0.0,0.0,0.0,0.0,0.0,0.0,0.0,0.0,0.0,0.0,0.0,0.0,0.0,0.0,0.0,0.0,0.0,0.0,0.0,0.0,0.0,0.0,0.0,0.0,0.0,0.0,0.0,0.0,0.0,0.0,0.0,0.0,0.0,0.0,0.0,0.0,0.0,0.0,0.0,0.0,0.0,0.0,0.0,0.0,0.0,0.0,0.0,0.0,0.0,0.0,0.0,0.0,0.0,0.0,0.0,0.0,0.0,0.0,0.0,0.0,0.0,0.0,0.0,0.0,0.0,0.0,0.0,0.0,0.0,0.0,0.0,0.0,0.0,0.0,0.0,0.0,0.0,0.0,0.0,0.0,0.0,0.0,0.0,0.0,0.0,0.0,0.0,0.0,0.0,0.0,0.0,0.0,0.0,0.0,0.0,0.0,0.0,0.0,0.0,0.0,0.0,0.0,0.0,0.0,0.0,0.0,0.0,0.0,0.0,0.0,0.0,0.0,0.0,0.0,0.0,0.0,0.0,0.0,0.0,0.0,0.0,0.0,0.0,0.0,0.0,0.0,0.0,0.0,0.0,0.0,0.0,0.0,0.0,0.0,0.0,0.0,0.0,0.0,0.0,0.0,0.0,0.0,0.0,0.0,0.0,0.0,0.0,0.0,0.0,0.0,0.0,0.0,0.0,0.0,0.0,0.0,0.0,0.0,0.0,0.0,0.0,0.0,0.0,0.0,0.0,0.0,0.0,0.0,0.0,0.0,0.0,0.0,0.0,0.0,0.0,0.0,0.0,0.0,0.0,0.0,0.0,0.0,0.0,0.0,0.0,0.0,0.0,0.0,0.0,0.0,0.0,0.0,0.0,0.0,0.0,0.0,0.0,0.0,0.0,0.0,0.0,0.0,0.0,0.0,0.0,0.0,0.0,0.0,0.0,0.0,0.0,0.0,0.0,0.0,0.0,0.0,0.0,0.0,0.0,0.0,0.0,0.0,0.0,0.0,0.0,0.0,0.0,0.0,0.0,0.0,0.0,0.0,0.0,0.0,0.0,0.0,0.0,0.0,0.0,0.0,0.0,0.0,0.0,0.0,0.0,0.0,0.0,0.0,0.0,0.0,0.0,0.0,0.0,0.0,0.0,0.0,0.0,0.0,0.0,0.0,0.0,0.0,0.0,0.0,0.0,0.0,0.0,0.0,0.0,0.0,0.0,0.0,0.0,0.0,0.0,0.0,0.0,0.0,0.0,0.0,0.0,0.0,0.0,0.0,0.0,0.0,0.0,0.0,0.0,0.0,0.0,0.0,0.0,0.0,0.0,0.0,0.0,0.0,0.0,0.0,0.0,0.0,0.0,0.0,0.0,0.0,0.0,0.0,0.0,0.0,0.0,0.0,0.0,0.0,0.0,0.0,0.0,0.0,0.0,0.0,0.0,0.0,0.0,0.0,0.0,0.0,0.0,0.0,0.0,0.0,0.0,0.0,0.0,0.0,0.0,0.0,0.0,0.0,0.0,0.0,0.0,0.0,0.0,0.0,0.0,0.0,0.0,0.0,0.0,0.0,0.0,0.0,0.0,0.0,0.0,0.0,0.0,0.0,0.0,0.0,0.0,0.0,0.0,0.0,0.0,0.0,0.0,0.0,0.0,0.0,0.0,0.0,0.0,0.0,0.0,0.0,0.0,0.0,0.0,0.0,0.0,0.0,0.0,0.0,0.0,0.0,0.0,0.0,0.0,0.0,0.0,0.0,0.0,0.0,0.0,0.0,0.0,0.0,0.0,0.0,0.0,0.0,0.0,0.0,0.0,0.0,0.0,0.0,0.0,0.0,0.0,0.0,0.0,0.0,0.0,0.0,0.0,0.0,0.0,0.0,0.0,0.0,0.0,0.0,0.0,0.0,0.0,0.0,0.0,0.0,0.0,0.0,0.0,0.0,0.0,0.0,0.0,0.0,0.0,0.0,0.0,0.0,0.0,0.0,0.0,0.0,0.0,0.0,0.0,0.0,0.0,0.0,0.0,0.0,0.0,0.0,0.0,0.0,0.0,0.0,0.0,0.0,0.0,0.0,0.0,0.0,0.0,0.0,0.0,0.0,0.0,0.0,0.0,0.0,0.0,0.0,0.0,0.0,0.0,0.0,0.0,0.0,0.0,0.0,0.0,0.0,0.0,0.0,0.0,0.0,0.0,0.0,0.0,0.0,0.0,0.0,0.0,0.0,0.0,0.0,0.0,0.0,0.0,0.0,0.0,0.0,0.0,0.0,0.0,0.0,0.0,0.0,0.0,0.0,0.0,0.0,0.0,0.0,0.0,0.0,0.0,0.0,0.0,0.0,0.0,0.0,0.0,0.0,0.0,0.0,0.0,0.0,0.0,0.0,0.0,0.0,0.0,0.0,0.0,0.0,0.0,0.0,0.0,0.0,0.0,0.0,0.0,0.0,0.0,0.0,0.0,0.0,0.0,0.0,0.0,0.0,0.0,0.0,0.0,0.0,0.0,0.0,0.0,0.0,0.0,0.0,0.0,0.0,0.0,0.0,0.0,0.0,0.0,0.0,0.0,0.0,0.0,0.0,0.0,0.0,0.0,0.0,0.0,0.0,0.0,0.0,0.0,0.0,0.0,0.0,0.0,0.0,0.0,0.0,0.0,0.0,0.0,0.0,0.0,0.0,0.0,0.0,0.0,0.0,0.0,0.0,0.0,0.0,0.0,0.0,0.0,0.0,0.0,0.0,0.0,0.0,0.0,0.0,0.0,0.0,0.0,0.0,0.0,0.0,0.0,0.0,0.0,0.0,0.0,0.0,0.0,0.0,0.0,0.0,0.0,0.0,0.0,0.0,0.0,0.0,0.0,0.0,0.0,0.0,0.0,0.0,0.0,0.0,0.0,0.0,0.0,0.0,0.0,0.0,0.0,0.0,0.0,0.0,0.0,0.0,0.0,0.0,0.0,0.0,0.0,0.0,0.0,0.0,0.0,0.0,0.0,0.0,0.0,0.0,0.0,0.0,0.0,0.0,0.0,0.0,0.0,0.0,0.0,0.0,0.0,0.0,0.0,0.0,0.0,0.0,0.0,0.0,0.0,0.0,0.0,0.0,0.0,0.0,0.0,0.0,0.0,0.0,0.0,0.0,0.0,0.0,0.0,0.0,0.0,0.0,0.0,0.0,0.0,0.0,0.0,0.0,0.0,0.0,0.0,0.0,0.0,0.0,0.0,0.0,0.0,0.0,0.0,0.0,0.0,0.0,0.0,0.0,0.0,0.0,0.0,0.0,0.0,0.0,0.0,0.0,0.0,0.0,0.0,0.0,0.0,0.0,0.0,0.0,0.0,0.0,0.0,0.0,0.0,0.0,0.0,0.0,0.0,0.0,0.0,0.0,0.0,0.0,0.0,0.0,0.0,0.0,0.0,0.0,0.0,0.0,0.0,0.0,0.0,0.0,0.0,0.0,0.0,0.0,0.0,0.0,0.0,0.0,0.0,0.0,0.0,0.0,0.0,0.0,0.0,0.0,0.0,0.0,0.0,0.0,0.0,0.0,0.0,0.0,0.0,0.0,0.0,0.0,0.0,0.0,0.0,0.0,0.0,0.0,0.0,0.0,0.0,0.0,0.0,0.0,0.0,0.0,0.0,0.0,0.0,0.0,0.0,0.0,0.0,0.0,0.0,0.0,0.0,0.0,0.0,0.0,0.0,0.0,0.0,0.0,0.0,0.0,0.0,0.0,0.0,0.0,0.0,0.0,0.0,0.0,0.0,0.0,0.0,0.0,0.0,0.0,0.0,0.0,0.0,0.0,0.0,0.0,0.0,0.0,0.0,0.0,0.0,0.0,0.0,0.0,0.0,0.0,0.0,0.0,0.0,0.0,0.0,0.0,0.0,0.0,0.0,0.0,0.0,0.0,0.0,0.0,0.0,0.0,0.0,0.0,0.0,0.0,0.0,0.0,0.0,0.0,0.0,0.0,0.0,0.0,0.0,0.0,0.0,0.0,0.0,0.0,0.0,0.0,0.0,0.0,0.0,0.0,0.0,0.0,0.0,0.0,0.0,0.0,0.0,0.0,0.0,0.0,0.0,0.0,0.0,0.0,0.0,0.0,0.0,0.0,0.0,0.0,0.0,0.0,0.0,0.0,0.0,0.0,0.0,0.0,0.0,0.0,0.0,0.0,0.0,0.0,0.0,0.0,0.0,0.0,0.0,0.0,0.0,0.0,0.0,0.0,0.0,0.0,0.0,0.0,0.0,0.0,0.0,0.0,0.0,0.0,0.0,0.0,0.0,0.0,0.0,0.0,0.0,0.0,0.0,0.0,0.0,0.0,0.0,0.0,0.0,0.0,0.0,0.0,0.0,0.0,0.0,0.0,0.0,0.0,0.0,0.0,0.0,0.0,0.0,0.0,0.0,0.0,0.0,0.0,0.0,0.0,0.0,0.0,0.0,0.0,0.0,0.0,0.0,0.0,0.0,0.0,0.0,0.0,0.0,0.0,0.0,0.0,0.0,0.0,0.0,0.0,0.0,0.0,0.0,0.0,0.0,0.0,0.0,0.0,0.0,0.0,0.0,0.0,0.0,0.0,0.0,0.0,0.0,0.0,0.0,0.0,0.0,0.0,0.0,0.0,0.0,0.0,0.0,0.0,0.0,0.0,0.0,0.0,0.0,0.0,0.0,0.0,0.0,0.0,0.0,0.0,0.0,0.0,0.0,0.0,0.0,0.0,0.0,0.0,0.0,0.0,0.0,0.0,0.0,0.0,0.0,0.0,0.0,0.0,0.0,0.0,0.0,0.0,0.0,0.0,0.0,0.0,0.0,0.0,0.0,0.0,0.0,0.0,0.0,0.0,0.0,0.0,0.0,0.0,0.0,0.0,0.0,0.0,0.0,0.0,0.0,0.0,0.0,0.0,0.0,0.0,0.0,0.0,0.0,0.0,0.0,0.0,0.0,0.0,0.0,0.0,0.0,0.0,0.0,0.0,0.0,0.0,0.0,0.0,0.0,0.0,0.0,0.0,0.0,0.0,0.0,0.0,0.0,0.0,0.0,0.0,0.0,0.0,0.0,0.0,0.0,0.0,0.0,0.0,0.0,0.0,0.0,0.0,0.0,0.0,0.0,0.0,0.0,0.0,0.0,0.0,0.0,0.0,0.0,0.0,0.0,0.0,0.0,0.0,0.0,0.0,0.0,0.0,0.0,0.0,0.0,0.0,0.0,0.0,0.0,0.0,0.0,0.0,0.0,0.0,0.0,0.0,0.0,0.0,0.0,0.0,0.0,0.0,0.0,0.0,0.0,0.0,0.0,0.0,0.0,0.0,0.0,0.0,0.0,0.0,0.0,0.0,0.0,0.0,0.0,0.0,0.0,0.0,0.0,0.0,0.0,0.0,0.0,0.0,0.0,0.0,0.0,0.0,0.0,0.0,0.0,0.0,0.0,0.0,0.0,0.0,0.0,0.0,0.0,0.0,0.0,0.0,0.0,0.0,0.0,0.0,0.0,0.0,0.0,0.0,0.0,0.0,0.0,0.0,0.0,0.0,0.0,0.0,0.0,0.0,0.0,0.0,0.0,0.0,6.8898,0.0,0.0,0.0,0.0,0.0,0.0,0.0,0.0,0.0,0.0,0.0,0.0,0.0,0.0,0.0,0.0,0.0,0.0,0.0,0.0,0.0,0.0,0.0,0.0,3.6639,3.7436,3.7475,3.7874,0.0,0.0,0.0,0.0,0.0,0.0,0.0,0.0,0.0,4.191,4.2883,4.6348,5.0016,5.3788,5.1094,4.8281,4.5469,0.0,0.0,0.0,0.0,0.0,0.0,0.0,0.0,0.0,0.0,0.0,0.0,0.0,0.0,0.0,0.0,0.0,0.0,0.0,0.0,0.0,0.0,0.0,0.0,0.0,0.0,0.0,0.0,0.0,0.0,0.0,0.0,0.0,0.0,0.0,0.0,0.0,0.0,0.0,0.0,0.0,0.0,0.0,0.0,0.0,0.0,0.0,0.0,0.0,0.0,0.0,0.0,0.0,0.0,0.0,0.0,0.0,0.0,0.0,0.0,0.0,0.0,0.0,0.0,0.0,0.0,0.0,0.0,0.0,0.0,0.0,7.0744,0.0,0.0,0.0,0.0,0.0,0.0,0.0,0.0,0.0,0.0,0.0,0.0,0.0,0.0,0.0,0.0,0.0,0.0,0.0,0.0,0.0,3.7035,3.7244,3.8028,3.8633,3.8864,3.903,3.9108,3.912,3.912,0.0,0.0,0.0,0.0,0.0,4.3432,4.5009,4.6248,5.2104,5.6939,6.0781,6.0781,5.8125,5.3203,4.9961,0.0,0.0,0.0,0.0,0.0,0.0,0.0,0.0,0.0,0.0,0.0,0.0,0.0,0.0,0.0,0.0,0.0,0.0,0.0,0.0,0.0,0.0,0.0,0.0,0.0,0.0,0.0,0.0,0.0,0.0,0.0,0.0,0.0,0.0,0.0,0.0,0.0,0.0,0.0,0.0,0.0,0.0,0.0,0.0,0.0,0.0,0.0,0.0,0.0,0.0,0.0,0.0,0.0,0.0,0.0,0.0,0.0,0.0,0.0,0.0,0.0,0.0,0.0,0.0,0.0,8.1554,8.1554,8.2785,8.4632,7.9708,7.7784,7.7861,0.0,0.0,0.0,0.0,0.0,0.0,0.0,0.0,0.0,0.0,0.0,0.0,0.0,0.0,0.0,0.0,0.0,0.0,0.0,0.0,3.8207,3.8968,3.9895,4.0757,4.1524,4.2283,4.2731,4.2791,4.2791,0.0,0.0,0.0,0.0,4.4287,4.6753,4.9177,5.1596,5.9859,6.4957,6.6992,6.6992,6.6601,6.5586,6.0,5.75,5.7226,0.0,0.0,0.0,0.0,0.0,0.0,0.0,0.0,0.0,0.0,0.0,0.0,0.0,0.0,0.0,0.0,0.0,0.0,0.0,0.0,0.0,0.0,0.0,0.0,0.0,0.0,0.0,0.0,0.0,0.0,0.0,0.0,0.0,0.0,0.0,0.0,0.0,0.0,0.0,0.0,0.0,6.3205,6.3551,0.0,0.0,0.0,0.0,0.0,0.0,0.0,0.0,0.0,0.0,0.0,0.0,0.0,0.0,8.1285,8.3478,8.4709,8.4978,8.6478,8.7671,8.8594,8.8594,8.9171,9.0171,8.9363,0.0,8.1593,8.09,0.0,0.0,0.0,0.0,0.0,0.0,0.0,0.0,0.0,0.0,0.0,0.0,0.0,0.0,0.0,0.0,0.0,0.0,0.0,0.0,0.0,4.3734,4.5498,4.6465,4.8205,4.8651,4.7259,4.7142,0.0,0.0,0.0,4.722,4.7712,5.171,5.6769,6.2765,6.6609,7.0111,7.3242,7.3242,7.3242,7.3125,7.0508,6.6601,6.1875,5.8984,0.0,0.0,0.0,0.0,0.0,0.0,0.0,0.0,0.0,0.0,0.0,0.0,0.0,0.0,0.0,0.0,0.0,0.0,0.0,0.0,0.0,0.0,0.0,0.0,0.0,0.0,0.0,0.0,0.0,0.0,0.0,0.0,0.0,0.0,0.0,0.0,0.0,0.0,0.0,6.2243,6.532,6.532,6.6167,6.6013,0.0,0.0,0.0,0.0,0.0,0.0,0.0,0.0,0.0,8.0708,8.167,8.3555,8.6555,8.8171,8.921,8.971,9.0479,9.1248,9.2056,9.2056,9.2249,9.2595,9.2595,9.1133,8.8479,8.5632,8.2862,8.0362,0.0,0.0,0.0,0.0,0.0,0.0,0.0,0.0,0.0,0.0,0.0,0.0,0.0,0.0,0.0,0.0,0.0,0.0,4.4804,4.83,5.0928,5.1918,5.3931,5.4064,5.1491,5.1342,5.0478,4.8507,4.9457,5.0361,5.1005,5.6985,6.4028,7.2041,7.2695,7.4871,7.8515,7.8515,7.8515,7.8515,7.8515,7.4453,6.7422,6.5039,6.289,6.0742,0.0,0.0,0.0,0.0,0.0,0.0,0.0,0.0,0.0,0.0,0.0,0.0,0.0,0.0,0.0,0.0,0.0,0.0,0.0,0.0,0.0,0.0,0.0,0.0,0.0,0.0,0.0,0.0,0.0,0.0,0.0,0.0,0.0,0.0,0.0,0.0,0.0,6.5436,6.8167,6.8167,6.9821,7.0167,0.0,0.0,0.0,0.0,0.0,0.0,7.8823,7.9323,8.14,8.5401,8.6401,8.8132,9.0864,9.1748,9.2595,9.348,9.348,9.3903,9.4672,9.4672,9.4788,9.5016,9.5016,9.4937,9.4398,8.9936,8.7358,8.6088,8.478,0.0,0.0,0.0,8.5363,8.5901,0.0,0.0,0.0,0.0,0.0,0.0,0.0,0.0,0.0,0.0,0.0,4.7571,4.9362,5.341,5.6368,5.7346,5.8289,5.7719,5.512,5.4937,5.3805,5.1302,5.2824,5.376,5.3805,6.2032,6.9386,7.5633,7.8049,8.0219,8.2031,8.2031,8.2031,8.2031,8.2031,8.0,7.6289,7.2031,7.0156,6.9336,6.0976,0.0,0.0,0.0,0.0,0.0,0.0,0.0,0.0,0.0,0.0,0.0,0.0,0.0,0.0,0.0,0.0,0.0,0.0,0.0,0.0,0.0,0.0,0.0,0.0,0.0,0.0,0.0,0.0,0.0,0.0,0.0,0.0,0.0,0.0,0.0,0.0,0.0,0.0,7.4245,7.6476,0.0,0.0,0.0,0.0,7.9169,7.9438,8.167,8.6555,8.6094,8.7248,9.071,9.1672,9.2556,9.348,9.4364,9.5249,9.6095,9.6095,9.6519,9.7326,9.7326,9.7787,9.8628,9.8628,9.8237,9.738,9.4656,9.2079,8.9806,8.9729,8.8226,8.6377,8.8705,9.0133,9.1171,0.0,0.0,0.0,3.5643,3.6009,3.6421,3.6702,3.845,4.0356,4.2151,4.6177,5.0009,5.2933,5.7641,6.1385,6.3403,6.5424,6.5672,6.3646,6.1967,6.0135,5.8105,5.7558,5.9898,6.5473,7.0245,7.5337,8.0856,8.2339,8.3631,8.4804,8.4804,8.4804,8.4804,8.4219,8.3281,8.1914,7.8086,7.5234,7.2812,6.8047,6.414,0.0,0.0,0.0,0.0,0.0,0.0,0.0,0.0,0.0,0.0,0.0,0.0,0.0,0.0,0.0,0.0,0.0,0.0,0.0,0.0,0.0,0.0,0.0,0.0,0.0,0.0,0.0,0.0,0.0,0.0,0.0,0.0,0.0,0.0,0.0,0.0,0.0,7.6361,7.8631,0.0,7.8977,8.04,8.2054,8.3747,8.5363,8.7594,9.0517,9.0864,9.1825,9.3595,9.498,9.5901,9.6281,9.709,9.7704,9.8086,9.8626,9.9011,9.9319,9.9859,10.0316,10.0728,10.0728,10.0607,10.0395,9.956,9.7225,9.426,9.4866,9.4557,9.3875,9.5307,9.6039,9.6425,0.0,3.5826,0.0,3.5615,3.6253,3.691,3.7192,3.9171,4.171,4.4692,4.9132,5.3496,5.7293,6.2664,6.6688,6.8385,7.0675,7.0806,6.7885,6.6402,6.4293,6.1404,6.1833,6.5932,7.4012,7.6433,8.0034,8.4922,8.5781,8.664,8.7461,8.7461,8.7461,8.7461,8.6875,8.6328,8.5625,8.332,8.0351,7.6914,7.3711,7.0234,6.6367,0.0,0.0,0.0,0.0,0.0,0.0,0.0,0.0,0.0,0.0,0.0,0.0,0.0,0.0,0.0,0.0,0.0,0.0,0.0,0.0,0.0,0.0,0.0,0.0,0.0,0.0,0.0,0.0,0.0,0.0,0.0,0.0,0.0,0.0,0.0,7.89,7.8592,8.1823,8.3747,8.2901,8.5093,8.7055,8.8171,9.0364,9.2249,9.371,9.4557,9.5401,9.6322,9.7708,9.8631,9.9008,9.9891,10.0505,10.0921,10.1418,10.1722,10.1716,10.2296,10.2631,10.2686,10.2686,10.2785,10.2899,10.2695,10.1207,9.8922,9.9241,9.9104,9.8926,9.9713,10.0182,10.0491,0.0,3.585,3.5757,3.5599,3.6303,3.7141,3.8001,3.965,4.268,4.7908,5.3174,5.8121,6.2492,6.839,7.2008,7.2071,7.3671,7.2557,6.7461,6.789,6.6055,6.0937,6.5742,7.1719,7.8515,8.0312,8.3281,8.7578,8.8398,8.9219,9.0039,9.0039,9.0039,9.0039,9.0,8.9101,8.7578,8.7578,8.5586,8.2109,7.7851,7.5586,7.3906,0.0,0.0,0.0,0.0,0.0,0.0,0.0,0.0,0.0,0.0,0.0,0.0,0.0,0.0,0.0,0.0,0.0,0.0,0.0,0.0,0.0,0.0,0.0,0.0,0.0,0.0,0.0,0.0,0.0,0.0,0.0,0.0,0.0,7.4361,7.8784,8.2208,8.1516,8.6478,8.9671,8.894,9.1133,9.2595,9.2633,9.4172,9.548,9.6365,9.7173,9.8056,9.8975,9.9897,10.0781,10.1697,10.2576,10.3494,10.4305,10.4403,10.4505,10.4596,10.4596,10.4682,10.47,10.47,10.4813,10.481,10.4113,10.3705,10.3491,10.2487,10.1608,10.0883,10.1593,10.2384,10.3313,3.5894,3.584,3.5763,3.5609,3.6805,3.8028,3.8915,4.1015,4.4421,4.9678,5.444,5.923,6.4246,6.9087,7.2514,7.3788,7.5496,7.535,7.2656,7.1523,7.0039,6.7969,7.3437,7.832,8.2109,8.4492,8.6914,8.9297,9.0156,9.0703,9.0937,9.0937,9.0937,9.0898,9.0273,8.9726,8.9297,8.9297,8.8047,8.5781,8.2734,7.9844,7.707,0.0,0.0,0.0,0.0,0.0,0.0,0.0,0.0,0.0,0.0,0.0,0.0,0.0,0.0,0.0,0.0,0.0,0.0,0.0,0.0,0.0,0.0,0.0,0.0,0.0,0.0,0.0,0.0,0.0,0.0,0.0,0.0,8.1208,8.0054,8.3401,8.6594,8.8248,8.9863,9.1479,9.3095,9.3903,9.4826,9.6019,9.6557,9.7479,9.9054,9.994,10.0899,10.1809,10.2697,10.3378,10.3792,10.4015,10.4305,10.4687,10.5424,10.5682,10.5784,10.6415,10.6405,10.5923,10.5923,10.5612,10.5005,10.4889,10.4382,10.3681,10.281,10.2183,10.2,10.2808,10.3599,10.4402,3.5899,3.5853,3.5865,3.6133,3.7243,3.8504,3.9766,4.2124,4.5932,5.1967,5.6261,6.0932,6.6525,7.0704,7.3504,7.4517,7.5545,7.5234,7.3086,7.2031,7.2695,7.543,7.9258,8.2734,8.5664,8.7929,8.9765,9.1094,9.1953,9.2578,9.2929,9.2929,9.2929,9.289,9.2383,9.1758,9.1094,9.1094,9.0117,8.8398,8.6484,8.3906,8.0898,7.8437,7.6015,7.3711,7.1797,6.9961,6.8242,6.6758,0.0,0.0,0.0,0.0,0.0,0.0,0.0,0.0,0.0,0.0,0.0,0.0,0.0,0.0,0.0,0.0,0.0,0.0,0.0,0.0,0.0,0.0,0.0,0.0,8.331,8.6165,8.6517,8.7979,8.9671,9.1518,9.271,9.3903,9.5403,9.6172,9.7171,9.8555,9.8979,9.9823,10.1315,10.2202,10.3001,10.3584,10.4474,10.51,10.5282,10.5579,10.5886,10.5977,10.6193,10.6507,10.6877,10.6994,10.6992,0.0,10.6981,10.6685,10.631,10.5998,10.5494,0.0,0.0,0.0,0.0,0.0,10.4483,10.4891,3.5904,3.5853,3.606,3.6851,3.7602,3.8711,4.0565,4.2963,4.712,5.4206,5.814,6.2617,6.8734,7.2505,7.4603,7.4609,7.4687,7.375,7.1445,7.164,7.5039,8.2148,8.3554,8.5703,8.8906,9.0586,9.1875,9.2734,9.3633,9.4453,9.5195,9.5195,9.5195,9.5195,9.5195,9.4336,9.289,9.2773,9.1797,9.0234,8.9336,8.7461,8.4844,8.164,7.9922,7.8828,7.5703,7.3555,7.2109,7.1797,0.0,0.0,0.0,0.0,0.0,0.0,0.0,0.0,0.0,0.0,0.0,0.0,0.0,0.0,0.0,0.0,0.0,0.0,0.0,0.0,0.0,0.0,0.0,0.0,8.8881,9.1891,9.2823,9.2326,9.2172,9.2864,9.5018,9.6557,9.6826,9.8211,9.9556,10.0593,10.14,10.2318,10.33,0.0,0.0,0.0,0.0,10.6123,10.6405,10.7013,10.7481,10.7615,10.6896,10.7009,10.7815,10.6997,10.7079,10.7805,10.7805,10.7688,10.761,10.6896,10.6606,10.6503,10.5591,10.4812,10.4304,10.4985,10.5305,0.0,3.5914,3.5833,3.6044,3.6881,3.7614,3.8942,4.1376,4.3322,4.7273,5.4945,5.8437,6.2542,6.8663,7.2427,7.4522,7.4609,7.5234,7.543,7.4922,7.7461,8.0312,8.3203,8.6133,8.8672,9.0742,9.1836,9.2773,9.3633,9.4531,9.5039,9.5195,9.5195,9.5195,9.5195,9.5195,9.5,9.4648,9.3945,9.3047,9.2031,9.1133,8.9258,8.6836,8.5469,8.4414,8.3554,8.289,8.1992,8.0781,7.8672,7.7422,7.625,7.3437,7.1484,0.0,0.0,0.0,0.0,0.0,0.0,0.0,0.0,0.0,0.0,0.0,0.0,0.0,0.0,0.0,0.0,0.0,0.0,0.0,8.7929,9.1136,9.3928,9.5396,9.5978,9.6095,9.5634,9.6557,9.8096,10.0096,10.0711,10.1595,10.3097,10.3591,10.4189,10.5202,10.5487,0.0,10.691,10.6521,10.6624,10.7516,10.7009,10.7098,10.7781,0.0,0.0,10.7993,10.7794,10.7385,10.6883,10.6883,10.6493,10.5907,10.5678,10.5693,10.5609,10.5419,10.5708,10.6216,10.6311,10.6794,10.7418,3.7141,3.6818,3.6713,3.7521,3.8245,3.9623,4.2226,4.367,4.6858,5.3404,5.6574,6.0087,6.4918,6.8567,7.0675,7.0692,7.2694,7.4687,7.6445,7.9336,8.2734,8.664,8.8437,9.0156,9.1914,9.2812,9.3672,9.4531,9.5429,9.6054,9.6445,9.6445,9.6445,9.6445,9.6445,9.6211,9.582,9.539,9.4453,9.3164,9.2304,9.0937,8.9258,8.7969,8.6914,8.6133,8.5703,8.5,8.4062,8.2734,8.2031,8.1406,7.9648,7.7617,7.5273,0.0,0.0,0.0,0.0,0.0,0.0,0.0,0.0,0.0,0.0,0.0,0.0,0.0,0.0,8.3152,8.5272,0.0,9.0069,9.2517,9.4605,9.6371,9.7577,9.878,9.9208,9.8288,9.8942,10.0211,10.1789,10.2516,10.3318,10.4087,10.441,10.4712,10.5269,10.5799,10.6422,10.7013,10.7013,10.7299,10.7884,10.7496,10.7504,10.7903,10.7485,10.7603,10.7981,10.7483,10.73,10.7418,10.7418,10.7105,10.6714,10.6682,10.6688,10.6714,10.6706,10.6385,10.6018,10.5998,10.6302,10.6614,3.8362,3.8032,3.7809,3.8442,3.9004,4.0254,4.2792,4.3926,4.6366,5.1605,5.4453,5.7414,6.1139,6.4372,6.633,6.6517,7.0341,7.3944,7.6758,7.9961,8.4219,8.9765,9.0,9.082,9.2578,9.3633,9.4492,9.5195,9.6211,9.707,9.7695,9.7695,9.7695,9.7695,9.7695,9.7344,9.6719,9.6562,9.5703,9.4297,9.3281,9.2422,9.1601,8.9883,8.8711,8.7851,8.6992,8.6211,8.5625,8.5469,8.539,8.539,8.5195,8.3359,8.0664,7.7734,7.6523,0.0,0.0,0.0,0.0,0.0,0.0,0.0,0.0,7.9929,8.1761,8.3516,8.5429,8.7673,9.0602,9.2326,9.4179,9.6928,9.8176,9.8988,9.9564,10.1075,10.1894,10.1287,10.1709,10.2401,10.321,10.389,10.4487,10.4706,10.4799,10.4997,10.5199,10.6118,10.6584,10.6802,10.7285,10.7703,10.8,10.7807,10.7808,10.7995,10.7313,10.7417,10.8198,10.7496,10.7695,10.8515,10.8281,10.8281,10.8203,10.8104,10.7995,10.8008,10.8008,10.7107,10.5889,10.5889,10.5889,10.5889,3.851,3.9006,3.942,3.9431,3.9425,4.0243,4.2806,4.3906,4.6275,5.154,5.3824,5.6601,6.0954,6.3153,6.4666,6.558,7.1602,7.5568,7.6015,8.1328,8.6133,8.9844,9.0,9.082,9.2578,9.4219,9.5117,9.5195,9.6797,9.7617,9.7695,9.7695,9.7695,9.7695,9.7695,9.7656,9.7539,9.6797,9.6406,9.6054,9.4414,9.3711,9.3437,9.1679,9.0469,8.9609,8.8711,8.8359,8.8164,8.7461,8.7226,8.707,8.6289,8.6328,8.582,8.164,8.0898,8.1015,7.9062,7.9409,8.0449,8.1239,8.086,8.0961,0.0,8.5838,8.8062,8.9827,9.2744,9.5338,9.6421,9.7294,9.8219,9.9285,10.0599,10.1603,10.171,10.312,10.4294,10.5029,10.4421,10.4276,10.5087,10.4776,10.4887,10.5701,10.5978,10.6118,10.6098,10.7087,10.7698,10.7677,10.7085,10.7183,10.8011,10.72,10.7195,10.8007,10.7889,10.8319,10.9217,10.9101,10.9492,11.0312,10.9492,10.9218,10.9101,10.8281,10.8007,10.8008,10.8008,10.789,10.7695,10.7695,10.7695,10.7695,3.9911,3.9836,3.9831,4.0295,4.025,4.0822,4.2879,4.3451,4.4954,4.8678,5.0728,5.2715,5.5113,5.7842,6.0526,6.2976,6.9075,7.3442,7.4982,8.1248,8.6211,8.9101,8.9726,9.082,9.2578,9.3828,9.4687,9.5195,9.6406,9.7226,9.7695,9.7695,9.7695,9.7695,9.7695,9.7695,9.7695,9.7344,9.664,9.5664,9.4961,9.4062,9.3047,9.2344,9.1836,9.1133,8.8281,8.6914,0.0,8.6094,8.5976,8.6172,8.7304,8.7226,8.6289,8.3945,8.3515,8.4101,8.5351,8.5586,8.5818,8.718,8.7635,8.8011,8.9105,9.0901,9.2892,9.461,9.6511,9.8127,9.8929,10.0085,10.1096,0.0,10.271,10.3686,10.3587,10.4582,10.5319,10.5176,10.5307,10.5513,10.5697,10.611,10.6003,10.5381,10.6001,10.6191,10.5695,10.6597,10.7196,10.7183,10.7387,10.7613,10.7995,10.7604,10.7886,10.8789,10.8789,10.9218,11.0117,11.0117,11.0312,11.0586,11.0195,11.0117,11.0,10.9687,10.9492,10.9492,10.8984,10.8789,10.8711,10.8203,10.8008,10.8086,4.0976,4.056,4.0247,4.0788,4.0804,4.1183,4.2633,4.2973,4.3959,4.632,4.7967,4.9436,5.0826,5.4142,5.7259,5.9833,6.5628,7.0486,7.3582,7.9867,8.492,8.8203,8.9414,9.0703,9.2226,9.332,9.4219,9.4844,9.5703,9.6562,9.7383,9.7383,9.75,9.7695,9.7461,9.7383,9.7344,9.7109,9.6328,9.5195,9.4922,9.4101,9.2929,9.2695,9.2148,9.1094,8.7734,8.6133,8.5469,8.4492,8.4179,8.4492,8.6367,8.6289,8.5469,8.5312,8.5742,8.6797,8.9023,8.9883,9.0508,9.1992,9.3201,9.4057,9.4291,9.5307,9.6674,9.8431,9.9477,10.0283,10.1092,10.2507,10.3396,10.3308,10.4516,10.5418,10.5298,10.5821,10.5994,10.5627,10.6001,10.6292,10.6109,10.6621,10.6508,10.5496,10.6091,10.6286,10.5687,10.6596,10.7085,10.7083,10.7691,10.8108,10.8398,10.8398,10.8789,10.9687,10.9687,11.0117,11.1015,11.1211,11.1289,11.1289,11.1093,11.1015,11.0898,11.0703,11.0586,11.0508,10.9883,10.9687,10.9609,10.8906,10.8398,10.8086,4.1114,4.1012,4.0939,4.0906,4.078,4.0978,4.1822,4.2595,4.3717,4.55,4.648,4.7979,5.0626,5.4041,5.616,5.6356,6.2013,6.7374,7.1708,7.6906,8.2125,8.7226,8.9062,9.0429,9.1328,9.3008,9.3906,9.3945,9.4804,9.5664,9.6523,9.6523,9.6953,9.7656,9.6875,9.6523,9.6484,9.5625,9.5234,9.5117,9.4297,9.3906,9.3789,9.2929,9.1015,8.8711,8.7773,8.7422,8.6914,8.3515,8.2383,8.2383,8.2461,8.3047,8.4023,8.5664,8.789,8.9687,8.8945,9.1172,9.3945,9.4844,9.6328,9.7773,9.8594,9.8867,9.9375,10.1094,10.2187,10.3007,10.3816,10.469,10.5287,10.5201,10.5921,10.6388,10.6381,10.6403,10.6676,10.7511,10.7004,10.6498,0.0,10.5718,10.5601,10.642,10.6611,10.6724,10.6693,10.7512,10.802,10.802,10.7998,10.8398,10.9297,10.9297,10.9687,11.0586,11.0586,11.1015,11.1914,11.2695,11.3086,11.3086,11.2187,11.1914,11.1797,11.0898,11.0586,11.0586,11.0586,11.0586,11.0586,11.0508,10.9492,10.8086,4.1114,4.1042,4.0994,4.0906,4.0811,4.0963,4.1788,4.2572,4.3508,4.4603,4.6523,0.0,0.0,0.0,0.0,0.0,6.1214,6.5294,6.7452,7.4616,7.9811,8.218,8.6132,8.8672,8.957,9.1289,9.2461,9.3047,9.3906,9.4765,9.5625,9.5625,9.5781,9.6015,9.5742,9.5625,9.5625,9.5312,9.4883,9.4297,9.4023,9.3554,9.2812,9.0781,8.9453,8.8203,0.0,8.2812,8.2148,8.0976,8.0586,8.0898,8.2617,8.2969,8.3203,8.5508,8.8008,9.0586,9.3164,9.5117,9.6914,9.8945,9.9883,10.0508,10.1406,10.1992,10.2617,10.3203,10.2617,10.2109,10.2382,10.3199,10.3695,10.3694,10.5817,10.7493,10.7405,10.7391,10.7313,10.7001,10.6806,0.0,0.0,0.0,0.0,10.6685,10.7202,10.7612,10.759,10.7791,10.8001,10.8001,10.8592,10.8984,10.9297,10.9883,11.0586,11.1484,11.1992,11.25,11.2812,11.3086,11.3203,11.3203,11.289,11.2812,11.2695,11.2383,11.2304,11.2304,11.1718,11.1484,11.1406,11.0781,11.0195,10.9804,4.1114,4.1033,4.0974,4.0921,4.1072,0.0,0.0,0.0,0.0,0.0,0.0,0.0,0.0,0.0,0.0,0.0,0.0,6.2212,6.4733,7.0715,7.5261,7.7747,8.1637,8.4297,8.5469,8.6875,8.8047,8.8906,9.0429,9.1758,9.289,9.3828,9.4609,9.5195,9.4883,9.4726,9.4726,9.4414,9.3398,9.2031,9.2031,9.1172,8.9687,8.7969,8.6758,0.0,8.2187,8.0039,7.8828,7.8828,7.9219,8.0039,8.2031,8.3789,8.5195,8.5976,8.9297,9.3359,9.6172,9.8203,10.0,10.1992,10.2812,10.3086,10.3711,10.4297,10.4687,10.5,10.3515,10.2187,10.25,10.3203,10.371,10.3417,10.6213,10.8309,10.8002,10.769,10.7417,10.7105,10.689,10.6812,0.0,0.0,0.0,10.72,10.801,10.849,10.849,10.8511,10.8515,10.8515,10.8984,10.9414,10.9804,11.0586,11.1484,11.2383,11.289,11.3203,11.3203,11.3203,11.3203,11.3203,11.3203,11.3203,11.3203,11.3203,11.3203,11.3203,11.289,11.2617,11.2304,11.2109,11.1797,11.1601,4.1114,4.1033,4.1006,0.0,0.0,0.0,0.0,0.0,0.0,0.0,0.0,0.0,0.0,0.0,0.0,0.0,0.0,0.0,6.3325,6.5562,6.8897,7.3849,7.5928,7.7773,7.9414,8.0351,8.1211,8.2109,8.4687,8.6758,8.8359,9.0898,9.2969,9.4492,9.3672,9.332,9.3242,9.2422,9.0625,8.8359,8.8359,8.6914,8.4765,8.4609,8.3047,8.0937,8.0781,7.9219,7.7187,7.7187,7.8359,8.0039,8.1133,8.539,8.957,8.7422,9.1992,9.7812,9.7969,10.0508,10.3281,10.4219,10.5,10.5586,10.5703,10.5703,10.5781,10.6601,10.4609,10.3008,10.3789,10.4492,10.4804,10.3984,10.6793,10.8811,10.7991,10.721,10.7093,10.7913,10.7307,10.7083,10.7981,0.0,0.0,10.8184,0.0,10.9414,10.9414,10.9414,10.9414,10.9414,10.9414,10.9804,11.0703,11.1484,11.2383,11.3203,11.3203,11.3203,11.3203,11.3203,11.3203,11.3203,11.3203,11.3281,11.3281,11.3281,11.3281,11.3398,11.4218,11.4101,11.3398,11.4297,11.3984,11.3203,0.0,0.0,0.0,0.0,0.0,0.0,0.0,0.0,0.0,0.0,0.0,0.0,0.0,0.0,0.0,0.0,0.0,0.0,5.8969,6.3219,6.6321,6.7748,7.1971,7.4802,7.5898,7.7383,7.8594,7.9453,8.1406,8.2539,8.3008,8.4297,8.5156,8.5586,8.5351,8.5273,8.5234,8.5039,8.4531,8.3945,8.3945,8.3554,8.2773,8.0859,8.0078,7.9765,7.789,7.7187,7.7187,7.7187,7.918,8.2344,8.6406,8.875,9.0625,9.3828,9.6601,9.9258,10.1797,10.4101,10.5898,10.6797,10.7187,10.75,10.8203,10.7812,10.7187,10.6797,10.3594,10.0781,10.039,9.9961,9.9609,9.9375,10.3398,10.6405,10.621,10.6991,10.7811,10.8007,10.7787,10.7989,10.8918,10.9197,0.0,0.0,11.0116,11.0312,11.0312,11.0312,11.0312,11.0312,11.0898,11.1289,11.1601,11.2383,11.3008,11.3203,11.3203,11.3203,11.3203,11.3203,11.3203,11.3203,11.3906,11.4218,11.4218,11.4804,11.5117,11.5117,11.5312,11.5312,11.5117,11.539,11.5312,11.5,0.0,0.0,0.0,0.0,0.0,0.0,0.0,0.0,0.0,0.0,0.0,0.0,0.0,0.0,0.0,0.0,0.0,0.0,0.0,6.0242,6.2318,6.3176,6.641,6.8817,7.0039,7.1406,7.2734,7.3984,7.6055,7.7422,7.8242,7.9883,8.082,8.1172,8.1562,8.1719,8.1758,8.2148,8.164,0.0,0.0,7.9922,7.875,7.7344,7.707,7.7305,7.6289,7.6719,7.8164,8.082,8.3008,8.5351,8.9765,9.2422,9.4531,9.7422,9.9961,10.2383,10.5117,10.6797,10.8086,10.8906,10.8906,10.8398,10.7812,10.6992,10.5898,10.4219,10.1094,9.8476,9.8008,9.8086,9.8398,9.8789,10.289,10.6211,10.6484,10.7383,10.8008,10.8008,10.8314,10.8807,10.9315,10.9997,11.0586,0.0,11.1211,11.1211,11.1211,11.1211,11.1211,11.1211,11.1601,11.2109,11.25,11.3008,11.3203,11.3203,11.3203,11.3398,11.3789,11.3789,11.3984,11.4297,0.0,11.5117,11.5117,11.5508,11.5703,11.5703,11.6093,11.6015,11.5781,11.6211,11.6093,11.5703,0.0,0.0,0.0,0.0,0.0,0.0,0.0,0.0,0.0,4.764,4.874,4.9663,4.9894,5.0568,0.0,0.0,0.0,0.0,0.0,0.0,5.8306,5.9885,6.0851,6.2169,6.3906,6.4687,6.5937,6.7695,7.0,7.1992,7.3633,7.6015,7.7578,7.8398,7.914,7.9453,7.9531,8.0273,7.9336,7.7305,7.7305,7.5937,7.3906,0.0,7.414,7.4414,7.5508,7.6953,7.9258,8.5429,8.7656,8.8515,9.2383,9.6328,9.957,9.9804,10.2695,10.6211,10.7695,10.8906,10.9804,11.0586,11.0117,10.8789,10.6211,10.4883,10.3398,10.0508,9.8125,9.6445,9.6211,9.7539,9.8867,9.9531,10.3203,10.6289,10.7187,10.75,10.7812,10.8008,10.8789,10.9297,10.9492,11.0898,11.1914,11.2109,11.2109,11.2109,11.2109,11.2109,11.2109,11.2109,11.2109,11.2383,11.3203,11.3203,11.3281,11.3398,11.3398,11.3789,11.4687,11.4687,11.5,11.5703,0.0,0.0,11.5898,11.6015,11.6015,11.6093,11.6914,11.6718,11.6093,11.6914,11.6718,11.6093,0.0,0.0,0.0,0.0,0.0,0.0,4.8721,4.9702,5.0452,5.0972,5.0721,5.0991,5.2377,5.2705,0.0,0.0,0.0,0.0,0.0,0.0,0.0,5.8117,5.9045,6.0366,6.2102,6.2304,6.3242,6.4961,6.6133,6.7226,6.8242,6.9453,7.0469,7.1289,7.1367,7.1445,7.1484,7.164,7.1445,7.0976,7.0976,7.0703,7.039,7.1094,0.0,0.0,7.5078,7.6562,7.8476,8.5234,8.8437,9.0664,9.6992,10.0508,10.25,10.3906,10.5898,10.7812,10.8789,11.0195,11.1484,11.1601,11.1015,10.9687,10.7109,10.5312,10.3008,9.8984,9.7265,9.6054,9.4609,9.5781,9.6758,9.6172,9.9687,10.2812,10.3711,10.5,10.6406,10.7812,10.8789,10.9609,11.0312,11.1289,0.0,0.0,0.0,0.0,11.3008,11.3008,11.3008,11.3008,11.3008,11.3008,11.3203,11.3203,11.3593,11.4297,11.4297,11.4687,11.5586,11.5508,11.5586,11.5703,0.0,0.0,11.6797,11.7617,11.7812,11.789,11.8008,11.8008,11.789,11.8008,11.8008,11.789,0.0,0.0,0.0,0.0,0.0,0.0,0.0,5.1567,5.2972,5.3762,5.3954,5.3762,5.3241,5.3203,5.3569,0.0,0.0,0.0,0.0,0.0,0.0,5.6972,5.7921,5.8827,5.9667,6.0154,6.125,6.2969,0.0,6.4258,6.5547,6.5976,6.6406,6.6836,6.7695,6.8125,6.8203,6.9062,6.9453,6.9453,6.9453,6.9453,6.9531,7.039,0.0,0.0,7.4609,7.6094,7.8047,8.3594,8.7187,9.0469,9.6914,10.1094,10.3711,10.4609,10.6719,10.8984,11.0312,11.1289,11.1992,11.25,11.1601,10.9609,10.5586,10.3008,10.0117,9.5351,9.3711,9.3008,9.2617,9.4336,9.5859,9.5859,9.9101,10.2109,10.3398,10.4687,10.6093,10.7812,10.9218,11.0117,11.0586,11.1797,11.2695,11.3203,0.0,0.0,11.3203,11.3203,11.3203,11.3203,11.3203,11.3398,11.3906,11.3906,11.4297,11.5195,11.5195,11.5586,11.6406,11.6406,11.6601,11.7109,0.0,0.0,11.7695,11.8086,11.8281,11.8281,11.8281,11.8281,11.8281,11.8281,11.8281,11.8281,0.0,0.0,0.0,0.0,0.0,0.0,0.0,5.3336,5.5105,5.6104,5.6857,5.6511,5.4523,5.4139,5.4199,0.0,0.0,0.0,0.0,0.0,0.0,0.0,0.0,5.759,5.7816,0.0,0.0,6.1406,6.1406,0.0,0.0,0.0,0.0,0.0,6.5742,6.6328,6.6445,6.7734,6.8437,0.0,0.0,6.8789,6.9062,0.0,0.0,0.0,0.0,7.5586,7.7617,8.2109,8.5508,8.8828,9.4336,9.9297,10.3203,10.3515,10.6093,10.9218,11.1093,11.1914,11.2304,11.3008,11.1914,10.9218,10.3789,10.0703,9.7422,9.1875,9.0351,9.0156,9.0664,9.3047,9.5078,9.5586,9.8515,10.1406,10.3398,10.4414,10.5703,10.7812,10.9492,11.0586,11.0586,11.2187,11.3203,11.3203,0.0,0.0,11.3203,11.3203,11.3203,11.3203,11.3398,11.3789,11.4492,11.4687,11.5195,11.6093,11.6093,11.6484,11.7304,11.7304,11.7695,11.8281,0.0,0.0,0.0,11.8281,11.8281,11.8281,11.8281,11.8281,11.8281,11.8281,11.8281,11.8281,0.0,0.0,0.0,0.0,0.0,0.0,0.0,5.4951,5.6181,5.7828,5.8135,5.8097,5.7866,5.7126,5.634,0.0,0.0,0.0,0.0,0.0,0.0,0.0,0.0,0.0,0.0,0.0,0.0,6.0508,6.0508,0.0,0.0,0.0,0.0,0.0,0.0,6.4531,6.4531,6.4687,0.0,0.0,0.0,0.0,0.0,0.0,0.0,0.0,0.0,7.5195,7.6797,8.1875,8.4336,8.5898,8.9531,9.4726,9.9804,10.1406,10.4297,10.75,11.0,11.1914,11.3086,11.3203,11.1914,10.8984,10.3086,10.0312,9.7109,9.0312,8.9492,8.9765,8.9062,9.1719,9.3789,9.3086,9.582,9.8945,10.1484,10.2617,10.4297,10.7617,10.9492,11.0586,11.0586,11.2187,11.3203,0.0,0.0,0.0,0.0,11.3203,11.3203,11.3203,11.3984,11.4414,11.4492,11.5195,11.6015,11.6914,11.6914,11.7304,11.8203,11.8203,11.8203,11.8281,0.0,0.0,0.0,11.8281,11.8281,11.8281,11.8281,11.8281,11.8281,11.8281,11.8281,11.8281,0.0,0.0,0.0,0.0,0.0,0.0,5.3469,5.5737,5.7505,5.8212,5.9196,5.9604,5.9081,5.8274,5.7412,5.6571,0.0,0.0,0.0,0.0,0.0,0.0,0.0,0.0,0.0,0.0,5.8421,5.9687,6.0156,0.0,0.0,0.0,0.0,0.0,0.0,6.3515,6.3555,6.4062,0.0,0.0,0.0,0.0,0.0,0.0,0.0,0.0,0.0,0.0,7.6445,8.0039,8.2187,8.375,8.6172,8.9648,9.3867,9.9258,10.3594,10.7383,11.0508,11.2304,11.3086,11.25,11.1093,10.8203,10.2187,9.9101,9.5664,8.9297,8.8242,8.8398,8.8047,9.0351,9.2226,9.1875,9.4726,9.789,10.0508,10.1992,10.4414,10.8281,10.9883,11.0781,11.1289,11.25,11.3203,0.0,0.0,0.0,0.0,11.3984,11.3984,11.3984,11.4804,11.5508,11.6015,11.6289,11.6914,11.7812,11.7812,11.8008,11.8281,11.8281,11.8281,11.8281,0.0,0.0,0.0,11.8281,11.8281,11.8281,11.8281,11.8281,11.8281,11.8281,11.8281,11.8281,0.0,0.0,0.0,0.0,0.0,5.2453,5.343,5.6044,5.8081,5.8596,5.9681,6.0258,5.9911,5.8965,5.8043,5.7439,5.634,0.0,0.0,0.0,0.0,0.0,0.0,0.0,0.0,0.0,5.8381,5.9531,6.039,6.1211,0.0,0.0,6.2461,6.25,0.0,0.0,0.0,0.0,0.0,0.0,0.0,0.0,0.0,0.0,0.0,0.0,0.0,0.0,0.0,0.0,0.0,8.1836,8.3594,8.5898,8.9453,9.6953,10.1797,10.5703,10.9687,11.1601,11.2304,11.1718,10.9609,10.6406,10.1094,9.7344,9.3476,8.8203,8.7109,8.7109,8.7109,8.9219,9.0937,9.0937,9.4258,9.7461,9.9297,10.1484,10.4101,10.7383,10.8984,11.0195,11.1015,11.2383,0.0,0.0,0.0,0.0,0.0,11.5,11.5117,11.4883,11.5703,11.6406,11.6992,11.7304,11.7695,11.8281,11.8281,11.8281,11.8281,11.8281,11.8281,0.0,0.0,0.0,0.0,11.8281,11.8281,11.8281,11.8281,11.8281,11.8281,11.8281,11.8281,11.8281,0.0,0.0,0.0,0.0,0.0,0.0,5.4259,5.5895,5.761,5.9258,5.9504,5.9835,6.0704,5.9311,5.8296,5.8269,5.6708,0.0,0.0,0.0,0.0,0.0,0.0,0.0,0.0,0.0,5.8658,6.039,6.125,6.2148,6.3008,6.3867,6.4258,6.4258,0.0,0.0,0.0,0.0,0.0,0.0,0.0,0.0,0.0,0.0,0.0,0.0,0.0,0.0,0.0,0.0,0.0,0.0,0.0,8.4101,8.7578,9.4492,9.8359,10.1484,10.6601,10.9297,11.0586,11.0586,10.7383,10.3281,9.9804,9.5039,9.039,8.6914,8.6211,8.6211,8.6211,8.8281,9.0,9.0,9.4336,9.7695,9.7734,10.0703,10.3203,10.4101,10.6484,10.8398,10.9218,11.1718,0.0,0.0,0.0,0.0,0.0,11.6093,11.6601,11.5703,11.6484,11.6992,11.6992,11.789,11.8281,11.8281,11.8281,11.8281,11.8281,11.8281,0.0,0.0,0.0,0.0,0.0,11.8281,11.8281,11.8281,11.8281,11.8281,11.8281,11.8281,11.8281,11.8281,0.0,0.0,0.0,0.0,0.0,0.0,0.0,5.5066,5.6533,5.7649,5.8296,5.875,5.9081,5.8097,5.7405,5.7401,5.634,0.0,0.0,0.0,0.0,0.0,0.0,0.0,0.0,0.0,6.0672,6.1271,6.2771,6.3906,6.4765,6.4453,6.4609,6.5156,6.457,6.414,0.0,0.0,0.0,0.0,0.0,0.0,0.0,0.0,0.0,0.0,0.0,0.0,0.0,0.0,0.0,0.0,0.0,0.0,0.0,9.0547,9.4726,9.8437,10.1797,10.3984,10.5117,10.3906,10.2109,9.9609,9.5547,9.2422,8.9609,8.6797,8.6211,8.6211,8.6211,8.7812,8.9687,9.1484,9.4648,9.75,9.9219,10.1484,10.3398,10.4883,10.789,11.039,0.0,0.0,0.0,0.0,0.0,0.0,0.0,11.6718,11.6914,11.6601,11.7383,11.789,11.789,11.8203,11.8281,11.8281,11.8281,11.8281,11.8281,11.8281,0.0,0.0,0.0,0.0,0.0,11.8281,11.8281,11.8281,11.8281,11.8281,11.8281,11.8281,11.8281,11.8281,0.0,0.0,0.0,0.0,0.0,0.0,0.0,5.422,5.5549,5.6379,5.728,5.795,5.8258,5.7505,5.6989,5.7016,5.6186,0.0,0.0,0.0,0.0,0.0,0.0,0.0,0.0,6.0505,6.2079,6.3125,6.4566,6.5742,6.6562,6.6328,6.6523,6.7031,6.6484,6.5859,0.0,0.0,0.0,0.0,0.0,0.0,6.9492,0.0,0.0,0.0,0.0,0.0,0.0,0.0,0.0,0.0,0.0,0.0,0.0,0.0,9.0195,9.3945,9.7812,9.9883,10.0703,9.9609,9.7929,9.5898,9.3203,9.0508,8.8125,8.6523,8.6719,8.7031,8.6758,8.8594,9.0703,9.2344,9.5586,9.8164,9.8789,10.1211,10.3515,10.5312,10.789,11.0586,0.0,0.0,0.0,0.0,0.0,0.0,0.0,0.0,11.75,11.75,11.8008,11.8281,11.8281,11.8281,11.8281,11.8281,11.8281,11.8281,11.8281,0.0,0.0,0.0,0.0,0.0,0.0,11.8281,11.8281,11.8281,11.8281,11.8281,11.8281,11.8281,11.8281,11.8281,0.0,0.0,0.0,0.0,0.0,0.0,0.0,5.3356,5.4643,5.5511,5.6302,5.7131,5.8,5.7362,5.69,5.69,0.0,0.0,0.0,0.0,0.0,0.0,0.0,0.0,0.0,6.1184,6.3015,6.5585,6.6635,6.7617,6.8476,6.9258,6.9609,6.9687,6.9531,6.8555,0.0,0.0,0.0,0.0,0.0,0.0,0.0,0.0,0.0,0.0,0.0,0.0,0.0,0.0,0.0,0.0,0.0,0.0,0.0,0.0,0.0,0.0,0.0,9.6445,9.7148,9.707,9.4687,9.2304,9.2265,8.9101,0.0,8.6289,8.7617,8.8554,8.7734,9.039,9.2695,9.2773,9.6992,9.9453,9.7031,10.0312,10.3594,10.5508,10.7187,0.0,0.0,0.0,0.0,0.0,0.0,0.0,0.0,0.0,11.8281,11.8281,11.8281,11.8281,11.8281,11.8281,11.8281,11.8281,11.8281,11.8281,11.8281,0.0,0.0,0.0,0.0,0.0,0.0,11.8281,11.8281,11.8281,11.8281,11.8281,11.8281,11.8281,11.8281,11.8281,0.0,0.0,0.0,0.0,0.0,0.0,0.0,0.0,0.0,0.0,5.4951,5.5395,5.6225,5.6148,5.6032,0.0,0.0,0.0,0.0,0.0,0.0,0.0,0.0,0.0,0.0,6.3216,6.5083,6.6405,6.8679,7.0263,7.1094,7.1289,7.1406,7.1367,7.0703,6.9453,0.0,0.0,0.0,0.0,0.0,0.0,0.0,0.0,0.0,0.0,7.4609,7.5703,0.0,0.0,0.0,0.0,0.0,0.0,0.0,0.0,8.3515,8.5117,8.7851,0.0,9.164,9.0976,9.0195,8.9453,0.0,8.7383,8.6406,8.707,8.8515,8.9414,8.8594,9.125,9.3828,9.4492,9.7812,9.9844,9.8594,10.1015,10.4297,10.8008,10.9297,11.1093,0.0,0.0,0.0,0.0,0.0,0.0,0.0,0.0,11.8281,11.8281,11.8281,11.8281,11.8281,11.8281,11.8281,11.8281,11.8281,11.8281,11.8281,0.0,0.0,0.0,0.0,0.0,0.0,11.8281,11.8281,11.8281,11.8281,11.8281,11.8281,11.8281,11.8281,11.8281,0.0,0.0,0.0,0.0,0.0,0.0,0.0,0.0,0.0,0.0,0.0,5.4682,0.0,0.0,0.0,0.0,0.0,0.0,0.0,0.0,0.0,0.0,0.0,0.0,6.2297,6.4643,6.6893,6.9053,7.057,7.1936,7.3203,7.3203,7.3203,7.3125,7.1875,7.0586,0.0,0.0,0.0,0.0,6.9726,0.0,0.0,0.0,0.0,0.0,7.4453,7.5469,0.0,7.707,7.75,7.7969,0.0,0.0,0.0,0.0,8.2617,8.3906,8.5234,8.6914,8.8242,8.8164,8.8437,8.8594,8.8164,8.8008,8.8086,8.8554,9.0,9.0937,9.0039,9.2422,9.4648,9.5117,9.7734,10.0117,10.1211,10.2617,10.4609,10.7695,10.9218,11.0898,0.0,0.0,0.0,0.0,0.0,0.0,0.0,0.0,11.8281,11.8281,11.8281,11.8281,11.8281,11.8281,11.8281,11.8281,11.8281,11.8281,11.8281,0.0,0.0,0.0,0.0,0.0,11.8281,11.8281,11.8281,11.8281,11.8281,11.8281,11.8281,11.8281,11.8281,11.8281,0.0,0.0,0.0,0.0,0.0,0.0,0.0,0.0,0.0,0.0,0.0,0.0,0.0,0.0,0.0,0.0,0.0,0.0,0.0,0.0,0.0,0.0,0.0,6.188,6.3864,6.5846,6.8486,7.1817,7.2307,7.3342,7.4805,7.4922,7.4922,7.4726,7.2969,7.1719,0.0,0.0,0.0,0.0,7.043,0.0,0.0,0.0,0.0,0.0,0.0,0.0,0.0,7.6914,7.7187,7.7344,7.8086,0.0,0.0,0.0,0.0,0.0,8.4648,8.5625,8.6601,8.7461,8.8203,8.8711,8.8867,8.9453,9.0,9.0,9.1601,9.2695,9.1679,9.375,9.5625,9.5742,9.8047,10.1094,10.4804,10.5117,10.5703,10.7695,10.9218,0.0,0.0,0.0,0.0,0.0,0.0,0.0,0.0,0.0,0.0,11.8281,11.8281,11.8281,11.8281,11.8281,11.8281,11.8281,11.8281,11.8281,11.8281,11.8281,0.0,0.0,0.0,0.0,11.8281,11.8281,11.8281,11.8281,11.8281,11.8281,11.8281,11.8281,11.8281,11.8281,0.0,0.0,0.0,0.0,0.0,0.0,0.0,0.0,0.0,0.0,0.0,0.0,0.0,0.0,0.0,0.0,0.0,0.0,0.0,0.0,0.0,0.0,0.0,6.2166,6.4657,6.7304,6.9653,7.1817,7.4102,7.5369,7.5703,7.6445,7.6406,7.5625,7.3867,7.2617,7.1758,7.0859,0.0,0.0,7.0664,0.0,0.0,0.0,0.0,0.0,0.0,0.0,0.0,7.6914,7.7187,7.7226,7.7344,0.0,0.0,0.0,0.0,0.0,8.4648,8.6054,8.75,8.832,8.8594,8.8906,8.9648,8.9883,9.0,9.0,9.2578,9.4297,9.2695,9.5078,9.7578,9.8281,10.1211,10.5117,11.0,10.9414,10.9687,11.289,0.0,0.0,0.0,0.0,0.0,0.0,0.0,0.0,0.0,0.0,0.0,11.8281,11.8281,11.8281,11.8281,11.8281,11.8281,11.8281,11.8281,11.8281,11.8281,11.8281,11.8281,0.0,0.0,0.0,11.8281,11.8281,11.8281,11.8281,11.8281,11.8281,11.8281,11.8281,11.8281,11.8281,0.0,0.0,0.0,0.0,0.0,0.0,0.0,0.0,0.0,0.0,0.0,0.0,0.0,0.0,0.0,0.0,0.0,0.0,0.0,0.0,0.0,0.0,0.0,6.4286,6.6941,6.9261,7.1753,7.4544,7.5858,7.7009,7.7969,7.793,7.7187,7.5859,7.457,7.3515,7.2656,7.1758,7.1406,7.1406,0.0,0.0,0.0,0.0,0.0,0.0,0.0,0.0,0.0,0.0,7.7187,7.7265,7.7734,0.0,0.0,0.0,0.0,0.0,8.4648,8.6172,8.7812,8.9062,8.9765,9.0312,9.1211,9.1758,9.2226,9.2695,9.4062,9.4961,9.414,9.6406,9.914,10.1406,10.3906,10.6719,11.0,11.0195,11.0781,0.0,0.0,0.0,0.0,0.0,0.0,0.0,0.0,0.0,0.0,0.0,0.0,0.0,11.8281,11.8281,11.8281,11.8281,11.8281,11.8281,11.8281,11.8281,11.8281,11.8281,11.8281,0.0,0.0,11.8281,11.8281,11.8281,11.8281,11.8281,11.8281,11.8281,11.8281,11.8281,11.8593,11.8984,0.0,0.0,0.0,0.0,0.0,0.0,0.0,0.0,0.0,0.0,0.0,0.0,0.0,0.0,0.0,0.0,0.0,0.0,0.0,0.0,0.0,0.0,0.0,0.0,6.8759,7.0852,7.3542,7.6882,7.7262,7.8102,7.9414,7.8789,7.7695,7.6172,7.5273,7.4414,7.3555,7.2656,7.2187,7.1992,0.0,0.0,0.0,0.0,0.0,0.0,0.0,0.0,0.0,0.0,0.0,0.0,0.0,0.0,0.0,8.1054,8.2539,8.414,8.5234,8.6758,8.8476,9.0195,9.1094,9.1836,9.2695,9.3594,9.4375,9.5078,9.5351,9.5547,9.5742,9.8398,10.1484,10.4297,10.6484,10.8515,11.0,11.1015,0.0,0.0,0.0,0.0,0.0,0.0,0.0,0.0,0.0,0.0,0.0,0.0,0.0,0.0,11.8281,11.8281,11.8281,11.8281,11.8281,11.8281,11.8281,11.8281,11.8281,11.8281,11.8281,11.8281,11.8281,11.8281,11.8281,11.8281,11.8281,11.8281,11.8281,11.8281,11.8281,11.8515,11.8984,11.9609,0.0,0.0,0.0,0.0,0.0,0.0,0.0,0.0,0.0,0.0,0.0,0.0,0.0,0.0,0.0,0.0,0.0,0.0,0.0,0.0,0.0,0.0,0.0,0.0,6.8773,7.1417,7.4149,7.6882,7.784,7.8415,7.8594,7.8515,7.8008,7.707,7.6211,7.5312,7.4453,7.3594,7.2734,7.1992,7.1992,0.0,0.0,0.0,0.0,0.0,0.0,0.0,0.0,0.0,0.0,0.0,0.0,0.0,8.1094,8.1953,8.3437,8.5156,8.6875,8.8554,9.0234,9.1992,9.2461,9.2734,9.3594,9.4492,9.5117,9.5195,9.5859,9.664,9.7383,10.1601,10.539,10.6406,10.9297,11.1914,11.2812,0.0,0.0,0.0,0.0,0.0,0.0,0.0,0.0,0.0,0.0,0.0,0.0,0.0,0.0,0.0,0.0,11.8281,11.8281,11.8281,11.8281,11.8281,11.8281,11.8281,11.8281,11.8281,11.8281,11.8281,11.8281,11.8281,11.8281,11.8281,11.8281,11.8281,11.8281,11.8281,11.8398,11.9218,11.9492,11.9687,0.0,0.0,0.0,0.0,0.0,0.0,0.0,0.0,0.0,0.0,0.0,0.0,0.0,0.0,0.0,0.0,0.0,0.0,0.0,0.0,0.0,0.0,0.0,6.7446,7.0303,7.256,7.5277,7.8531,8.008,8.027,7.9258,7.9258,7.8515,7.7148,7.6289,7.5703,7.5312,7.3906,7.3125,7.2773,7.2226,7.1992,0.0,0.0,0.0,0.0,0.0,0.0,0.0,0.0,7.707,7.8594,7.9101,8.0429,8.1992,8.2851,8.4726,8.664,8.7304,8.9492,9.1797,9.2422,9.3828,9.539,9.6758,9.7734,9.8828,10.0508,10.0586,10.0586,10.0898,10.3789,10.6719,10.8086,11.0781,11.3008,0.0,0.0,0.0,0.0,0.0,0.0,0.0,0.0,0.0,0.0,0.0,0.0,0.0,0.0,0.0,0.0,0.0,11.8281,11.8281,11.8281,11.8281,11.8281,11.8281,11.8281,11.8281,11.8281,11.8281,11.8281,11.8281,11.8281,11.8281,11.8281,11.8281,11.8398,11.8906,11.9101,11.9218,12.0117,12.0781,12.1289,0.0,0.0,0.0,0.0,0.0,0.0,0.0,0.0,0.0,0.0,0.0,0.0,0.0,0.0,0.0,0.0,0.0,0.0,0.0,5.7989,5.9565,6.2367,6.4806,6.774,7.1214,7.3181,7.5915,7.9505,8.1113,8.1133,7.9687,7.9453,7.8555,7.7187,7.6562,7.6172,7.582,7.4648,7.3789,7.3242,7.2656,7.2265,0.0,0.0,0.0,0.0,0.0,0.0,0.0,0.0,7.6992,7.8984,7.9531,8.1094,8.289,8.375,8.5664,8.7695,8.8476,9.0625,9.2812,9.3633,9.5351,9.7539,10.0117,10.0703,10.1484,10.4101,10.4297,10.3906,10.3398,10.539,10.7695,10.9414,11.1406,11.3203,0.0,0.0,0.0,0.0,0.0,0.0,0.0,0.0,0.0,0.0,0.0,0.0,0.0,0.0,0.0,0.0,0.0,0.0,11.8281,11.8281,11.8281,11.8281,11.8281,11.8281,11.8281,11.8281,11.8281,11.8281,11.8281,11.8281,11.8281,11.8281,11.8515,11.8789,11.9687,12.0,12.0117,12.1015,12.1718,12.2187,0.0,0.0,0.0,0.0,0.0,0.0,0.0,0.0,0.0,0.0,0.0,0.0,0.0,0.0,0.0,0.0,0.0,0.0,5.8214,5.8296,5.9796,6.3161,6.5076,6.774,7.1214,7.3161,7.5876,7.9505,8.0488,8.0547,7.9687,7.8867,7.8047,7.7187,7.7187,7.6719,7.5898,7.5898,7.4883,7.332,7.332,7.2773,7.1992,0.0,0.0,0.0,0.0,0.0,0.0,0.0,7.6875,7.9687,7.9726,8.1523,8.3789,8.4687,8.6172,8.8086,9.0625,9.1953,9.3281,9.5898,9.7148,9.8867,10.3281,10.289,10.2383,10.5,10.6211,10.6211,10.4492,10.6289,10.8593,11.0312,11.1406,0.0,0.0,0.0,0.0,0.0,0.0,0.0,0.0,0.0,0.0,0.0,0.0,0.0,0.0,0.0,0.0,0.0,0.0,0.0,11.8281,11.8281,11.8281,11.8281,11.8281,11.8281,11.8281,11.8281,11.8281,11.8281,11.8281,11.8281,11.8281,11.8281,11.8789,11.9687,12.0586,12.0898,12.1015,12.1914,12.2187,12.2304,0.0,0.0,0.0,0.0,0.0,0.0,0.0,0.0,0.0,0.0,0.0,0.0,0.0,0.0,0.0,0.0,0.0,0.0,5.8214,5.8296,5.9796,6.3161,6.5076,6.7446,7.0303,7.4117,7.6921,7.8745,7.9639,7.9648,7.8867,7.8594,7.8047,7.7187,0.0,7.707,7.6758,7.6172,7.5586,7.5039,7.3789,7.3164,7.2851,0.0,0.0,0.0,0.0,0.0,0.0,0.0,0.0,0.0,8.1133,8.289,8.4804,8.6289,8.7929,8.9687,9.1679,9.414,9.6679,9.8672,9.9804,10.1719,10.6719,10.6406,10.5898,10.8515,10.9297,10.8906,10.7187,10.8515,11.0195,11.1289,0.0,0.0,0.0,0.0,0.0,0.0,0.0,0.0,0.0,0.0,0.0,0.0,0.0,0.0,0.0,0.0,0.0,0.0,0.0,0.0,11.8281,11.8281,11.8281,11.8281,11.8281,11.8281,11.8281,11.8281,11.8281,11.8281,11.8281,11.8593,11.9297,11.9883,12.0312,12.0586,12.1484,12.1797,12.1914,12.2812,12.3086,12.3203,0.0,0.0,0.0,0.0,0.0,0.0,0.0,0.0,5.5324,5.5763,5.5742,5.5703,0.0,0.0,0.0,5.5703,5.5703,0.0,5.7692,5.8104,5.9642,6.2698,6.4614,6.7186,7.0564,7.4428,7.6741,7.7368,7.8589,7.8945,7.8476,7.8164,7.7695,7.7187,0.0,7.7187,7.7187,7.664,7.6211,7.582,7.4765,7.414,7.375,0.0,0.0,0.0,0.0,0.0,0.0,0.0,0.0,0.0,8.1758,8.3984,8.6289,8.8008,8.9687,9.1484,9.3594,9.5898,9.8203,10.0312,10.1484,10.3398,10.8203,10.9297,10.9609,11.0898,11.1718,11.1718,11.0312,11.0898,0.0,0.0,0.0,0.0,0.0,0.0,0.0,0.0,0.0,0.0,0.0,0.0,0.0,0.0,0.0,0.0,0.0,0.0,0.0,0.0,0.0,0.0,11.8281,11.8281,11.8281,11.8281,11.8281,11.8515,11.8789,11.8515,11.8515,11.8789,11.9218,11.9609,12.0195,12.1093,12.1406,12.1484,12.2383,12.2695,12.2812,12.3281,12.3515,12.3515,0.0,0.0,0.0,0.0,0.0,0.0,0.0,5.549,5.5902,5.5822,5.5742,5.5703,0.0,0.0,0.0,5.5703,5.5703,5.6071,5.6939,5.7835,5.9412,6.1867,6.3883,6.7007,7.152,7.4042,7.5494,7.5813,7.7456,7.832,7.8359,7.7578,7.7187,7.7187,0.0,7.7187,7.7187,7.7187,7.6758,7.6015,7.5937,7.543,7.4726,7.4648,0.0,0.0,0.0,0.0,0.0,0.0,0.0,0.0,8.1953,8.4804,8.7851,8.9687,9.1367,9.3203,9.5898,9.7304,9.8672,10.1289,10.3008,10.4883,10.8711,11.1601,11.3203,11.2383,11.3515,11.4414,11.3593,11.3398,0.0,0.0,0.0,0.0,0.0,0.0,0.0,0.0,0.0,0.0,0.0,0.0,0.0,0.0,0.0,0.0,0.0,0.0,0.0,0.0,0.0,0.0,11.8281,11.8281,11.8281,0.0,11.8398,11.8789,11.9609,11.8789,11.8906,11.9804,12.0586,12.1015,12.1093,12.1992,12.2304,12.2383,12.3203,12.3515,12.3515,12.3515,12.3515,12.3515,0.0,0.0,0.0,0.0,0.0,0.0,5.6006,5.5971,5.5941,5.5899,5.578,5.5703,5.5703,5.5703,0.0,5.5703,5.5703,5.6071,5.6939,5.7824,5.9133,6.0997,6.4161,6.7677,7.152,7.2303,7.3661,7.5813,7.687,7.7422,7.7461,0.0,0.0,7.7187,0.0,7.7187,7.7187,7.7187,7.7109,7.6875,7.6172,7.5781,7.5547,7.4844,7.4609,0.0,0.0,0.0,0.0,0.0,0.0,0.0,8.3594,8.5781,8.8086,9.1133,9.2304,9.332,9.6562,9.9062,10.1406,10.3984,10.8398,11.1914,11.1406,11.3281,11.5117,11.4883,11.5195,11.539,11.5312,0.0,0.0,0.0,0.0,0.0,0.0,0.0,0.0,0.0,0.0,0.0,0.0,0.0,0.0,0.0,0.0,0.0,0.0,0.0,0.0,0.0,0.0,11.8281,11.8281,11.8281,11.8281,0.0,11.8984,11.9414,11.9609,11.9414,11.9804,12.0703,12.1484,12.1914,12.1992,12.289,12.3203,12.3203,12.3398,12.3515,12.3515,12.3515,12.3515,12.3515,0.0,0.0,0.0,0.0,0.0,0.0,0.0,0.0,5.6018,5.5899,5.5818,5.5742,5.5703,5.5703,0.0,0.0,5.5703,5.5895,5.634,5.7576,5.9425,6.1982,6.4767,6.7541,7.0332,7.1368,7.2929,7.5188,7.6089,7.6758,0.0,0.0,0.0,7.7187,7.7187,7.7187,7.7226,7.7656,7.7812,7.7812,7.7734,7.7734,7.7656,7.7226,7.7031,7.7109,7.7578,0.0,0.0,0.0,0.0,0.0,0.0,0.0,8.8086,9.1094,9.2265,9.3437,9.7265,9.9609,10.1914,10.5703,11.0586,11.4218,11.2812,11.4492,11.6406,11.6914,11.6601,11.6484,0.0,0.0,0.0,0.0,0.0,0.0,0.0,0.0,0.0,0.0,0.0,0.0,0.0,0.0,0.0,0.0,0.0,0.0,0.0,0.0,0.0,0.0,11.8281,11.8281,11.8281,11.8711,11.8906,11.8906,11.9804,12.039,12.0781,12.0781,12.1093,12.1601,12.2383,12.2812,12.289,12.3281,12.3515,12.3515,12.3515,12.3515,12.3515,12.3515,12.3515,12.3515,0.0,0.0,0.0,0.0,0.0,0.0,0.0,0.0,0.0,5.5902,5.584,5.578,5.5703,5.5703,5.5703,0.0,0.0,0.0,5.5703,5.7324,5.9733,6.2937,6.4865,6.6728,6.8628,7.0509,7.2314,7.4062,7.5464,7.6562,0.0,0.0,0.0,7.7187,7.7187,7.7265,7.7461,7.8203,7.8594,7.8789,7.9414,7.9687,7.9687,7.9687,7.9687,7.9687,7.9687,7.9805,8.0039,8.0742,0.0,0.0,0.0,0.0,8.8164,9.0586,9.1914,9.3554,9.7812,10.0312,10.2812,10.75,11.1718,11.4492,11.3789,11.5508,11.7383,11.8203,11.7695,11.7383,0.0,0.0,0.0,0.0,0.0,0.0,0.0,0.0,0.0,0.0,0.0,0.0,0.0,0.0,0.0,0.0,0.0,0.0,0.0,0.0,11.8281,11.8281,11.8398,11.8515,11.8515,11.9414,11.9804,11.9804,12.0703,12.1601,12.2383,12.2383,12.2383,12.25,12.3203,12.3515,12.3515,12.3515,12.3515,12.3515,12.3515,12.3515,12.3515,12.3515,12.3515,12.3515,0.0,0.0,0.0,0.0,0.0,0.0,0.0,0.0,0.0,0.0,5.5865,5.578,5.578,5.5742,5.5703,5.5703,5.5703,5.5703,5.5703,0.0,0.0,6.1351,6.3167,6.5019,6.6875,6.8734,7.0531,7.2339,7.5503,7.7461,0.0,0.0,0.0,7.7187,0.0,7.7617,7.832,7.8437,7.8906,7.9531,7.9648,7.9687,7.9687,7.9687,7.9687,7.9687,7.9687,8.0195,8.0859,8.0976,8.1992,0.0,0.0,0.0,8.8906,9.0742,9.1914,9.3554,9.7812,10.289,10.7695,11.0586,11.3515,11.5586,11.5508,11.6797,11.8203,11.8281,11.8203,0.0,0.0,0.0,0.0,0.0,0.0,0.0,0.0,0.0,0.0,0.0,0.0,0.0,0.0,0.0,0.0,0.0,0.0,0.0,0.0,11.8281,11.8281,11.8281,11.8984,11.9414,11.9414,12.0312,12.0703,12.0703,12.1601,12.25,12.3281,12.3281,12.3281,12.3281,12.3398,12.3515,12.3515,12.3515,12.3515,12.3515,12.3515,12.3515,12.3515,12.3515,12.3515,12.3515,0.0,0.0,0.0,0.0,0.0,0.0,0.0,0.0,0.0,0.0,0.0,5.5885,5.5878,5.578,5.578,5.5818,5.578,5.5994,5.6494,5.7755,5.9283,6.1079,6.293,6.476,6.6624,6.8444,7.023,7.1987,7.5503,7.7656,0.0,7.8555,7.8594,0.0,0.0,7.7695,7.8515,7.8984,7.9648,8.0508,8.1484,8.1875,8.1953,8.2422,8.2617,8.2617,8.2617,8.2851,8.3203,8.3203,8.3672,8.4492,8.5351,0.0,0.0,0.0,9.0117,9.2383,9.8164,10.4101,10.9101,11.0781,11.3086,11.5195,11.5586,11.6718,11.7695,11.8203,0.0,0.0,0.0,0.0,0.0,0.0,0.0,0.0,0.0,0.0,0.0,0.0,0.0,0.0,0.0,0.0,0.0,0.0,0.0,0.0,11.8281,11.8281,11.8515,11.8984,11.9414,11.9804,12.0312,12.1211,12.1914,12.2383,12.2695,12.3086,12.3515,12.3515,12.3515,12.3515,12.3515,12.3515,12.3515,12.3515,12.3515,12.3515,12.3515,12.3515,12.3515,12.3515,12.3515,12.3515,0.0,0.0,0.0,0.0,0.0,0.0,0.0,0.0,0.0,0.0,0.0,5.5998,5.5923,0.0,0.0,0.0,5.5843,5.6231,5.7176,5.8103,5.9314,6.0881,6.292,6.466,6.6039,6.8039,6.982,7.1343,0.0,0.0,7.8203,7.9219,7.9805,0.0,7.8281,7.8008,7.8867,7.9687,8.0664,8.1758,8.3086,8.3867,8.4336,8.4961,8.5625,8.6211,8.6211,8.6211,8.6172,8.5937,8.5742,8.5625,8.6054,8.6367,0.0,0.0,0.0,9.2148,9.7539,10.3203,10.789,10.8789,11.0898,11.3203,11.4687,11.5703,11.6718,0.0,0.0,0.0,0.0,0.0,0.0,0.0,0.0,0.0,0.0,0.0,0.0,0.0,0.0,0.0,0.0,0.0,0.0,0.0,0.0,0.0,11.8281,11.8515,11.8906,11.9609,12.0,12.0586,12.1211,12.2109,12.289,12.3515,12.3515,12.3515,12.3515,12.3515,12.3515,12.3515,12.3515,12.3515,12.3515,12.3515,12.3515,12.3515,12.3711,12.3789,12.3906,12.4101,12.4101,12.4101,0.0,0.0,0.0,0.0,0.0,0.0,0.0,0.0,0.0,0.0,0.0,5.6089,5.5995,5.5917,5.5884,5.5878,5.5885,5.6304,5.7327,5.8213,5.9171,6.0226,6.2713,0.0,6.4331,6.6869,6.8632,6.9531,0.0,0.0,7.7305,7.8945,8.0156,8.0859,7.918,7.8867,7.9687,0.0,0.0,8.3476,8.3554,8.4609,8.6054,8.6133,8.7617,8.9726,8.9726,8.9726,8.9609,8.8789,8.8008,8.7226,8.6445,8.6758,8.7422,0.0,0.0,0.0,9.5156,9.9258,10.3398,10.4297,10.6484,10.9218,11.2617,11.3984,11.5312,11.7812,0.0,0.0,0.0,0.0,0.0,0.0,0.0,0.0,0.0,0.0,0.0,0.0,0.0,0.0,0.0,0.0,0.0,0.0,0.0,0.0,11.8281,11.9101,11.9609,11.9609,12.1211,12.2109,12.2109,12.3008,12.3515,12.3515,12.3515,12.3515,12.3515,12.3515,12.3515,12.3515,12.3515,12.3515,12.3515,12.3515,12.3515,12.3593,12.4414,12.4687,12.4804,12.5586,12.5898,12.5898,0.0,0.0,0.0,0.0,0.0,0.0,0.0,0.0,0.0,0.0,0.0,0.0,0.0,5.7738,5.7714,5.7776,5.7776,5.7906,5.8256,5.9154,0.0,6.025,6.2781,6.4197,6.4258,6.6832,6.8555,0.0,0.0,7.5781,7.7226,7.8398,7.9687,8.0937,7.9258,7.9258,8.0547,8.0859,0.0,0.0,8.4804,8.5976,8.7265,8.9453,9.1211,9.2578,9.3125,9.2969,9.2383,9.1484,9.0273,8.8945,8.8086,8.8008,8.8281,8.8281,9.0547,9.3398,9.4804,9.8554,10.2304,10.3086,10.5312,10.7812,11.0195,11.1406,11.2617,11.4609,0.0,0.0,0.0,0.0,0.0,0.0,0.0,0.0,0.0,0.0,0.0,0.0,0.0,0.0,0.0,0.0,0.0,0.0,0.0,0.0,11.8281,11.9101,11.9883,12.039,12.1601,12.25,12.3008,12.3281,12.3515,12.3515,12.3515,12.3515,12.3515,12.3515,12.3515,12.3515,12.3515,12.3789,12.4297,12.4297,12.4609,12.5117,12.539,12.5586,12.5586,12.5898,12.6015,12.6015,0.0,0.0,0.0,0.0,0.0,0.0,0.0,0.0,0.0,5.9489,0.0,0.0,0.0,0.0,5.9668,5.9706,5.9711,5.9838,6.0149,6.0477,6.0949,6.1573,6.3282,6.4395,6.4747,6.6716,6.8281,0.0,0.0,0.0,0.0,7.7226,7.8672,8.0508,7.9414,7.9687,0.0,0.0,0.0,8.4179,8.5937,8.75,8.9062,9.1601,9.4023,9.6133,0.0,0.0,0.0,0.0,9.3008,9.0703,8.9844,8.9179,8.8633,8.8398,8.9726,9.1601,9.3047,9.5976,9.8945,10.039,10.2383,10.4804,10.7383,10.8906,11.0312,11.2304,0.0,0.0,0.0,0.0,0.0,0.0,0.0,0.0,0.0,0.0,0.0,0.0,0.0,0.0,0.0,0.0,0.0,0.0,0.0,0.0,11.8711,11.9609,12.0586,12.1718,12.2304,12.289,12.3515,12.3515,12.3515,12.3515,12.3515,12.3515,12.3515,12.3515,12.3515,12.3515,12.3515,12.3984,12.4804,12.4804,12.5312,12.6015,12.6289,12.6406,12.6484,12.6797,12.6914,12.6914,0.0,0.0,0.0,0.0,0.0,0.0,0.0,0.0,6.0505,6.0553,0.0,0.0,0.0,0.0,0.0,6.1616,6.1616,6.2006,6.2864,6.2155,6.2423,6.4145,6.4293,0.0,6.5586,6.6445,6.7734,6.9414,7.0234,7.1992,7.4609,7.5469,7.7226,7.9687,7.9687,8.0195,8.1172,0.0,8.4101,8.5078,0.0,8.9101,9.1445,9.2383,9.5898,0.0,10.039,10.039,0.0,9.9453,0.0,0.0,9.164,9.0117,8.8554,8.7773,8.8086,8.8906,0.0,0.0,0.0,9.582,9.7734,10.0117,10.4414,10.6719,10.8711,11.1289,0.0,0.0,0.0,0.0,0.0,0.0,0.0,0.0,0.0,0.0,0.0,0.0,0.0,0.0,0.0,0.0,0.0,0.0,0.0,11.8711,11.9609,12.0508,12.1718,12.3398,12.3515,12.3515,12.3515,12.3515,12.3515,12.3515,12.3515,12.3515,12.3515,12.3515,12.3515,12.3515,12.3515,12.3984,12.4804,12.4804,12.5312,12.6211,12.6992,12.7304,12.7383,12.8281,12.8593,12.8593,0.0,0.0,0.0,0.0,0.0,6.1211,6.1836,6.2656,6.3435,0.0,0.0,0.0,0.0,0.0,0.0,6.447,6.4392,6.4275,6.3923,6.3701,6.3763,6.4254,6.4882,6.5351,6.5586,6.6445,6.7734,6.9414,6.9648,7.1406,7.4609,7.4844,7.664,7.9687,7.9687,8.0898,8.289,8.3398,0.0,8.6054,8.8359,9.0508,0.0,0.0,0.0,0.0,0.0,10.3086,10.3086,0.0,10.0312,9.664,0.0,9.0625,8.8672,8.8437,8.8515,8.8906,8.9765,0.0,0.0,0.0,0.0,0.0,10.1992,10.4492,10.6914,10.9492,0.0,0.0,0.0,0.0,0.0,0.0,0.0,0.0,0.0,0.0,0.0,0.0,0.0,0.0,0.0,0.0,0.0,0.0,11.8281,11.8711,11.9609,12.1015,12.2383,12.3515,12.3515,12.3515,12.3515,12.3515,12.3515,12.3515,12.3515,12.3515,12.3515,12.3515,12.3515,12.3515,12.3515,12.4297,12.5703,12.5703,12.6484,12.789,12.8086,12.8203,12.8281,12.8515,12.8593,12.8593,0.0,0.0,6.1055,6.1875,6.2734,6.3515,6.4023,6.5117,6.6093,0.0,0.0,0.0,0.0,0.0,0.0,6.7174,6.7135,6.694,6.6471,6.612,6.593,6.5937,6.6055,6.6133,6.6133,6.664,6.7734,6.9414,6.9414,7.1211,7.4609,7.4609,7.6406,7.9687,7.9687,8.1133,8.3633,8.4375,0.0,0.0,8.9531,0.0,0.0,9.6679,9.9219,0.0,0.0,0.0,10.4804,10.5508,10.3008,0.0,0.0,9.1562,9.0195,8.9453,8.8984,8.8984,9.0195,9.1015,9.2031,9.414,0.0,0.0,10.0,10.3086,0.0,0.0,0.0,0.0,0.0,0.0,0.0,0.0,0.0,0.0,0.0,0.0,0.0,0.0,0.0,0.0,0.0,0.0,0.0,0.0,11.9414,11.9804,12.0586,12.1992,12.3008,12.3515,12.3515,12.3515,12.3515,12.3515,12.3515,12.3515,12.3515,12.3515,12.3515,12.3515,12.3515,12.3515,12.3515,12.4297,12.5508,12.5898,12.6992,12.8593,12.8593,12.8593,12.8593,12.8593,12.8593,12.8593,0.0,0.0,6.3437,6.4414,6.5234,6.582,6.6015,6.7422,6.8515,0.0,6.9414,0.0,0.0,0.0,0.0,0.0,6.9844,6.9805,6.9687,6.8945,6.8476,6.8476,6.7656,6.7187,6.7187,6.7187,6.7969,6.9531,6.9609,7.1328,7.4609,7.4687,7.6523,7.9726,7.9883,8.1445,8.3984,8.5664,8.7109,8.8554,9.0937,9.3554,0.0,0.0,10.0508,10.3594,10.5312,10.6015,10.6289,10.7695,10.4804,0.0,0.0,9.3047,9.2304,9.0742,8.9609,8.9219,9.0859,9.0742,9.0742,9.3281,9.5156,0.0,9.8476,10.2109,0.0,0.0,0.0,0.0,0.0,0.0,0.0,0.0,0.0,0.0,0.0,0.0,0.0,0.0,0.0,0.0,0.0,12.0898,12.0898,12.0898,12.1015,12.1406,12.2187,12.3008,12.3515,12.3515,12.3515,12.3515,12.3515,12.3515,12.3515,12.3515,12.3515,12.3515,12.3515,12.3515,12.3515,12.3515,12.3515,12.3984,12.4883,12.5703,12.6992,12.8515,12.8593,12.8593,12.8593,12.8593,12.8593,12.8593,6.4023,6.4062,6.4531,6.6133,6.6523,6.7109,6.8515,6.957,7.0469,7.1172,0.0,0.0,0.0,0.0,0.0,0.0,7.2539,7.2226,7.1523,7.0703,7.0195,7.0195,6.9375,6.8945,6.8984,6.8984,6.9453,7.0469,7.0469,7.1875,7.4609,7.5312,7.7109,7.9765,8.1172,8.3242,8.5742,8.6797,8.9726,9.3789,9.5,0.0,10.1484,10.25,10.4219,10.6211,10.789,10.8984,10.9492,10.9218,10.6093,10.1992,0.0,0.0,9.2539,9.2187,9.0976,8.9961,9.1015,9.1172,9.1523,9.3437,9.4687,0.0,9.7578,10.0195,10.3008,0.0,10.7304,0.0,0.0,0.0,0.0,0.0,0.0,0.0,0.0,0.0,0.0,0.0,0.0,0.0,0.0,0.0,12.0898,12.0898,12.1484,12.1992,12.2187,12.3008,12.3515,12.3515,12.3515,12.3515,12.3515,12.3515,12.3515,12.3515,12.3515,12.3515,12.3515,12.3515,12.3515,12.3515,12.3515,12.3984,12.4883,12.5703,12.6601,12.7617,12.8281,12.8593,12.8593,12.8593,12.8593,12.8711,6.4844,6.5312,6.6015,6.7305,6.8594,6.9726,7.0625,7.1836,7.2969,7.3828,0.0,0.0,0.0,0.0,0.0,0.0,0.0,7.4883,7.3984,7.3555,7.289,7.2031,7.1172,7.0508,7.0117,6.9687,6.9844,7.0703,7.1133,7.2461,7.4648,7.5937,7.789,8.039,8.1719,8.3984,8.6914,8.8203,9.1484,9.5937,9.6758,0.0,10.3711,10.5,10.6484,10.8203,11.0,11.1406,11.2304,11.0508,10.8203,0.0,10.1992,9.8867,9.6172,9.4922,9.3008,9.1484,9.2344,9.1953,9.1601,9.2929,9.4219,0.0,0.0,9.9414,10.2109,10.3789,10.5586,10.7304,10.8984,0.0,0.0,0.0,0.0,0.0,0.0,0.0,0.0,0.0,0.0,0.0,0.0,0.0,12.1718,12.2187,12.2617,12.2812,12.2812,12.3281,12.3515,12.3515,12.3515,12.3515,12.3515,12.3515,12.3515,12.3515,12.3515,12.3515,12.3515,12.3515,12.3515,12.3515,12.3515,12.3711,12.4218,12.5508,12.6289,12.6797,12.8086,12.8593,12.8593,12.8593,12.8906,12.9297,6.5976,6.668,6.7461,6.8515,7.0508,7.207,7.2226,7.3867,7.5547,0.0,0.0,0.0,0.0,0.0,0.0,0.0,7.918,7.8672,7.7461,7.7226,7.6445,7.4844,7.3476,7.2578,7.2226,7.1015,7.0742,7.1445,7.2148,7.332,7.4883,7.664,7.8711,8.1054,8.2422,8.4804,8.7851,9.0078,0.0,9.7109,0.0,10.1211,10.4609,10.6093,10.8008,11.0,11.1992,11.3281,11.3906,11.1797,11.0195,10.8281,10.4101,10.1797,10.0117,9.789,9.539,9.3476,9.3984,9.3125,9.2226,9.2929,9.4297,9.5625,0.0,0.0,0.0,10.1992,0.0,10.4687,10.6211,0.0,0.0,0.0,0.0,0.0,0.0,0.0,0.0,0.0,0.0,0.0,0.0,0.0,12.2109,12.289,12.3008,12.3008,12.3008,12.3281,12.3515,12.3515,12.3515,12.3515,12.3515,12.3515,12.3515,12.3515,12.3515,12.3515,12.3515,12.3515,12.3515,12.3515,12.3515,12.3593,12.3906,12.539,12.6093,12.6406,12.8008,12.8593,12.8593,12.8789,12.9297,12.9883,6.8047,6.7969,6.8555,7.0156,7.1289,7.2265,7.3047,7.5273,7.7734,0.0,0.0,0.0,0.0,0.0,0.0,0.0,0.0,0.0,8.289,0.0,8.1133,8.0156,7.7148,7.6133,7.7578,7.5234,7.4062,7.414,7.4258,7.4805,7.5781,7.7539,7.9297,8.1133,8.4336,8.6797,8.8828,0.0,9.6211,0.0,10.2187,10.4219,0.0,10.6406,10.8711,11.1914,11.4414,11.4414,11.3281,0.0,11.0781,10.8008,0.0,10.4609,10.1211,10.0195,9.8047,9.5898,9.5234,9.4922,9.4765,9.4883,9.5625,9.6367,9.6484,0.0,9.8398,9.9258,0.0,10.0,10.1015,0.0,0.0,0.0,0.0,0.0,10.8515,11.039,11.3515,0.0,0.0,0.0,0.0,0.0,0.0,12.1093,12.1211,12.1211,12.1211,12.2695,12.3515,12.3515,12.3515,12.3515,12.3515,12.3515,12.3515,12.3515,12.3515,12.3515,12.3515,12.3515,12.3515,12.3515,12.3515,12.3906,12.4687,12.5586,12.6484,12.7187,12.8203,12.8593,12.8711,12.9492,12.9804,13.0117,6.8359,6.8984,7.0039,7.125,7.2578,7.3984,7.5351,7.8164,8.0547,8.1601,8.3711,0.0,0.0,0.0,0.0,0.0,0.0,8.957,0.0,0.0,8.4687,8.332,7.9961,7.8437,7.918,7.668,7.5351,7.5351,7.5351,7.5781,7.668,7.8398,8.039,8.2617,8.5117,8.8242,9.1914,0.0,9.8008,0.0,0.0,0.0,0.0,10.7695,11.039,11.3711,11.6289,11.5781,11.4101,0.0,11.3515,0.0,0.0,0.0,10.5117,10.3711,10.0781,9.7851,9.75,9.6679,9.5937,9.5937,9.6211,9.6484,9.6484,9.7109,9.7812,9.8164,0.0,0.0,0.0,0.0,0.0,0.0,10.3086,0.0,0.0,10.7383,11.0312,0.0,0.0,0.0,0.0,0.0,0.0,0.0,0.0,12.0898,12.0898,12.2617,12.3515,12.3515,12.3515,12.3515,12.3515,12.3515,12.3515,12.3515,12.3515,12.3515,12.3515,12.3515,12.3515,12.3515,12.3515,12.3984,12.4883,12.5703,12.6484,12.7383,12.8789,12.9414,12.9414,12.9804,13.0508,13.1484,6.9414,7.0039,7.1055,7.2148,7.3594,7.543,7.7851,8.0976,8.3359,8.4297,0.0,0.0,9.0976,9.2383,0.0,0.0,9.5078,9.4219,0.0,0.0,8.9179,8.7422,8.3828,0.0,8.1836,7.8867,7.7187,7.6953,7.6953,7.7265,7.793,7.9375,8.1328,8.3672,8.5664,8.9023,9.3359,9.6054,9.9258,10.2695,10.4883,10.6601,10.8008,10.9687,11.2109,11.4804,11.7383,11.6797,11.5,11.6289,11.5312,0.0,11.3593,11.1718,10.9101,10.7695,10.4492,10.1406,10.1211,9.9726,9.8242,9.8242,9.789,9.7539,9.7539,9.8008,9.8359,9.8125,9.8554,0.0,0.0,0.0,9.9922,9.9922,0.0,10.2187,10.2187,10.4297,10.6914,10.9609,0.0,0.0,0.0,0.0,0.0,0.0,0.0,0.0,11.9492,12.1992,12.3281,12.2812,12.3281,12.3515,12.3515,12.3515,12.3515,12.3515,12.3515,12.3515,12.3515,12.3515,12.3515,12.3515,12.3789,12.4297,12.5195,12.6015,12.6992,12.8086,12.9414,13.0195,13.0586,13.0586,13.1406,13.25,7.2031,7.125,7.125,7.2969,7.3984,7.6015,8.0234,8.3125,8.6015,8.9336,0.0,0.0,0.0,0.0,0.0,0.0,0.0,10.0195,9.7617,0.0,9.5429,0.0,0.0,8.7265,0.0,8.3047,8.0429,7.957,7.957,7.9609,7.9648,8.0547,8.1914,8.3711,8.6289,8.8906,9.1719,9.6797,9.9961,10.1914,10.5312,10.8203,11.0703,0.0,11.3711,11.4804,11.7383,0.0,0.0,11.5781,11.5195,0.0,0.0,0.0,0.0,0.0,0.0,0.0,0.0,0.0,0.0,10.2695,0.0,0.0,0.0,10.0195,9.9961,9.914,9.8984,9.875,9.789,9.8437,9.9023,9.9023,9.9804,0.0,0.0,10.0508,10.2383,10.75,11.0312,0.0,0.0,0.0,0.0,0.0,0.0,0.0,11.6015,12.0703,12.2695,12.1015,12.2617,12.3515,12.3515,12.3515,12.3515,12.3515,12.3515,12.3515,12.3515,12.3515,12.3515,12.3515,12.4414,12.5195,12.6015,12.6914,12.8281,12.9804,12.9883,13.0898,13.2383,13.2383,13.25,13.2617,7.3906,7.3476,7.3476,7.4062,7.5351,7.7578,8.1289,8.5039,0.0,0.0,0.0,0.0,0.0,0.0,10.289,0.0,0.0,10.3594,10.2109,10.0703,0.0,0.0,0.0,9.0351,0.0,0.0,8.2851,8.1406,8.0859,8.0547,8.0586,8.1445,8.2773,8.457,8.7148,9.0351,9.4101,9.7539,0.0,0.0,0.0,11.1406,11.3203,0.0,0.0,11.5586,11.7617,11.7187,0.0,11.7109,11.6484,11.5586,11.6718,11.5703,11.3984,11.3711,11.1797,0.0,0.0,0.0,10.539,10.539,0.0,0.0,0.0,0.0,10.0508,10.1406,10.1601,10.1484,10.1211,10.1406,10.1015,9.9297,9.9258,9.9258,0.0,9.9062,10.0508,10.3398,10.5117,10.6914,10.9492,0.0,0.0,0.0,0.0,0.0,0.0,12.0195,12.1992,12.2617,12.3789,12.4414,12.4414,12.4414,12.4414,12.4414,12.3789,12.3515,12.3515,12.3515,12.3789,12.4414,12.4687,12.5586,12.6914,12.7187,12.8281,13.0,13.0508,13.1484,13.25,13.25,13.289,13.3398,7.6992,7.6406,7.5898,7.5586,7.7461,7.9961,0.0,0.0,0.0,0.0,9.6719,0.0,10.1992,0.0,10.4687,0.0,10.5898,10.5703,10.5117,10.3789,0.0,10.0898,9.7304,0.0,0.0,0.0,8.6015,8.457,8.3125,8.2226,8.1953,8.2812,8.3984,8.5469,8.7695,9.0937,9.4883,9.7461,10.1914,0.0,0.0,11.3906,0.0,0.0,11.6289,11.6406,0.0,11.8515,11.7695,11.8789,11.8515,11.7812,11.8906,11.8086,11.6718,11.6406,11.4883,11.3281,11.3008,11.1015,0.0,10.8984,10.6914,0.0,10.4804,0.0,10.4219,10.5,10.4492,10.3711,10.3398,10.2617,10.1406,9.9726,9.9219,9.8711,0.0,9.8164,9.9179,10.0898,10.2187,10.3984,10.6797,10.8203,0.0,0.0,0.0,0.0,0.0,0.0,12.0195,12.0703,12.2187,12.3203,12.3906,12.4218,12.4492,12.4804,12.4218,12.3789,12.3515,12.3515,12.3984,12.4804,12.5117,12.6015,12.7304,12.8008,12.9101,13.039,13.1289,13.2187,13.3008,13.3008,13.3281,13.3789,8.0937,7.9726,7.8437,0.0,8.0273,0.0,0.0,0.0,9.4062,0.0,10.0898,10.3711,10.539,10.6289,10.6797,10.6797,10.6797,0.0,10.6797,10.6015,0.0,0.0,10.1914,9.9648,9.7851,0.0,0.0,0.0,8.6367,8.4687,8.3828,8.4609,8.5429,8.6328,8.8047,9.0742,9.414,9.6679,10.0781,10.6211,11.289,11.5586,11.6015,11.8593,0.0,11.7499,11.9999,12.0898,12.0898,12.0898,12.0898,12.0898,12.0898,12.0898,12.0703,11.9883,11.9101,11.8203,11.7383,11.539,11.3515,11.3515,0.0,0.0,0.0,0.0,11.039,10.9609,10.75,10.5508,10.4687,10.2383,10.0586,10.039,9.9648,9.8789,9.7969,9.7812,9.8476,10.0195,10.1797,10.3515,10.5312,10.6992,10.8711,11.0508,11.289,11.4101,11.3398,0.0,11.75,11.5898,11.8281,12.0508,12.2187,12.3086,12.3984,12.4883,12.4804,12.4414,12.3593,12.3593,12.3984,12.4883,12.5703,12.6601,12.75,12.9218,13.039,13.1289,13.2187,13.3008,13.3789,13.3789,13.3789,13.3789,8.0272,8.0742,8.164,0.0,8.3633,8.5234,0.0,0.0,0.0,0.0,10.3203,10.5898,10.6289,10.7187,10.7695,10.7695,10.7695,0.0,0.0,0.0,0.0,10.6093,10.4219,10.2109,9.9687,9.707,0.0,9.1601,8.9648,8.7929,8.6484,8.6054,8.6328,8.7265,8.9609,9.2226,9.5039,9.7578,10.1992,10.7695,11.2109,11.4212,11.511,11.8397,11.9295,11.8982,12.0388,12.0908,12.0888,12.0888,12.0888,12.0891,12.0898,12.0898,12.0898,12.0586,12.039,12.0195,12.0,11.8515,11.6992,11.6992,11.4687,11.25,0.0,0.0,0.0,0.0,0.0,0.0,10.8984,10.6797,10.4414,10.25,10.1015,9.9883,9.9648,9.9648,10.0,10.1094,10.1719,10.289,10.5312,10.6406,10.8008,11.039,11.1797,11.3281,11.5,0.0,0.0,11.7617,11.9492,12.1406,12.3086,12.3984,12.5195,12.6601,12.539,12.4687,12.4492,12.4492,12.4883,12.5703,12.6601,12.75,12.8398,12.9414,13.039,13.1289,13.2187,13.3008,13.3789,13.3789,13.3789,13.3789,8.3241,0.0,0.0,8.625,0.0,0.0,9.0976,0.0,0.0,10.1094,10.4492,0.0,10.7187,10.8008,10.8593,10.8593,10.8906,0.0,0.0,0.0,0.0,10.789,10.6601,10.5,10.3086,10.0703,0.0,9.5976,0.0,9.082,8.914,8.8281,8.8125,8.8672,9.0898,9.332,9.6054,10.0117,10.4219,10.8398,11.2607,11.5006,0.0,11.9506,12.09,12.1201,12.1682,12.1915,12.1888,12.1888,12.2013,12.1996,12.2012,12.1987,12.1914,12.1601,12.1484,12.1406,12.1015,12.0195,11.9414,11.9414,11.8008,11.6601,11.6601,11.5781,11.539,0.0,0.0,0.0,0.0,0.0,10.7383,10.4492,10.2617,10.1211,10.039,10.1015,10.1484,10.1601,10.2617,0.0,10.539,10.5898,10.7187,10.9804,11.0781,11.2109,11.3984,11.4492,11.539,11.7187,11.8906,12.0586,12.2304,12.3593,12.4492,12.5117,12.4883,12.4609,12.4297,12.5,12.5781,12.6601,12.7109,12.7812,12.8711,13.0,13.0781,13.1289,13.2617,13.3398,13.3789,13.3789,13.3789,13.3789,8.7616,0.0,0.0,0.0,0.0,0.0,0.0,9.6523,0.0,10.3008,0.0,10.7304,10.8086,10.8906,10.9492,10.9492,0.0,11.0586,11.0586,11.0586,11.0312,10.9492,10.8711,10.789,10.6914,10.3984,0.0,0.0,0.0,9.3711,9.2109,9.0898,9.039,9.0586,9.2344,9.4687,9.7695,10.3398,10.6718,10.8591,11.3899,11.6911,11.858,12.1214,12.2693,12.3324,12.3214,12.3212,12.3293,12.3293,12.3295,12.3391,12.3401,12.3408,12.3319,12.2617,12.2383,12.2187,12.1406,12.1211,12.1211,12.1211,12.1211,12.1093,12.1093,12.1015,12.0898,12.0898,11.8398,11.6093,0.0,0.0,10.9883,10.6719,10.4687,10.3086,10.1797,10.2617,10.3086,10.2812,0.0,0.0,0.0,10.5898,10.6719,10.9101,11.0117,11.1015,11.1914,11.2695,11.3984,11.5703,11.7383,0.0,12.0898,0.0,12.3086,12.2383,12.3984,12.4414,12.3711,12.539,12.6601,12.7304,12.7383,12.8008,12.8906,13.0508,13.1289,13.1718,13.3203,13.3789,13.3789,13.3789,13.3789,13.3789,8.8749,0.0,0.0,0.0,0.0,9.6875,9.8672,10.1914,10.4609,10.5898,10.7695,0.0,10.9101,10.9883,11.039,11.039,11.0508,0.0,0.0,0.0,0.0,11.039,11.0195,10.9414,10.7812,10.7187,10.5781,0.0,0.0,9.7578,9.6523,9.3554,9.2539,9.3281,9.5039,9.8047,10.1992,10.5898,0.0,10.9597,11.5515,11.7995,11.8613,12.181,12.3095,12.3,12.2974,12.3,12.3077,12.3077,12.3207,12.3176,12.3303,12.341,12.3402,12.32,12.3203,12.3203,12.3086,12.3008,12.3008,12.3008,12.25,12.1992,12.1992,12.1406,12.0898,12.0898,11.9297,11.789,11.7812,0.0,0.0,11.0,0.0,0.0,0.0,0.0,10.6015,10.8711,0.0,10.8398,0.0,10.8203,10.7304,10.9218,11.0117,11.1015,11.1914,11.2695,11.3984,0.0,11.7383,0.0,0.0,0.0,0.0,12.3281,12.4297,12.4687,12.4609,12.6289,12.7187,12.7304,12.8086,12.8906,12.9804,13.0781,13.1992,13.3398,13.3711,13.3789,13.3789,13.3789,13.3789,13.3789,9.2912,0.0,0.0,0.0,0.0,0.0,0.0,10.5508,0.0,10.7383,10.8515,10.9492,10.9883,11.0781,11.1289,11.1289,11.1718,11.1914,11.1914,11.1914,11.1718,11.1289,11.1289,0.0,10.9414,10.9297,10.8281,10.6211,0.0,10.1211,9.9023,9.7344,9.6094,9.5351,9.75,10.0586,10.4414,0.0,0.0,11.2891,11.6685,11.9003,12.0406,12.2393,12.3,12.2905,12.27,12.2672,12.2791,12.289,12.3018,12.3117,12.32,12.332,12.341,12.3408,12.3393,12.3398,12.3515,12.3515,12.3515,12.3515,12.3203,12.289,12.289,12.25,12.2187,12.2187,12.1211,12.0195,11.9687,11.7617,0.0,0.0,0.0,0.0,0.0,0.0,10.8593,10.9804,11.039,11.0703,0.0,10.9414,10.9101,10.9883,11.039,11.0781,11.1211,11.25,11.4218,0.0,0.0,0.0,0.0,0.0,0.0,12.3515,12.4804,12.539,12.5508,12.7187,12.8203,12.8711,12.9101,12.9804,13.0586,13.1484,13.2617,13.3789,13.3789,13.3789,13.3789,13.3789,13.3789,13.3789,0.0,9.7745,0.0,0.0,10.1209,0.0,0.0,10.8008,10.9297,10.8593,10.9297,11.0117,11.0781,11.1718,11.2304,11.2383,11.3086,11.3515,11.3711,11.3711,11.3398,11.25,11.2381,11.1911,11.0896,11.0897,11.0116,0.0,0.0,0.0,0.0,10.1406,10.039,9.875,0.0,0.0,0.0,0.0,11.1892,11.6092,11.8015,11.9987,12.2004,12.2706,12.2803,12.2722,12.2511,12.2412,12.2412,12.2596,12.2804,12.2905,12.3,12.3184,12.3303,12.3401,12.3413,12.3398,12.3515,12.3593,12.3789,12.3789,12.3906,12.3984,12.3984,12.3984,12.3984,12.3789,12.3086,12.2187,12.1289,12.0117,0.0,0.0,0.0,0.0,0.0,0.0,11.1601,11.1289,11.3008,11.3281,11.0898,0.0,11.1484,11.1211,11.0781,11.0703,11.0898,11.2383,11.4414,0.0,0.0,11.9609,12.2187,0.0,12.3515,0.0,12.5195,12.6015,12.6093,12.8008,12.9297,12.9883,13.0117,13.0703,13.1484,13.2383,13.3203,13.3789,13.3789,13.3789,13.3789,13.3789,13.3789,13.3789,0.0,0.0,0.0,0.0,0.0,0.0,0.0,10.9297,11.039,11.039,11.1093,11.1718,11.1797,11.2617,11.3398,11.4218,11.4297,11.4687,11.539,11.5508,11.5195,11.4297,11.4196,11.3384,11.1823,11.1809,11.1315,0.0,0.0,0.0,0.0,10.4883,10.5195,0.0,0.0,0.0,0.0,11.278,11.5008,11.699,11.9484,12.099,12.1811,12.2516,12.2587,12.23,12.231,12.2121,12.2001,12.2197,12.2478,12.2816,12.2905,12.3098,12.3215,12.342,12.3395,12.3388,12.3515,12.4101,12.4687,12.4687,12.5195,12.5781,12.5781,12.5781,12.5586,12.4804,12.3984,12.3086,12.2187,12.1914,12.1484,0.0,0.0,0.0,0.0,0.0,11.5781,11.7304,11.7695,11.7109,0.0,11.5195,11.4609,11.3086,11.1484,11.0898,11.1718,11.2695,11.4414,11.6914,11.7812,11.9609,12.2187,12.3086,0.0,12.3515,12.5195,12.6015,12.6093,12.8593,12.9804,12.9883,13.0703,13.1601,13.2383,13.3281,13.3711,13.3789,13.3789,13.3789,13.3789,13.3789,13.3789,13.3789,0.0,0.0,0.0,0.0,0.0,0.0,0.0,11.1301,11.2291,11.2812,11.2812,11.289,11.3398,11.4218,11.4804,11.5195,11.5195,11.539,11.5703,11.5703,11.5583,11.5207,11.518,11.4608,11.3396,11.3379,11.2686,0.0,0.0,0.0,0.0,0.0,0.0,0.0,0.0,11.0306,11.2998,11.4478,11.6785,11.9406,12.0795,12.1792,12.2407,12.2606,12.2478,12.2196,12.2003,12.1879,12.1879,12.1962,12.2273,12.2582,12.2804,12.3013,12.3194,12.388,12.4113,12.42,12.4803,12.5312,12.5508,12.5508,12.5781,12.6015,12.6015,12.6015,12.5898,12.5586,12.4883,12.3984,12.3086,12.3008,12.25,0.0,0.0,0.0,0.0,11.8203,11.7383,11.75,11.75,11.6601,11.4414,0.0,11.3711,11.25,11.1797,11.1484,11.1914,11.2695,11.4101,11.6211,0.0,11.8711,12.289,12.3281,12.4492,12.6601,12.7187,12.7812,12.8398,12.9414,13.0508,13.1484,13.2383,13.3008,13.3281,13.3711,13.3789,13.3789,13.3789,13.3789,13.3789,13.3789,13.3789,13.3789,10.8617,0.0,10.8893,0.0,10.9311,11.0204,11.2097,11.3201,11.3984,11.4599,11.4485,11.4409,11.4804,11.539,11.5781,11.6093,11.6091,11.6204,11.6399,11.6399,11.6294,11.5999,11.5986,0.0,11.4707,11.4683,11.4113,11.289,11.2592,0.0,0.0,0.0,0.0,0.0,11.1081,11.3001,11.561,11.6384,11.8405,12.1195,12.1616,12.218,12.2777,12.2511,12.231,12.212,12.1909,12.1827,12.1794,12.1914,12.212,12.242,12.2704,12.3011,12.3502,12.4315,12.4697,12.512,12.5809,12.6206,12.6405,12.6406,12.6601,12.6797,12.6797,12.6797,12.6718,12.6406,12.5703,12.5,12.4297,12.3984,12.3515,12.2187,0.0,0.0,0.0,12.039,12.0,11.8281,11.8593,11.7617,11.4297,11.4414,11.4218,11.3086,11.3008,11.289,11.2695,11.3203,11.4414,0.0,0.0,0.0,0.0,12.3203,12.5,12.7812,12.8398,12.9101,12.9883,13.039,13.1484,13.289,13.3515,13.3789,13.3789,13.3789,13.3789,13.3789,13.3789,13.3789,13.3789,13.3789,13.3789,13.3789,11.0674,11.1521,11.2086,11.2103,11.3113,11.3809,11.3884,11.4815,11.5502,11.5506,11.6296,11.66,11.5781,11.5703,11.6015,11.6914,11.6886,11.7311,11.8092,11.8209,11.7793,0.0,0.0,11.6281,11.5383,11.5424,11.5421,11.5421,0.0,0.0,11.2799,11.2904,11.3906,11.5505,11.6402,11.73,11.8183,11.8885,12.0293,12.1884,12.1597,12.1878,12.2517,12.231,12.2003,12.1783,12.1783,12.1693,12.1608,12.1777,12.1917,12.2198,12.2511,12.3305,12.41,12.4305,12.5101,12.5782,12.59,12.6597,12.729,12.7304,12.789,12.8593,12.8593,12.8593,12.8281,12.75,12.6601,12.6015,12.6015,12.5312,12.4804,12.4804,0.0,0.0,0.0,12.539,12.4609,12.1289,12.2383,12.1406,11.6211,11.7187,11.75,11.5898,11.5781,11.539,11.4492,11.4492,0.0,11.6914,11.6992,0.0,12.0898,12.2617,12.4414,12.6093,12.7812,12.9101,13.0,13.1718,13.289,13.3789,13.3789,13.3789,13.3789,13.3789,13.3789,13.3789,13.3789,13.3789,13.3789,13.3789,13.3789,13.3789,11.3196,11.3389,11.37,11.3706,11.4197,11.4483,11.4524,11.5427,11.6102,11.6212,11.6984,11.7506,11.7286,11.732,11.7505,0.0,11.7718,11.7789,0.0,11.8115,11.7911,11.7506,11.7503,11.6986,11.6073,11.6096,11.5824,11.5116,0.0,0.0,0.0,11.2793,11.3706,11.5494,11.7014,11.8379,11.9821,12.0603,12.1223,12.1683,12.2111,12.2278,12.23,12.2082,12.1917,12.1821,12.1693,12.1993,12.2485,12.2585,12.3099,12.3615,12.39,12.3996,12.4198,12.5614,12.6193,12.6585,12.7314,12.7802,12.8112,12.8088,12.8418,12.8586,12.8586,12.8586,12.8391,12.7492,12.7102,12.6711,12.6086,12.5819,12.5586,12.5586,12.5586,0.0,12.5586,12.4883,12.3515,12.1211,12.1406,12.0586,0.0,11.8984,0.0,0.0,11.8203,11.6914,11.539,0.0,0.0,0.0,11.6992,0.0,12.0898,12.2617,12.4297,12.6015,12.8398,13.0312,13.1718,13.289,13.3515,13.3789,13.3789,13.3789,13.3789,13.3789,13.3789,13.3789,13.3789,13.3789,13.3789,13.3789,13.3789,13.3789,11.422,11.422,11.4305,11.4318,11.4781,11.5124,11.5081,11.6112,11.6783,11.6817,11.738,11.7797,11.7797,11.7915,0.0,11.7989,11.8013,11.7894,11.7875,11.7914,11.7797,11.7719,11.7608,11.7297,11.6696,0.0,0.0,11.5793,11.588,11.5406,11.4393,11.479,11.5807,11.7191,11.8303,11.9588,12.0889,12.13,12.1715,12.2012,12.2317,12.2307,12.2121,12.1921,12.202,12.2193,12.2109,12.2601,12.3408,12.3387,12.3779,12.4409,12.4811,12.4789,12.4775,12.6189,12.6808,12.7301,12.7988,12.8285,12.8302,12.8405,12.8486,12.8503,12.8612,12.8612,12.8416,12.7909,12.7792,12.7605,12.6994,12.6699,12.6516,12.6481,12.6481,12.6481,12.6481,12.5312,12.3789,12.1992,0.0,0.0,0.0,12.0898,0.0,0.0,0.0,0.0,0.0,0.0,0.0,11.9414,11.9414,0.0,12.1914,12.3593,12.5,12.6015,12.8984,13.1093,13.25,13.3398,13.3789,13.3789,13.3789,13.3789,13.3789,13.3789,13.3789,13.3789,13.3789,13.3789,13.3789,13.3789,13.3789,13.3789,11.4324,11.4324,0.0,0.0,11.5093,0.0,11.5822,11.6707,11.7403,11.7401,11.7508,11.7606,11.7606,11.7606,11.7595,11.7703,0.0,0.0,0.0,11.7606,11.7489,11.7412,11.7401,0.0,11.7094,11.7094,11.7094,11.7094,11.7269,11.7406,11.7406,11.8413,11.9392,12.0208,12.0208,12.0596,12.1529,12.1402,12.1774,12.2523,12.2273,12.2081,12.1875,12.1904,12.2309,12.2908,12.2985,12.3485,12.4216,12.4216,12.4311,12.4595,12.5404,12.5726,12.59,12.6177,12.6998,12.7811,12.7872,12.8097,12.8202,12.83,12.8289,12.8393,12.8495,12.8495,12.8495,12.8495,12.8495,12.851,12.8494,12.7802,12.7314,12.7391,12.7397,12.7397,12.7397,12.6594,12.539,0.0,0.0,0.0,0.0,12.2812,12.3906,0.0,0.0,0.0,0.0,0.0,12.1093,12.3398,12.3515,12.3515,12.3515,12.5195,12.6093,12.6406,12.9687,13.1718,13.2617,13.3398,13.3789,13.3789,13.3789,13.3789,13.3789,13.3789,13.3789,13.3789,13.3789,13.3789,13.3789,13.3789,13.3789,13.3789,0.0,0.0,11.5907,11.5907,11.6215,11.649,11.65,11.6697,11.7015,11.7094,11.7084,11.723,11.723,11.723,11.7225,11.7213,11.738,11.7424,11.7308,11.723,11.723,11.7114,11.7095,11.7001,11.689,11.6902,11.6904,11.6904,11.76,11.8024,11.8022,11.8909,11.9794,12.0716,12.0716,12.1219,12.1997,12.1886,12.2004,12.2198,12.1998,12.1909,12.1904,12.2424,12.2678,12.2985,12.3601,12.4409,12.5101,12.5101,12.5611,12.6188,12.638,12.6514,12.6574,12.6797,12.7187,12.7491,12.7586,12.7811,12.7911,12.8019,12.8182,12.8279,12.8318,12.8318,12.8318,12.8318,12.8318,12.8279,12.8297,12.8105,12.8003,12.8104,12.8093,12.8198,12.8198,12.6915,12.5784,0.0,12.5388,12.5195,12.4804,12.6406,12.7383,0.0,0.0,0.0,12.7304,12.5508,12.4218,12.3515,12.3515,12.3515,12.3515,12.5195,12.7304,13.0,13.1484,13.2617,13.3515,13.3711,13.3789,13.3789,13.3789,13.3789,13.3789,13.3789,13.3789,13.3789,13.3789,13.3789,13.3789,13.3789,13.3789,13.3789,11.7799,11.7106,11.6484,11.6484,11.6599,11.6599,11.6599,11.6676,11.6804,11.6902,11.6903,11.6903,11.7019,11.6903,11.6903,11.6903,11.7019,11.7096,11.7019,11.7019,11.6903,11.6903,11.6886,11.6792,11.6676,11.6693,11.6697,11.6697,11.763,11.8288,11.8677,11.9607,12.0496,12.1386,12.1386,12.1579,12.2081,12.2003,12.2001,12.1995,12.1788,12.2008,12.2309,12.2678,12.3408,12.4101,12.4486,12.5293,12.5986,12.5986,12.6294,12.6678,12.6678,12.6688,12.6822,12.6921,12.6977,12.7183,12.7303,12.7488,12.7689,12.7896,12.8002,12.8011,12.8011,12.8011,12.8011,12.8011,12.8011,12.8011,12.8113,12.8123,12.8105,12.818,12.8297,12.8297,12.8393,12.6896,0.0,12.5887,12.5913,12.6005,12.6015,12.7617,12.8593,12.8593,0.0,0.0,12.8515,12.7695,12.6797,12.5898,12.5781,12.5781,12.5781,12.7109,12.8906,13.1211,13.2109,13.3008,13.3789,13.3789,13.3789,13.3789,13.3789,13.3789,13.3789,13.3789,13.3789,13.3789,13.3789,13.3789,13.3789,13.3789,13.3789,13.3789,11.7837,11.7106,11.6484,11.6484,11.6484,11.6484,11.6484,11.6599,11.6676,11.6676,11.6676,11.6792,11.6792,11.6792,11.6676,11.6676,11.6676,11.6792,11.6792,11.6792,11.6676,11.6676,11.6676,11.6599,11.6484,11.6484,11.6484,11.6484,11.7496,11.8431,11.9202,12.0213,12.1104,12.1914,12.1914,12.1914,12.1914,12.1914,12.1788,12.1777,12.1892,12.2309,12.2908,12.3216,12.4216,12.5409,12.5486,12.6101,12.6678,12.6678,12.6678,12.6678,12.6678,12.6678,12.6678,12.6678,12.6783,12.6966,12.6981,12.7225,12.7377,12.758,12.7682,12.7713,12.7713,12.7713,12.7713,12.7713,12.7713,12.7674,12.7801,12.7791,12.7924,12.7987,12.7801,12.7785,12.8102,0.0,12.5914,12.6091,12.6191,12.6316,12.6403,12.7695,12.8593,12.8593,12.8593,12.8593,0.0,12.8593,12.8593,12.8593,12.8593,12.8711,12.8789,12.9687,13.0508,13.1406,13.2304,13.3086,13.3789,13.3789,13.3789,13.3789,13.3789,13.3789,13.3789,13.3789,13.3789,13.3789,13.3789,13.3789,13.3789,13.3789,13.3789,13.3789,11.7914,11.7106,11.6484,11.6484,11.6484,11.6484,11.6484,11.6484,11.6484,11.6484,11.6484,11.6484,11.6484,11.6484,11.6484,11.6484,11.6484,11.6484,11.6484,11.6484,11.6484,11.6484,11.6484,11.6484,11.6484,11.6484,11.6484,11.6484,11.7369,11.8299,11.9107,11.9992,12.08,12.157,12.157,12.157,12.157,12.157,12.1608,12.1724,12.2417,12.2793,12.3101,12.4486,12.5178,12.5486,12.6178,12.6601,12.6678,12.6678,12.6678,12.6678,12.6678,12.6678,12.6678,12.6678,12.6727,12.6813,12.6837,12.6977,12.7224,12.7225,12.7303,12.738,12.738,12.738,12.738,12.738,12.738,12.7418,12.7418,12.7523,12.7702,12.7696,12.6617,12.6197,12.7702,0.0,12.6094,12.7598,12.7885,12.8017,12.8104,12.8391,12.8593,12.8593,12.8593,12.8593,12.8593,12.8593,12.8593,12.8593,12.8593,12.8984,12.9687,13.0586,13.1406,13.2304,13.3203,13.3711,13.3789,13.3789,13.3789,13.3789,13.3789,13.3789,13.3789,13.3789,13.3789,13.3789,13.3789,13.3789,13.3789,13.3789,13.3789,13.3789,11.7991,11.7106,11.6484,11.6484,11.6484,11.6484,11.6484,11.6484,11.6484,11.6484,11.6484,11.6484,11.6484,11.6484,11.6484,11.6484,11.6484,11.6484,11.6484,11.6484,11.6484,11.6484,11.6484,11.6484,11.6484,11.6484,11.6484,11.6484,11.7407,11.8023,11.8407,11.9715,12.0485,12.0908,12.1408,12.16,12.16,12.16,12.1908,12.2293,12.2716,12.3408,12.4293,12.5101,12.5678,12.6178,12.6601,12.6678,12.6678,12.6678,12.6678,12.6678,12.6678,12.6678,12.6678,12.6678,12.6678,12.6727,12.6783,12.6921,12.701,12.6977,12.7101,12.7104,12.7104,12.7104,12.7104,12.7104,12.7104,12.7104,12.7104,12.7224,12.7303,12.7303,12.6719,0.0,0.0,12.71,12.7014,12.7885,12.8124,12.83,12.8388,12.8491,12.8591,12.8593,12.8593,12.8593,12.8593,12.8593,12.8593,12.8593,12.9101,12.9492,12.9883,13.1211,13.2109,13.25,13.3398,13.3789,13.3789,13.3789,13.3789,13.3789,13.3789,13.3789,13.3789,13.3789,13.3789,13.3789,13.3789,13.3789,13.3789,13.3789,13.3789,13.3789,11.7683,11.6984,11.6484,11.6484,11.6484,11.6484,11.6484,11.6484,11.6484,11.6484,11.6484,11.6484,11.6484,11.6484,11.6484,11.6484,11.6484,11.6484,11.6484,11.6484,11.6484,11.6484,11.6484,11.6484,11.6484,11.6484,11.6484,11.6484,11.7215,11.76,11.7792,11.9292,12.01,12.0292,12.1177,12.16,12.16,12.1793,12.2293,12.2908,12.3293,12.4293,12.5409,12.5601,12.6101,12.6678,12.6678,12.6678,12.6678,12.6678,12.6678,12.6678,12.6678,12.6678,12.6678,12.6678,12.6678,12.6727,12.6822,12.6783,12.683,12.6921,12.6883,12.6883,12.6883,12.6883,12.6883,12.6883,12.6883,12.6883,12.6883,12.6927,12.701,12.702,0.0,0.0,0.0,12.7106,12.7203,12.7704,12.7898,12.8104,12.8302,12.8416,12.85,12.8593,12.8593,12.8593,12.8593,12.8593,12.8711,12.8906,12.9609,13.0,13.0195,13.1718,13.2617,13.2812,13.3515,13.3789,13.3789,13.3789,13.3789,13.3789,13.3789,13.3789,13.3789,13.3789,13.3789,13.3789,13.3789,13.3789,13.3789,13.3789,13.3789,13.3789,11.6792,11.6484,11.6484,11.6484,11.6484,11.6484,11.6484,11.6484,11.6484,11.6484,11.6484,11.6484,11.6484,11.6484,11.6484,11.6484,11.6484,11.6484,11.6484,11.6484,11.6484,11.6484,11.6484,11.6484,11.6484,11.6484,11.6484,11.6484,11.6599,11.6984,11.7792,11.8792,11.96,12.0292,12.1177,12.16,12.1677,12.2485,12.2793,12.3024,12.4601,12.5293,12.5486,12.6294,12.6601,12.6678,12.6678,12.6678,12.6678,12.6678,12.6678,12.6678,12.6678,12.6678,12.6678,12.6678,12.6678,12.6678,12.6678,12.6678,12.6678,12.6727,12.6727,12.6727,12.6727,12.6727,12.6727,12.6727,12.6727,12.6727,12.6727,12.6822,12.6791,12.6837,0.0,0.0,12.6822,12.587,12.56,12.722,12.7674,12.7987,12.8085,12.8289,12.84,12.8515,12.8593,12.8593,12.8593,12.8593,12.8984,12.9804,12.9883,13.0312,13.1093,13.1992,13.289,13.3711,13.3789,13.3789,13.3789,13.3789,13.3789,13.3789,13.3789,13.3789,13.3789,13.3789,13.3789,13.3789,13.3789,13.3789,13.3789,13.3789,13.3789,13.3789,11.6676,11.6484,11.6484,11.6484,11.6484,11.6484,11.6484,11.6484,11.6484,11.6484,11.6484,11.6484,11.6484,11.6484,11.6484,11.6484,11.6484,11.6484,11.6484,11.6484,11.6484,11.6484,11.6484,11.6484,11.6484,11.6484,11.6484,11.6484,11.6484,11.6676,11.6984,11.8407,11.9292,11.96,12.0985,12.1908,12.2408,12.2793,12.3485,12.4486,12.5101,12.5678,12.6178,12.6601,12.6678,12.6678,12.6678,12.6678,12.6678,12.6678,12.6678,12.6678,12.6678,12.6678,12.6678,12.6678,12.6678,12.6678,12.6678,12.6678,12.6678,12.6678,12.6678,12.6678,12.6678,12.6678,12.6678,12.6678,12.6678,12.6678,12.6678,12.6688,12.6736,12.6736,0.0,12.6136,12.6799,12.6388,12.6405,12.7226,12.7523,12.7713,12.8026,12.8105,12.8289,12.84,12.851,12.8593,12.8593,12.9101,12.9609,12.9883,13.0898,13.1718,13.1992,13.289,13.3515,13.3789,13.3789,13.3789,13.3789,13.3789,13.3789,13.3789,13.3789,13.3789,13.3789,13.3789,13.3789,13.3789,13.3789,13.3789,13.3789,13.3789,13.3789,13.3789,11.6599,11.6484,11.6484,11.6484,11.6484,11.6484,11.6484,11.6484,11.6484,11.6484,11.6484,11.6484,11.6484,11.6484,11.6484,11.6484,11.6484,11.6484,11.6484,11.6484,11.6484,11.6484,11.6484,11.6484,11.6484,11.6484,11.6484,11.6484,11.6484,11.6599,11.6907,11.8407,11.9215,11.96,12.1293,12.2293,12.2908,12.3485,12.4293,12.5409,12.5678,12.6178,12.6678,12.6678,12.6678,12.6678,12.6678,12.6678,12.6678,12.6678,12.6678,12.6678,12.6678,12.6678,12.6678,12.6678,12.6678,12.6678,12.6678,12.6678,12.6678,12.6678,12.6678,12.6678,12.6678,12.6678,12.6678,12.6678,12.6678,12.6678,12.6678,12.6678,12.6678,12.6678,12.6678,12.6727,12.6822,12.683,12.6883,12.7104,12.7303,12.7488,12.7713,12.7885,12.8085,12.8289,12.84,12.8589,12.8984,12.9609,13.0195,13.0703,13.1914,13.2617,13.289,13.3515,13.3789,13.3789,13.3789,13.3789,13.3789,13.3789,13.3789,13.3789,13.3789,13.3789,13.3789,13.3789,13.3789,13.3789,13.3789,13.3789,13.3789,13.3789,13.3789,13.3789,11.6484,11.6484,11.6484,11.6484,11.6484,11.6484,11.6484,11.6484,11.6484,11.6484,11.6484,11.6484,11.6484,11.6484,11.6484,11.6484,11.6484,11.6484,11.6484,11.6484,11.6484,11.6484,11.6484,11.6484,11.6484,11.6484,11.6484,11.6484,11.6484,11.6907,11.7792,11.8715,11.9485,12.0408,12.21,12.2908,12.3024,12.4716,12.5409,12.5486,12.6409,12.6678,12.6678,12.6678,12.6678,12.6678,12.6678,12.6678,12.6678,12.6678,12.6678,12.6678,12.6678,12.6678,12.6678,12.6678,12.6678,12.6678,12.6678,12.6678,12.6678,12.6678,12.6678,12.6678,12.6678,12.6678,12.6678,12.6678,12.6678,12.6678,12.6678,12.6678,12.6678,12.6678,12.6678,12.6678,12.6678,12.6775,12.6791,12.6791,12.7101,12.7303,12.7416,12.7713,12.8002,12.8104,12.8289,12.8791,12.9882,12.9883,13.0703,13.2383,13.25,13.289,13.3789,13.3789,13.3789,13.3789,13.3789,13.3789,13.3789,13.3789,13.3789,13.3789,13.3789,13.3789,13.3789,13.3789,13.3789,13.3789,13.3789,13.3789,13.3789,13.3789,13.3789,13.3789,11.6599,11.6484,11.6484,11.6484,11.6484,11.6484,11.6484,11.6484,11.6484,11.6484,11.6484,11.6484,11.6484,11.6484,11.6484,11.6484,11.6484,11.6484,11.6484,11.6484,11.6484,11.6484,11.6484,11.6484,11.6484,11.6484,11.6484,11.6484,11.6484,11.6907,11.7792,11.8715,11.9485,12.0408,12.21,12.3216,12.3793,12.4909,12.5794,12.6294,12.6601,12.6678,12.6678,12.6678,12.6678,12.6678,12.6678,12.6678,12.6678,12.6678,12.6678,12.6678,12.6678,12.6678,12.6678,12.6678,12.6678,12.6678,12.6678,12.6678,12.6678,12.6678,12.6678,12.6678,12.6678,12.6678,12.6678,12.6678,12.6678,12.6678,12.6678,12.6678,12.6678,12.6678,12.6678,12.6678,12.6678,12.6727,12.6698,12.6791,12.6883,12.6981,12.7303,12.7484,12.7811,12.7996,12.8885,12.9806,13.0781,13.1406,13.1992,13.25,13.3086,13.3515,13.3789,13.3789,13.3789,13.3789,13.3789,13.3789,13.3789,13.3789,13.3789,13.3789,13.3789,13.3789,13.3789,13.3789,13.3789,13.3789,13.3789,13.3789,13.3789,13.3789,13.3789,13.3789,11.7606,11.7491,11.7491,11.7491,11.7491,11.7491,11.7491,11.7491,11.7414,11.7106,11.6984,11.6869,11.6484,11.6484,11.6484,11.6484,11.6484,11.6484,11.6484,11.6484,11.6484,11.6484,11.6484,11.6484,11.6484,11.6484,11.6484,11.6484,11.6792,11.7484,11.8292,11.9215,12.0216,12.1408,12.2793,12.3793,12.4716,12.5486,12.6178,12.6678,12.6678,12.6678,12.6678,12.6678,12.6678,12.6678,12.6678,12.6678,12.6678,12.6678,12.6678,12.6678,12.6678,12.6678,12.6678,12.6678,12.6678,12.6678,12.6678,12.6678,12.6678,12.6678,12.6678,12.6678,12.6678,12.6678,12.6678,12.6678,12.6678,12.6678,12.6678,12.6678,12.6678,12.6678,12.6678,12.6678,12.6678,12.6678,12.6727,12.6775,12.6783,12.6883,12.7101,12.7303,12.778,12.8507,12.9596,13.0681,13.1596,13.2187,13.2617,13.3008,13.3515,13.3789,13.3789,13.3789,13.3789,13.3789,13.3789,13.3789,13.3789,13.3789,13.3789,13.3789,13.3789,13.3789,13.3789,13.3789,13.3789,13.3789,13.3789,13.3789,13.3789,13.3789,13.3789,13.3789,11.9113,11.9113,11.9113,11.9113,11.9113,11.9113,11.9113,11.9113,11.8799,11.7991,11.7914,11.7606,11.6792,11.6676,11.6599,11.6599,11.6484,11.6484,11.6484,11.6484,11.6484,11.6484,11.6484,11.6484,11.6599,11.6599,11.6599,11.6599,11.7484,11.8407,11.9215,11.9985,12.1293,12.2908,12.3793,12.4716,12.5486,12.6294,12.6678,12.6678,12.6678,12.6678,12.6678,12.6678,12.6678,12.6678,12.6678,12.6678,12.6678,12.6678,12.6678,12.6678,12.6678,12.6678,12.6678,12.6678,12.6678,12.6678,12.6678,12.6678,12.6678,12.6678,12.6678,12.6678,12.6678,12.6678,12.6678,12.6678,12.6678,12.6678,12.6678,12.6678,12.6678,12.6678,12.6678,12.6678,12.6678,12.6678,12.6678,12.6678,12.6775,12.6791,12.6907,12.7297,12.8104,12.9402,13.048,13.15,13.2513,13.2497,13.289,13.3789,13.3789,13.3789,13.3789,13.3789,13.3789,13.3789,13.3789,13.3789,13.3789,13.3789,13.3789,13.3789,13.3789,13.3789,13.3789,13.3789,13.3789,13.3789,13.3789,13.3789,13.3789,13.3789,13.3789,13.3789,11.9169,11.9092,11.9092,11.9092,11.9092,11.9092,11.9092,11.9092,11.8977,11.8785,11.8799,11.8728,11.8613,11.7914,11.7491,11.7491,11.6869,11.6484,11.6484,11.6484,11.6484,11.6484,11.6484,11.6792,11.7477,11.7523,11.7484,11.7484,11.8407,11.9215,12.01,12.0908,12.1908,12.2985,12.4486,12.5216,12.5486,12.6294,12.6678,12.6678,12.6678,12.6678,12.6678,12.6678,12.6678,12.6678,12.6678,12.6678,12.6678,12.6678,12.6678,12.6678,12.6678,12.6678,12.6678,12.6678,12.6678,12.6678,12.6678,12.6678,12.6678,12.6678,12.6678,12.6678,12.6678,12.6678,12.6678,12.6678,12.6678,12.6678,12.6678,12.6678,12.6678,12.6678,12.6678,12.6678,12.6678,12.6678,12.6678,12.6678,12.6727,12.7006,12.7716,12.8811,12.9985,13.1192,13.169,13.2386,13.3405,13.339,13.3515,13.3789,13.3789,13.3789,13.3789,13.3789,13.3789,13.3789,13.3789,13.3789,13.3789,13.3789,13.3789,13.3789,13.3789,13.3789,13.3789,13.3789,13.3789,13.3789,13.3789,13.3789,13.3789,13.3789,13.3789,13.3711,12.04,12.0284,12.0284,12.0284,12.0284,12.0284,12.0284,12.0284,12.0092,11.9708,11.9715,11.953,11.91,11.8715,11.8292,11.7799,11.7414,11.6869,11.6484,11.6484,11.6676,11.7106,11.7106,11.7484,11.8407,11.8792,11.8792,11.8407,11.9292,12.01,12.0908,12.1793,12.2908,12.4101,12.4986,12.5601,12.6101,12.6486,12.6678,12.6678,12.6678,12.6678,12.6678,12.6678,12.6678,12.6678,12.6678,12.6678,12.6678,12.6678,12.6678,12.6678,12.6678,12.6678,12.6678,12.6678,12.6678,12.6678,12.6678,12.6678,12.6678,12.6678,12.6678,12.6678,12.6678,12.6678,12.6678,12.6678,12.6678,12.6678,12.6678,12.6986,12.7294,12.7294,12.7602,12.7909,12.7909,12.7909,12.7909,12.7909,12.7909,12.8112,12.8718,12.9811,13.0782,13.1618,13.2317,13.2897,13.3596,13.3685,13.3708,13.3789,13.3789,13.3789,13.3789,13.3789,13.3789,13.3789,13.3789,13.3789,13.3789,13.3789,13.3789,13.3789,13.3789,13.3789,13.3789,13.3789,13.3789,13.3789,13.3789,13.3789,13.3789,13.3789,13.3789,13.3711,12.16,12.16,12.16,12.16,12.16,12.16,12.16,12.16,12.1293,12.0639,12.0477,12.0284,11.9592,11.94,11.8977,11.8061,11.7991,11.7683,11.6984,11.6869,11.7298,11.7991,11.7991,11.8369,11.9292,12.01,12.0177,11.9485,12.0292,12.1177,12.1985,12.2908,12.4101,12.5409,12.5601,12.5986,12.6678,12.6678,12.6678,12.6678,12.6678,12.6678,12.6678,12.6678,12.6678,12.6678,12.6678,12.6678,12.6678,12.6678,12.6678,12.6678,12.6678,12.6678,12.6678,12.6678,12.6678,12.6678,12.6678,12.6678,12.6678,12.6678,12.6678,12.6678,12.6678,12.6678,12.6678,12.6678,12.6678,12.6678,12.6909,12.7486,12.7909,12.8102,12.8717,12.9217,12.9217,12.9217,12.9217,12.9217,12.9294,12.9498,12.9604,13.0605,13.1286,13.1593,13.2494,13.3204,13.3503,13.3609,13.3699,13.3711,13.3789,13.3789,13.3789,13.3789,13.3789,13.3789,13.3789,13.3789,13.3789,13.3789,13.3789,13.3789,13.3789,13.3789,13.3789,13.3789,13.3789,13.3789,13.3789,13.3789,13.3789,13.3789,13.3711,13.3515,12.16,12.16,12.16,12.16,12.16,12.16,12.16,12.16,12.16,12.1408,12.1408,12.1408,12.1293,12.0639,11.9784,11.9015,11.8915,11.8921,11.8805,11.8728,11.8805,11.8921,11.8908,11.9285,12.0092,12.0985,12.1408,12.1293,12.21,12.2985,12.3793,12.4716,12.5216,12.5409,12.6178,12.6601,12.6678,12.6678,12.6678,12.6678,12.6678,12.6678,12.6678,12.6678,12.6678,12.6678,12.6678,12.6678,12.6678,12.6678,12.6678,12.6678,12.6678,12.6678,12.6678,12.6678,12.6678,12.6678,12.6678,12.6678,12.6678,12.6678,12.6678,12.6678,12.6678,12.6678,12.6678,12.6678,12.6678,12.6909,12.7602,12.7794,12.8102,12.8909,12.9102,12.9217,12.9217,12.9217,12.9217,12.9217,12.991,13.0383,13.0413,13.1415,13.2175,13.2484,13.2921,13.3182,13.3479,13.3596,13.3718,13.3711,13.3789,13.3789,13.3789,13.3789,13.3789,13.3789,13.3789,13.3789,13.3789,13.3789,13.3789,13.3789,13.3789,13.3789,13.3789,13.3789,13.3789,13.3789,13.3789,13.3789,13.3789,13.3789,13.3281,13.2617,12.1677,12.16,12.16,12.16,12.16,12.16,12.16,12.16,12.16,12.16,12.16,12.16,12.16,12.1293,12.0716,11.9784,11.9792,11.96,11.91,11.91,11.9292,11.9792,11.9784,12.0207,12.1023,12.1908,12.2524,12.3024,12.3408,12.3985,12.4793,12.5216,12.5678,12.6101,12.6486,12.6678,12.6678,12.6678,12.6678,12.6678,12.6678,12.6678,12.6678,12.6678,12.6678,12.6678,12.6678,12.6678,12.6678,12.6678,12.6678,12.6678,12.6678,12.6678,12.6678,12.6678,12.6678,12.6678,12.6678,12.6678,12.6678,12.6678,12.6678,12.6678,12.6678,12.6986,12.7409,12.7409,12.7409,12.7602,12.8486,12.8986,12.9487,12.991,13.0294,13.0602,13.0602,13.0602,13.0602,13.0602,13.091,13.1229,13.1202,13.1693,13.2077,13.2411,13.2706,13.3017,13.3286,13.3488,13.36,13.3703,13.3709,13.3789,13.3789,13.3789,13.3789,13.3789,13.3789,13.3789,13.3789,13.3789,13.3789,13.3789,13.3789,13.3789,13.3789,13.3789,13.3789,13.3789,13.3789,13.3789,13.3711,13.3281,13.2812,13.2304]},{"header":{"parameterUnit":"m.s-1","parameterCategory":1,"la1":30.6,"la2":28.766,"lo1":-90.7593,"lo2":-88.6598,"dx":0.0162,"dy":0.0183,"nx":116,"ny":114,"refTime":"2022-12-21T06:00:00:Z","depth":0,"parameterNumber":3,"parameterNumberName":"V-component_of_WINDS"},"data":[0.0,0.0,0.0,0.0,0.0,0.0,0.0,0.0,0.0,0.0,0.0,0.0,0.0,0.0,0.0,0.0,0.0,0.0,0.0,0.0,0.0,0.0,0.0,0.0,0.0,0.0,0.0,0.0,0.0,0.0,0.0,0.0,0.0,0.0,0.0,0.0,0.0,0.0,0.0,0.0,0.0,0.0,0.0,0.0,0.0,0.0,0.0,0.0,0.0,0.0,0.0,0.0,0.0,0.0,0.0,0.0,0.0,0.0,0.0,0.0,0.0,0.0,0.0,0.0,0.0,0.0,0.0,0.0,0.0,0.0,0.0,0.0,0.0,0.0,0.0,0.0,0.0,0.0,0.0,0.0,0.0,0.0,0.0,0.0,0.0,0.0,0.0,0.0,0.0,0.0,0.0,0.0,0.0,0.0,0.0,0.0,0.0,0.0,0.0,0.0,0.0,0.0,0.0,0.0,0.0,0.0,0.0,0.0,0.0,0.0,0.0,0.0,0.0,0.0,0.0,0.0,0.0,0.0,0.0,0.0,0.0,0.0,0.0,0.0,0.0,0.0,0.0,0.0,0.0,0.0,0.0,0.0,0.0,0.0,0.0,0.0,0.0,0.0,0.0,0.0,0.0,0.0,0.0,0.0,0.0,0.0,0.0,0.0,0.0,0.0,0.0,0.0,0.0,0.0,0.0,0.0,0.0,0.0,0.0,0.0,0.0,0.0,0.0,0.0,0.0,0.0,0.0,0.0,0.0,0.0,0.0,0.0,0.0,0.0,0.0,0.0,0.0,0.0,0.0,0.0,0.0,0.0,0.0,0.0,0.0,0.0,0.0,0.0,0.0,0.0,0.0,0.0,0.0,0.0,0.0,0.0,0.0,0.0,0.0,0.0,0.0,0.0,0.0,0.0,0.0,0.0,0.0,0.0,0.0,0.0,0.0,0.0,0.0,0.0,0.0,0.0,0.0,0.0,0.0,0.0,0.0,0.0,0.0,0.0,0.0,0.0,0.0,0.0,0.0,0.0,0.0,0.0,0.0,0.0,0.0,0.0,0.0,0.0,0.0,0.0,0.0,0.0,0.0,0.0,0.0,0.0,0.0,0.0,0.0,0.0,0.0,0.0,0.0,0.0,0.0,0.0,0.0,0.0,0.0,0.0,0.0,0.0,0.0,0.0,0.0,0.0,0.0,0.0,0.0,0.0,0.0,0.0,0.0,0.0,0.0,0.0,0.0,0.0,0.0,0.0,0.0,0.0,0.0,0.0,0.0,0.0,0.0,0.0,0.0,0.0,0.0,0.0,0.0,0.0,0.0,0.0,0.0,0.0,0.0,0.0,0.0,0.0,0.0,0.0,0.0,0.0,0.0,0.0,0.0,0.0,0.0,0.0,0.0,0.0,0.0,0.0,0.0,0.0,0.0,0.0,0.0,0.0,0.0,0.0,0.0,0.0,0.0,0.0,0.0,0.0,0.0,0.0,0.0,0.0,0.0,0.0,0.0,0.0,0.0,0.0,0.0,0.0,0.0,0.0,0.0,0.0,0.0,0.0,0.0,0.0,0.0,0.0,0.0,0.0,0.0,0.0,0.0,0.0,0.0,0.0,0.0,0.0,0.0,0.0,0.0,0.0,0.0,0.0,0.0,0.0,0.0,0.0,0.0,0.0,0.0,0.0,0.0,0.0,0.0,0.0,0.0,0.0,0.0,0.0,0.0,0.0,0.0,0.0,0.0,0.0,0.0,0.0,0.0,0.0,0.0,0.0,0.0,0.0,0.0,0.0,0.0,0.0,0.0,0.0,0.0,0.0,0.0,0.0,0.0,0.0,0.0,0.0,0.0,0.0,0.0,0.0,0.0,0.0,0.0,0.0,0.0,0.0,0.0,0.0,0.0,0.0,0.0,0.0,0.0,0.0,0.0,0.0,0.0,0.0,0.0,0.0,0.0,0.0,0.0,0.0,0.0,0.0,0.0,0.0,0.0,0.0,0.0,0.0,0.0,0.0,0.0,0.0,0.0,0.0,0.0,0.0,0.0,0.0,0.0,0.0,0.0,0.0,0.0,0.0,0.0,0.0,0.0,0.0,0.0,0.0,0.0,0.0,0.0,0.0,0.0,0.0,0.0,0.0,0.0,0.0,0.0,0.0,0.0,0.0,0.0,0.0,0.0,0.0,0.0,0.0,0.0,0.0,0.0,0.0,0.0,0.0,0.0,0.0,0.0,0.0,0.0,0.0,0.0,0.0,0.0,0.0,0.0,0.0,0.0,0.0,0.0,0.0,0.0,0.0,0.0,0.0,0.0,0.0,0.0,0.0,0.0,0.0,0.0,0.0,0.0,0.0,0.0,0.0,0.0,0.0,0.0,0.0,0.0,0.0,0.0,0.0,0.0,0.0,0.0,0.0,0.0,0.0,0.0,0.0,0.0,0.0,0.0,0.0,0.0,0.0,0.0,0.0,0.0,0.0,0.0,0.0,0.0,0.0,0.0,0.0,0.0,0.0,0.0,0.0,0.0,0.0,0.0,0.0,0.0,0.0,0.0,0.0,0.0,0.0,0.0,0.0,0.0,0.0,0.0,0.0,0.0,0.0,0.0,0.0,0.0,0.0,0.0,0.0,0.0,0.0,0.0,0.0,0.0,0.0,0.0,0.0,0.0,0.0,0.0,0.0,0.0,0.0,0.0,0.0,0.0,0.0,0.0,0.0,0.0,0.0,0.0,0.0,0.0,0.0,0.0,0.0,0.0,0.0,0.0,0.0,0.0,0.0,0.0,0.0,0.0,0.0,0.0,0.0,0.0,0.0,0.0,0.0,0.0,0.0,0.0,0.0,0.0,0.0,0.0,0.0,0.0,0.0,0.0,0.0,0.0,0.0,0.0,0.0,0.0,0.0,0.0,0.0,0.0,0.0,0.0,0.0,0.0,0.0,0.0,0.0,0.0,0.0,0.0,0.0,0.0,0.0,0.0,0.0,0.0,0.0,0.0,0.0,0.0,0.0,0.0,0.0,0.0,0.0,0.0,0.0,0.0,0.0,0.0,0.0,0.0,0.0,0.0,0.0,0.0,0.0,0.0,0.0,0.0,0.0,0.0,0.0,0.0,0.0,0.0,0.0,0.0,0.0,0.0,0.0,0.0,0.0,0.0,0.0,0.0,0.0,0.0,0.0,0.0,0.0,0.0,0.0,0.0,0.0,0.0,0.0,0.0,0.0,0.0,0.0,0.0,0.0,0.0,0.0,0.0,0.0,0.0,0.0,0.0,0.0,0.0,0.0,0.0,0.0,0.0,0.0,0.0,0.0,0.0,0.0,0.0,0.0,0.0,0.0,0.0,0.0,0.0,0.0,0.0,0.0,0.0,0.0,0.0,0.0,0.0,0.0,0.0,0.0,0.0,0.0,0.0,0.0,0.0,0.0,0.0,0.0,0.0,0.0,0.0,0.0,0.0,0.0,0.0,0.0,0.0,0.0,0.0,0.0,0.0,0.0,0.0,0.0,0.0,0.0,0.0,0.0,0.0,0.0,0.0,0.0,0.0,0.0,0.0,0.0,0.0,0.0,0.0,0.0,0.0,0.0,0.0,0.0,0.0,0.0,0.0,0.0,0.0,0.0,0.0,0.0,0.0,0.0,0.0,0.0,0.0,0.0,0.0,0.0,0.0,0.0,0.0,0.0,0.0,0.0,0.0,0.0,0.0,0.0,0.0,0.0,0.0,0.0,0.0,0.0,0.0,0.0,0.0,0.0,0.0,0.0,0.0,0.0,0.0,0.0,0.0,0.0,0.0,0.0,0.0,0.0,0.0,0.0,0.0,0.0,0.0,0.0,0.0,0.0,0.0,0.0,0.0,0.0,0.0,0.0,0.0,0.0,0.0,0.0,0.0,0.0,0.0,0.0,0.0,0.0,0.0,0.0,0.0,0.0,0.0,0.0,0.0,0.0,0.0,0.0,0.0,0.0,0.0,0.0,0.0,0.0,0.0,0.0,0.0,0.0,0.0,0.0,0.0,0.0,0.0,0.0,0.0,0.0,0.0,0.0,0.0,0.0,0.0,0.0,0.0,0.0,0.0,0.0,0.0,0.0,0.0,0.0,0.0,0.0,0.0,0.0,0.0,0.0,0.0,0.0,0.0,0.0,0.0,0.0,0.0,0.0,0.0,0.0,0.0,0.0,0.0,0.0,0.0,0.0,0.0,0.0,0.0,0.0,0.0,0.0,0.0,0.0,0.0,0.0,0.0,0.0,0.0,0.0,0.0,0.0,0.0,0.0,0.0,0.0,0.0,0.0,0.0,0.0,0.0,0.0,0.0,0.0,0.0,0.0,0.0,0.0,0.0,0.0,0.0,0.0,0.0,0.0,0.0,0.0,0.0,0.0,0.0,0.0,0.0,0.0,0.0,0.0,0.0,0.0,0.0,0.0,0.0,0.0,0.0,0.0,0.0,0.0,0.0,0.0,0.0,0.0,0.0,0.0,0.0,0.0,0.0,0.0,0.0,0.0,0.0,0.0,0.0,0.0,0.0,0.0,0.0,0.0,0.0,0.0,0.0,0.0,0.0,0.0,0.0,0.0,0.0,0.0,0.0,0.0,0.0,0.0,0.0,0.0,0.0,0.0,0.0,0.0,0.0,0.0,0.0,0.0,0.0,0.0,0.0,0.0,0.0,0.0,0.0,0.0,0.0,0.0,0.0,0.0,0.0,0.0,0.0,0.0,0.0,0.0,0.0,0.0,0.0,0.0,0.0,0.0,0.0,0.0,0.0,0.0,0.0,0.0,0.0,0.0,0.0,0.0,0.0,0.0,0.0,0.0,0.0,0.0,0.0,0.0,0.0,0.0,0.0,0.0,0.0,0.0,0.0,0.0,0.0,0.0,0.0,0.0,0.0,0.0,0.0,0.0,0.0,0.0,0.0,0.0,0.0,0.0,0.0,0.0,0.0,0.0,0.0,0.0,0.0,0.0,0.0,0.0,0.0,0.0,0.0,0.0,0.0,0.0,0.0,0.0,0.0,0.0,0.0,0.0,0.0,0.0,0.0,0.0,0.0,0.0,0.0,0.0,0.0,0.0,0.0,0.0,0.0,0.0,0.0,0.0,0.0,0.0,0.0,0.0,0.0,0.0,0.0,0.0,0.0,0.0,0.0,0.0,0.0,0.0,0.0,0.0,0.0,0.0,0.0,0.0,0.0,0.0,0.0,0.0,0.0,0.0,0.0,0.0,0.0,0.0,0.0,0.0,0.0,0.0,0.0,0.0,0.0,0.0,0.0,0.0,0.0,0.0,0.0,0.0,0.0,0.0,0.0,0.0,0.0,0.0,0.0,0.0,0.0,0.0,0.0,0.0,0.0,0.0,0.0,0.0,0.0,0.0,0.0,0.0,0.0,0.0,0.0,0.0,0.0,0.0,0.0,0.0,0.0,0.0,0.0,0.0,0.0,0.0,0.0,0.0,0.0,0.0,0.0,0.0,0.0,0.0,0.0,0.0,0.0,0.0,0.0,0.0,0.0,0.0,0.0,0.0,0.0,0.0,0.0,0.0,0.0,0.0,0.0,0.0,0.0,0.0,0.0,0.0,0.0,0.0,0.0,0.0,0.0,0.0,0.0,0.0,0.0,0.0,0.0,0.0,0.0,0.0,0.0,0.0,0.0,0.0,0.0,0.0,0.0,0.0,0.0,0.0,0.0,0.0,0.0,0.0,0.0,0.0,0.0,0.0,0.0,0.0,0.0,0.0,0.0,0.0,0.0,0.0,0.0,0.0,0.0,0.0,0.0,0.0,0.0,0.0,0.0,0.0,0.0,0.0,0.0,0.0,0.0,0.0,0.0,0.0,0.0,0.0,0.0,0.0,0.0,0.0,0.0,0.0,0.0,0.0,0.0,0.0,0.0,0.0,0.0,0.0,0.0,0.0,0.0,0.0,0.0,0.0,0.0,0.0,0.0,0.0,0.0,0.0,0.0,0.0,0.0,0.0,0.0,0.0,0.0,0.0,0.0,0.0,0.0,0.0,0.0,0.0,0.0,0.0,0.0,0.0,0.0,0.0,0.0,0.0,0.0,0.0,0.0,0.0,0.0,0.0,0.0,0.0,0.0,0.0,0.0,0.0,0.0,0.0,0.0,0.0,0.0,0.0,-1.2149,0.0,0.0,0.0,0.0,0.0,0.0,0.0,0.0,0.0,0.0,0.0,0.0,0.0,0.0,0.0,0.0,0.0,0.0,0.0,0.0,0.0,0.0,0.0,0.0,-0.6131,-0.6097,-0.5852,-0.5829,0.0,0.0,0.0,0.0,0.0,0.0,0.0,0.0,0.0,-0.3667,-0.2717,-0.2328,-0.1528,-0.0352,-0.0111,0.0,0.0,0.0,0.0,0.0,0.0,0.0,0.0,0.0,0.0,0.0,0.0,0.0,0.0,0.0,0.0,0.0,0.0,0.0,0.0,0.0,0.0,0.0,0.0,0.0,0.0,0.0,0.0,0.0,0.0,0.0,0.0,0.0,0.0,0.0,0.0,0.0,0.0,0.0,0.0,0.0,0.0,0.0,0.0,0.0,0.0,0.0,0.0,0.0,0.0,0.0,0.0,0.0,0.0,0.0,0.0,0.0,0.0,0.0,0.0,0.0,0.0,0.0,0.0,0.0,0.0,0.0,0.0,0.0,0.0,0.0,0.0,0.0,-1.2474,0.0,0.0,0.0,0.0,0.0,0.0,0.0,0.0,0.0,0.0,0.0,0.0,0.0,0.0,0.0,0.0,0.0,0.0,0.0,0.0,0.0,-0.6364,-0.6066,-0.6108,-0.6033,-0.5548,-0.5485,-0.5496,-0.5411,-0.5411,0.0,0.0,0.0,0.0,0.0,-0.4182,-0.3641,-0.2727,-0.2161,-0.1242,0.0,0.0,0.0,0.0,0.0,0.0,0.0,0.0,0.0,0.0,0.0,0.0,0.0,0.0,0.0,0.0,0.0,0.0,0.0,0.0,0.0,0.0,0.0,0.0,0.0,0.0,0.0,0.0,0.0,0.0,0.0,0.0,0.0,0.0,0.0,0.0,0.0,0.0,0.0,0.0,0.0,0.0,0.0,0.0,0.0,0.0,0.0,0.0,0.0,0.0,0.0,0.0,0.0,0.0,0.0,0.0,0.0,0.0,0.0,0.0,0.0,0.0,0.0,0.0,0.0,0.0,0.0,0.0,0.0,0.0,-1.438,-1.438,-1.4597,-1.4923,-1.4055,-1.3715,-1.3729,0.0,0.0,0.0,0.0,0.0,0.0,0.0,0.0,0.0,0.0,0.0,0.0,0.0,0.0,0.0,0.0,0.0,0.0,0.0,0.0,-0.6222,-0.5911,-0.5785,-0.5547,-0.5099,-0.5005,-0.4869,-0.4686,-0.4686,0.0,0.0,0.0,0.0,-0.4264,-0.3885,-0.3439,-0.293,-0.1698,-0.0709,0.0,0.0,0.0,0.0,0.0,0.0,0.0,0.0,0.0,0.0,0.0,0.0,0.0,0.0,0.0,0.0,0.0,0.0,0.0,0.0,0.0,0.0,0.0,0.0,0.0,0.0,0.0,0.0,0.0,0.0,0.0,0.0,0.0,0.0,0.0,0.0,0.0,0.0,0.0,0.0,0.0,0.0,0.0,0.0,0.0,0.0,0.0,0.0,-1.1145,-1.1206,0.0,0.0,0.0,0.0,0.0,0.0,0.0,0.0,0.0,0.0,0.0,0.0,0.0,0.0,-1.4333,-1.4719,-1.4936,-1.4984,-1.5248,-1.5459,-1.5622,-1.5622,-1.5723,-1.59,-1.5757,0.0,-1.4387,-1.4265,0.0,0.0,0.0,0.0,0.0,0.0,0.0,0.0,0.0,0.0,0.0,0.0,0.0,0.0,0.0,0.0,0.0,0.0,0.0,0.0,0.0,-0.537,-0.5083,-0.4474,-0.4323,-0.415,-0.3927,-0.3917,0.0,0.0,0.0,-0.3924,-0.365,-0.3616,-0.3472,-0.3289,-0.2035,-0.0918,0.0,0.0,0.0,0.0,0.0,0.0,0.0,0.0,0.0,0.0,0.0,0.0,0.0,0.0,0.0,0.0,0.0,0.0,0.0,0.0,0.0,0.0,0.0,0.0,0.0,0.0,0.0,0.0,0.0,0.0,0.0,0.0,0.0,0.0,0.0,0.0,0.0,0.0,0.0,0.0,0.0,0.0,0.0,0.0,0.0,0.0,0.0,-1.0975,-1.1518,-1.1518,-1.1667,-1.164,0.0,0.0,0.0,0.0,0.0,0.0,0.0,0.0,0.0,-1.4231,-1.4401,-1.4733,-1.5262,-1.5547,-1.573,-1.5818,-1.5954,-1.609,-1.6232,-1.6232,-1.6266,-1.6327,-1.6327,-1.6069,-1.5601,-1.5099,-1.4611,-1.417,0.0,0.0,0.0,0.0,0.0,0.0,0.0,0.0,0.0,0.0,0.0,0.0,0.0,0.0,0.0,0.0,0.0,0.0,-0.5303,-0.497,-0.4568,-0.3972,-0.3771,-0.3544,-0.3375,-0.3253,-0.3308,-0.3498,-0.335,-0.3301,-0.3008,-0.3111,-0.3075,-0.3145,-0.238,-0.1307,0.0,0.0,0.0,0.0,0.0,0.0,0.0,0.0,0.0,0.0,0.0,0.0,0.0,0.0,0.0,0.0,0.0,0.0,0.0,0.0,0.0,0.0,0.0,0.0,0.0,0.0,0.0,0.0,0.0,0.0,0.0,0.0,0.0,0.0,0.0,0.0,0.0,0.0,0.0,0.0,0.0,0.0,0.0,0.0,0.0,0.0,0.0,-1.1538,-1.202,-1.202,-1.2311,-1.2372,0.0,0.0,0.0,0.0,0.0,0.0,-1.3899,-1.3987,-1.4353,-1.5059,-1.5235,-1.554,-1.6022,-1.6178,-1.6327,-1.6483,-1.6483,-1.6558,-1.6693,-1.6693,-1.6714,-1.654,-1.654,-1.6313,-1.622,-1.5656,-1.5207,-1.4986,-1.4758,0.0,0.0,0.0,-1.5052,-1.5147,0.0,0.0,0.0,0.0,0.0,0.0,0.0,0.0,0.0,0.0,0.0,-0.5525,-0.4536,-0.4438,-0.4189,-0.3633,-0.3565,-0.3278,-0.2889,-0.2639,-0.2584,-0.2576,-0.2653,-0.27,-0.2584,-0.2166,-0.1968,-0.2146,-0.2385,-0.1575,0.0,0.0,0.0,0.0,0.0,0.0,0.0,0.0,0.0,0.0,0.0,0.0,0.0,0.0,0.0,0.0,0.0,0.0,0.0,0.0,0.0,0.0,0.0,0.0,0.0,0.0,0.0,0.0,0.0,0.0,0.0,0.0,0.0,0.0,0.0,0.0,0.0,0.0,0.0,0.0,0.0,0.0,0.0,0.0,0.0,0.0,0.0,0.0,0.0,-1.3091,-1.3485,0.0,0.0,0.0,0.0,-1.396,-1.4007,-1.4401,-1.5262,-1.5181,-1.5384,-1.5995,-1.6164,-1.632,-1.6483,-1.6639,-1.6795,-1.6944,-1.6944,-1.7019,-1.7161,-1.7161,-1.7023,-1.6505,-1.6505,-1.5999,-1.5423,-1.5628,-1.5409,-1.5028,-1.5015,-1.4764,-1.4455,-1.5442,-1.5893,-1.6076,0.0,0.0,0.0,-0.5168,-0.5623,-0.6013,-0.6224,-0.6434,-0.6392,-0.6018,-0.567,-0.5146,-0.4515,-0.3904,-0.3486,-0.3045,-0.2428,-0.2006,-0.1806,-0.1758,-0.1575,-0.1522,-0.1507,-0.1699,-0.2143,-0.1993,-0.1479,-0.0706,-0.0898,-0.0547,0.0,0.0,0.0,0.0,0.0,0.0,0.0,0.0,0.0,0.0,0.0,0.0,0.0,0.0,0.0,0.0,0.0,0.0,0.0,0.0,0.0,0.0,0.0,0.0,0.0,0.0,0.0,0.0,0.0,0.0,0.0,0.0,0.0,0.0,0.0,0.0,0.0,0.0,0.0,0.0,0.0,0.0,0.0,0.0,0.0,0.0,0.0,0.0,0.0,-1.3464,-1.3865,0.0,-1.3926,-1.4177,-1.4468,-1.4767,-1.5052,-1.5445,-1.5961,-1.6022,-1.6191,-1.6503,-1.6748,-1.6694,-1.6328,-1.6465,-1.635,-1.6194,-1.6283,-1.6347,-1.6398,-1.6487,-1.6113,-1.5503,-1.5503,-1.526,-1.4557,-1.3771,-1.4097,-1.514,-1.4813,-1.4765,-1.5078,-1.5522,-1.5641,-1.5704,0.0,-0.3686,0.0,-0.5085,-0.558,-0.5928,-0.614,-0.6379,-0.6327,-0.5884,-0.5272,-0.4798,-0.4383,-0.3696,-0.3057,-0.2687,-0.2005,-0.139,-0.0889,-0.0724,-0.0701,-0.0536,-0.054,-0.0863,-0.1292,-0.1334,-0.0873,0.0,0.0,0.0,0.0,0.0,0.0,0.0,0.0,0.0,0.0,0.0,0.0,0.0,0.0,0.0,0.0,0.0,0.0,0.0,0.0,0.0,0.0,0.0,0.0,0.0,0.0,0.0,0.0,0.0,0.0,0.0,0.0,0.0,0.0,0.0,0.0,0.0,0.0,0.0,0.0,0.0,0.0,0.0,0.0,0.0,0.0,0.0,0.0,0.0,0.0,0.0,-1.3912,-1.3858,-1.4428,-1.4767,-1.4618,-1.5004,-1.535,-1.5547,-1.5934,-1.6266,-1.6524,-1.6673,-1.6607,-1.6551,-1.6789,-1.6726,-1.6124,-1.6045,-1.5918,-1.5533,-1.5383,-1.5202,-1.4975,-1.506,-1.4652,-1.3975,-1.3975,-1.3532,-1.2634,-1.1701,-1.1979,-1.3243,-1.3506,-1.3928,-1.4344,-1.4902,-1.5196,-1.5243,0.0,-0.3452,-0.4311,-0.4924,-0.5507,-0.5966,-0.6274,-0.6103,-0.5903,-0.567,-0.4886,-0.4319,-0.3959,-0.3435,-0.2987,-0.2359,-0.2412,-0.1742,-0.0147,0.0,0.0,0.0,0.0,0.0,0.0,0.0,0.0,0.0,0.0,0.0,0.0,0.0,0.0,0.0,0.0,0.0,0.0,0.0,0.0,0.0,0.0,0.0,0.0,0.0,0.0,0.0,0.0,0.0,0.0,0.0,0.0,0.0,0.0,0.0,0.0,0.0,0.0,0.0,0.0,0.0,0.0,0.0,0.0,0.0,0.0,0.0,0.0,0.0,0.0,0.0,0.0,0.0,0.0,0.0,0.0,0.0,-1.3112,-1.3892,-1.4496,-1.4373,-1.5248,-1.5811,-1.5683,-1.6069,-1.6327,-1.6334,-1.6605,-1.6836,-1.6992,-1.7134,-1.7069,-1.6563,-1.6493,-1.6413,-1.588,-1.5559,-1.5236,-1.5356,-1.4673,-1.4223,-1.3538,-1.3538,-1.2853,-1.1698,-1.1698,-1.1016,-0.9861,-0.9338,-0.9073,-0.9282,-1.145,-1.2251,-1.2387,-1.3601,-1.4161,-1.429,-0.2431,-0.3136,-0.3917,-0.4846,-0.5583,-0.6108,-0.6251,-0.6221,-0.6144,-0.566,-0.4763,-0.4142,-0.407,-0.2714,-0.1899,-0.2416,-0.1318,-0.0493,-0.0,0.0,0.0,0.0,0.0,0.0,0.0,0.0,0.0,0.0,0.0,0.0,0.0,0.0,0.0,0.0,0.0,0.0,0.0,0.0,0.0,0.0,0.0,0.0,0.0,0.0,0.0,0.0,0.0,0.0,0.0,0.0,0.0,0.0,0.0,0.0,0.0,0.0,0.0,0.0,0.0,0.0,0.0,0.0,0.0,0.0,0.0,0.0,0.0,0.0,0.0,0.0,0.0,0.0,0.0,0.0,0.0,-1.4319,-1.4116,-1.4706,-1.5269,-1.556,-1.5845,-1.613,-1.6415,-1.6558,-1.672,-1.6931,-1.7026,-1.6969,-1.6798,-1.6948,-1.6659,-1.567,-1.5807,-1.5219,-1.3664,-1.3463,-1.3038,-1.2159,-1.1546,-1.1341,-1.1118,-1.0715,-1.0011,-0.9267,-0.9267,-0.8776,-0.8034,-0.8025,-0.7986,-0.7932,-0.8995,-0.9839,-1.0496,-1.1032,-1.1346,-1.1895,-0.2353,-0.2979,-0.369,-0.4757,-0.5566,-0.6098,-0.6121,-0.6202,-0.6047,-0.5577,-0.4551,-0.386,-0.3923,-0.2315,-0.1283,-0.1463,-0.0494,0.0,0.0,0.0,0.0,0.0,0.0,0.0,0.0,0.0,0.0,0.0,0.0,0.0,0.0,0.0,0.0,0.0,0.0,0.0,0.0,0.0,0.0,0.0,0.0,0.0,0.0,0.0,0.0,0.0,0.0,0.0,0.0,0.0,0.0,0.0,0.0,0.0,0.0,0.0,0.0,0.0,0.0,0.0,0.0,0.0,0.0,0.0,0.0,0.0,0.0,0.0,0.0,0.0,0.0,0.0,0.0,0.0,-1.4315,-1.4999,-1.5255,-1.5513,-1.5811,-1.6137,-1.6347,-1.6558,-1.6822,-1.6958,-1.6915,-1.6935,-1.7008,-1.6705,-1.6047,-1.6187,-1.5623,-1.4327,-1.445,-1.3603,-1.1763,-1.1563,-1.0896,-0.9971,-0.9758,-0.9318,-0.9116,-0.8656,-0.8186,0.0,-0.7246,-0.6992,-0.6735,-0.6715,-0.599,0.0,0.0,0.0,0.0,0.0,-0.9141,-0.9407,-0.2275,-0.2979,-0.371,-0.4688,-0.5536,-0.6045,-0.6062,-0.6134,-0.5994,-0.5578,-0.4576,-0.383,-0.3602,-0.2215,-0.0977,-0.0,0.0,0.0,0.0,0.0,0.0,0.0,0.0,0.0,0.0,0.0,0.0,0.0,0.0,0.0,0.0,0.0,0.0,0.0,0.0,0.0,0.0,0.0,0.0,0.0,0.0,0.0,0.0,0.0,0.0,0.0,0.0,0.0,0.0,0.0,0.0,0.0,0.0,0.0,0.0,0.0,0.0,0.0,0.0,0.0,0.0,0.0,0.0,0.0,0.0,0.0,0.0,0.0,0.0,0.0,0.0,0.0,0.0,0.0,-1.4874,-1.5583,-1.6158,-1.6279,-1.6252,-1.6374,-1.6754,-1.7026,-1.7073,-1.7317,-1.7107,-1.6834,-1.6741,-1.6206,-1.5208,0.0,0.0,0.0,0.0,-1.1622,-1.0011,-0.9362,-0.8931,-0.8233,-0.8413,-0.7952,-0.7067,-0.7013,-0.6315,-0.5178,-0.5178,-0.5173,-0.5169,-0.5368,-0.3956,-0.2091,-0.3918,-0.4805,-0.4782,-0.6651,-0.7133,0.0,-0.2118,-0.2741,-0.3471,-0.4447,-0.5454,-0.6081,-0.6184,-0.6378,-0.6329,-0.6017,-0.5241,-0.4373,-0.3448,-0.2213,-0.1138,-0.0163,0.0,0.0,0.0,0.0,0.0,0.0,0.0,0.0,0.0,0.0,0.0,0.0,0.0,0.0,0.0,0.0,0.0,0.0,0.0,0.0,0.0,0.0,0.0,0.0,0.0,0.0,0.0,0.0,0.0,0.0,0.0,0.0,0.0,0.0,0.0,0.0,0.0,0.0,0.0,0.0,0.0,0.0,0.0,0.0,0.0,0.0,0.0,0.0,0.0,0.0,0.0,0.0,0.0,0.0,0.0,0.0,0.0,-1.3141,-1.4638,-1.5718,-1.6178,-1.6708,-1.6944,-1.6863,-1.7026,-1.7297,-1.765,-1.7305,-1.7001,-1.7253,-1.6407,-1.5339,-1.4317,-1.3654,0.0,-1.0059,-1.0022,-0.9328,-0.799,-0.7952,-0.7254,-0.6356,0.0,0.0,-0.4479,-0.3529,-0.2812,-0.2566,-0.2566,-0.2556,-0.2542,-0.369,-0.3229,-0.1843,-0.3221,-0.3922,-0.3941,-0.5339,-0.583,-0.5865,-0.1865,-0.2655,-0.3454,-0.4358,-0.546,-0.6276,-0.6311,-0.6429,-0.6481,-0.6085,-0.5447,-0.4729,-0.3971,-0.2994,-0.2005,-0.1234,-0.0476,0.0,0.0,0.0,0.0,0.0,0.0,0.0,0.0,0.0,0.0,0.0,0.0,0.0,0.0,0.0,0.0,0.0,0.0,0.0,0.0,0.0,0.0,0.0,0.0,0.0,0.0,0.0,0.0,0.0,0.0,0.0,0.0,0.0,0.0,0.0,0.0,0.0,0.0,0.0,0.0,0.0,0.0,0.0,0.0,0.0,0.0,0.0,0.0,0.0,0.0,0.0,0.0,-0.819,-0.8586,0.0,-1.1658,-1.2797,-1.3928,-1.5048,-1.5673,-1.6309,-1.6824,-1.7331,-1.7224,-1.7219,-1.7491,-1.6696,-1.6133,-1.602,-1.4906,-1.3553,-1.2227,-1.1353,-1.0247,-0.8422,-0.8422,-0.7738,-0.6598,-0.5869,-0.4929,-0.3768,-0.4458,-0.4463,-0.3771,-0.1876,-0.0936,-0.0937,-0.0937,-0.0935,-0.0931,-0.2794,-0.2561,-0.0931,-0.163,-0.2089,-0.2776,-0.347,-0.3712,-0.3723,-0.1675,-0.2659,-0.3474,-0.421,-0.5395,-0.6286,-0.6491,-0.6565,-0.6619,-0.6336,-0.5843,-0.5276,-0.4812,-0.3937,-0.3186,-0.2468,-0.1228,-0.0323,-0.0,0.0,0.0,0.0,0.0,0.0,0.0,0.0,0.0,0.0,0.0,0.0,0.0,0.0,0.0,0.0,0.0,0.0,0.0,0.0,0.0,0.0,0.0,0.0,0.0,0.0,0.0,0.0,0.0,0.0,0.0,0.0,0.0,0.0,0.0,0.0,0.0,0.0,0.0,0.0,0.0,0.0,0.0,0.0,0.0,0.0,0.0,-0.4889,-0.5001,-0.5108,-0.5787,-0.6708,-0.7329,-0.8687,-1.0522,-1.1901,-1.2925,-1.3912,-1.5102,-1.5557,-1.6138,-1.695,-1.6792,-1.6677,-1.6809,-1.5758,-1.4917,-1.4483,-1.2868,-1.1499,-0.9898,-0.9284,-0.8388,-0.7,-0.6797,-0.6352,-0.5188,-0.4236,-0.3058,-0.1649,-0.2576,-0.3047,-0.307,-0.0938,0.0,0.0,0.0,0.0,-0.0236,-0.2123,-0.1649,0.0,0.0,-0.0701,-0.1386,-0.1386,-0.1386,-0.1386,-0.185,-0.2728,-0.3449,-0.4144,-0.519,-0.6104,-0.6397,-0.6954,-0.7226,-0.7129,-0.6847,-0.6324,-0.5601,-0.5109,-0.4238,-0.2433,-0.2344,-0.1649,-0.0166,0.0,0.0,0.0,0.0,0.0,0.0,0.0,0.0,0.0,0.0,0.0,0.0,0.0,0.0,0.0,0.0,0.0,0.0,0.0,0.0,0.0,0.0,0.0,0.0,0.0,0.0,0.0,0.0,0.0,0.0,0.0,0.0,0.0,0.0,0.0,0.0,0.0,0.0,-0.0,-0.0172,-0.0866,-0.1755,-0.2837,-0.353,-0.3889,0.0,-0.4123,-0.423,-0.4118,-0.4455,-0.4996,-0.5897,-0.7444,-0.9025,-0.9779,-1.1462,-1.2926,-1.3616,-1.4263,-1.489,-1.4995,-1.5373,-1.5817,-1.594,-1.4259,-1.3111,-1.3213,-1.1139,-0.9284,-0.8583,-0.7958,-0.7059,-0.5408,-0.4675,-0.4211,-0.4008,-0.3744,-0.2573,-0.0236,-0.0471,-0.0473,-0.0477,-0.0238,0.0,0.0,0.0,0.0,-0.0,-0.0236,-0.0236,0.0,0.0,-0.0,-0.0235,-0.0235,-0.0235,-0.0235,-0.2004,-0.2611,-0.3222,-0.4146,-0.521,-0.6192,-0.6695,-0.7076,-0.7321,-0.7275,-0.7017,-0.6589,-0.5914,-0.5315,-0.4631,-0.3714,-0.3016,-0.2244,-0.1636,-0.0532,0.0,0.0,0.0,0.0,0.0,0.0,0.0,0.0,0.0,0.0,0.0,0.0,0.0,0.0,0.0,0.0,0.0,0.0,0.0,0.0,0.0,0.0,0.0,0.0,0.0,0.0,0.0,0.0,0.0,0.0,0.0,0.0,0.0,0.0,0.0,0.0,0.0,0.0,0.0,-0.0187,-0.0562,-0.1141,-0.1912,-0.2497,-0.2528,-0.2579,-0.2635,-0.2684,-0.3159,-0.3855,-0.4319,-0.5464,-0.6848,0.0,-0.9664,-1.0898,-1.1802,-1.2378,-1.2465,-1.2681,-1.2231,-1.2488,-1.415,-1.209,-1.0908,-1.0844,-0.9274,-0.7891,-0.7159,-0.652,-0.5618,-0.4211,-0.3985,-0.3053,-0.1649,-0.1643,-0.0942,0.0,0.0,0.0,0.0,0.0,0.0,0.0,0.0,0.0,0.0,0.0,0.0,0.0,0.0,0.0,0.0,0.0,0.0,0.0,-0.1789,-0.2303,-0.2903,-0.3927,-0.5191,-0.6155,-0.6752,-0.7095,-0.7356,-0.744,-0.7276,-0.6948,-0.6579,-0.581,-0.5261,-0.4972,-0.387,-0.2923,-0.273,-0.1568,-0.0556,-0.0,0.0,0.0,0.0,0.0,0.0,0.0,0.0,0.0,0.0,0.0,0.0,0.0,0.0,0.0,0.0,0.0,0.0,0.0,0.0,0.0,0.0,0.0,0.0,0.0,0.0,0.0,0.0,0.0,0.0,0.0,0.0,0.0,0.0,0.0,0.0,0.0,0.0,0.0,0.0,0.0,-0.061,-0.1026,-0.1029,-0.104,-0.1055,-0.1074,-0.1736,-0.2407,-0.2868,-0.3804,-0.4966,-0.6545,-0.7767,-0.876,-0.9676,-0.9956,-1.0206,-0.9938,-0.9274,-0.9533,-1.1387,-0.9797,-0.885,-0.8766,-0.7651,-0.6501,-0.5308,-0.512,-0.4675,-0.3739,-0.3055,-0.1887,-0.0,0.0,0.0,0.0,0.0,0.0,0.0,0.0,0.0,0.0,0.0,0.0,0.0,0.0,0.0,0.0,0.0,0.0,0.0,0.0,0.0,0.0,-0.1256,-0.188,-0.2504,-0.3489,-0.4736,-0.5941,-0.6624,-0.7224,-0.761,-0.7614,-0.7674,-0.7706,-0.7453,-0.6995,-0.6399,-0.5675,-0.5153,-0.4121,-0.2661,-0.2686,-0.1971,-0.0,0.0,0.0,0.0,0.0,0.0,0.0,0.0,0.0,0.0,0.0,0.0,0.0,0.0,0.0,0.0,0.0,0.0,0.0,0.0,0.0,0.0,0.0,0.0,0.0,0.0,0.0,0.0,0.0,0.0,0.0,0.0,0.0,0.0,0.0,0.0,0.0,0.0,0.0,0.0,0.0,-0.0,-0.0,-0.0,-0.0,-0.0,-0.0,-0.0,-0.0449,-0.1586,-0.2741,-0.3677,-0.3904,-0.5319,-0.674,-0.7439,-0.7674,-0.7693,-0.7518,-0.7482,-0.7447,0.0,-0.7393,-0.7384,-0.7442,-0.6287,-0.4893,-0.3726,-0.3754,-0.3772,-0.3772,-0.1414,-0.0,-0.0,0.0,0.0,0.0,0.0,0.0,0.0,0.0,0.0,0.0,0.0,0.0,0.0,0.0,0.0,0.0,0.0,0.0,0.0,0.0,0.0,0.0,-0.1256,-0.2061,-0.2867,-0.3489,-0.4469,-0.5484,-0.6338,-0.7124,-0.7672,-0.7764,-0.789,0.0,0.0,0.0,0.0,0.0,-0.6164,-0.5282,-0.4126,-0.3258,-0.2264,-0.1076,-0.0376,0.0,0.0,0.0,0.0,0.0,0.0,0.0,0.0,0.0,0.0,0.0,0.0,0.0,0.0,0.0,0.0,0.0,0.0,0.0,0.0,0.0,0.0,0.0,0.0,0.0,0.0,0.0,0.0,0.0,0.0,0.0,0.0,0.0,0.0,0.0,0.0,0.0,0.0,0.0,0.0,0.0,0.0,0.0,0.0,0.0,0.0,-0.0223,-0.0447,-0.0901,-0.181,-0.3395,-0.4158,-0.5163,-0.6099,-0.6333,-0.6329,-0.631,-0.6299,0.0,0.0,0.0,0.0,-0.4891,-0.4681,-0.4228,-0.3757,-0.2117,-0.1178,-0.1178,-0.0474,0.0,0.0,0.0,0.0,0.0,0.0,0.0,0.0,0.0,0.0,0.0,0.0,0.0,0.0,0.0,0.0,0.0,0.0,0.0,0.0,0.0,0.0,0.0,-0.1256,-0.224,-0.3135,-0.376,-0.4589,0.0,0.0,0.0,0.0,0.0,0.0,0.0,0.0,0.0,0.0,0.0,0.0,-0.599,-0.4952,-0.3861,-0.2793,-0.2036,-0.0712,0.0,0.0,0.0,0.0,0.0,0.0,0.0,0.0,0.0,0.0,0.0,0.0,0.0,0.0,0.0,0.0,0.0,0.0,0.0,0.0,0.0,0.0,0.0,0.0,0.0,0.0,0.0,0.0,0.0,0.0,0.0,0.0,0.0,0.0,0.0,0.0,0.0,0.0,0.0,0.0,0.0,0.0,0.0,0.0,0.0,0.0,0.0,0.0,0.0,-0.0453,-0.2031,-0.2781,-0.3309,-0.4243,-0.4231,-0.422,-0.4208,-0.4667,-0.4664,0.0,0.0,0.0,-0.3744,-0.2828,-0.2367,-0.2367,-0.0947,0.0,0.0,0.0,0.0,0.0,0.0,0.0,0.0,0.0,0.0,0.0,0.0,0.0,0.0,0.0,0.0,0.0,0.0,0.0,0.0,0.0,0.0,0.0,0.0,0.0,0.0,-0.1256,-0.224,-0.3227,0.0,0.0,0.0,0.0,0.0,0.0,0.0,0.0,0.0,0.0,0.0,0.0,0.0,0.0,0.0,-0.5401,-0.4297,-0.346,-0.2902,-0.116,-0.0,-0.0,0.0,0.0,0.0,0.0,0.0,0.0,0.0,0.0,0.0,0.0,0.0,0.0,0.0,0.0,0.0,0.0,0.0,0.0,0.0,0.0,0.0,0.0,0.0,0.0,0.0,0.0,0.0,0.0,0.0,0.0,0.0,0.0,0.0,0.0,0.0,0.0,0.0,0.0,0.0,0.0,0.0,0.0,0.0,0.0,0.0,0.0,0.0,0.0,0.0,-0.0932,-0.1899,-0.1885,-0.1871,-0.1869,-0.1884,-0.281,-0.3739,-0.3771,0.0,0.0,-0.3542,0.0,0.0,0.0,0.0,0.0,0.0,0.0,0.0,0.0,0.0,0.0,0.0,0.0,0.0,0.0,0.0,0.0,0.0,0.0,0.0,0.0,0.0,0.0,0.0,0.0,0.0,0.0,0.0,0.0,0.0,0.0,0.0,0.0,0.0,0.0,0.0,0.0,0.0,0.0,0.0,0.0,0.0,0.0,0.0,0.0,0.0,0.0,0.0,-0.6588,-0.5253,-0.4056,-0.2958,-0.1728,-0.0653,-0.0,0.0,0.0,0.0,0.0,0.0,0.0,0.0,0.0,0.0,0.0,0.0,0.0,0.0,0.0,0.0,0.0,0.0,0.0,0.0,0.0,0.0,0.0,0.0,0.0,0.0,0.0,0.0,0.0,0.0,0.0,0.0,0.0,0.0,0.0,0.0,0.0,0.0,0.0,0.0,0.0,0.0,0.0,0.0,0.0,0.0,0.0,0.0,0.0,0.0,-0.0226,-0.0464,-0.0463,-0.0467,-0.047,-0.0471,-0.2352,-0.3535,-0.3803,-0.2144,0.0,0.0,-0.048,0.0,0.0,0.0,0.0,0.0,0.0,0.0,0.0,0.0,0.0,0.0,0.0,0.0,0.0,0.0,0.0,0.0,0.0,0.0,0.0,0.0,0.0,0.0,0.0,0.0,0.0,0.0,0.0,0.0,0.0,0.0,0.0,0.0,0.0,0.0,0.0,0.0,0.0,0.0,0.0,0.0,0.0,0.0,0.0,0.0,0.0,0.0,0.0,-0.5668,-0.4221,-0.2896,-0.2174,-0.1201,-0.0,0.0,0.0,0.0,0.0,0.0,0.0,0.0,0.0,0.0,0.0,0.0,0.0,0.0,0.0,0.0,0.0,0.0,0.0,0.0,0.0,0.0,0.0,0.0,0.0,0.0,0.0,0.0,0.0,0.0,0.0,0.0,0.0,0.0,0.0,0.0,0.0,0.0,0.0,0.0,0.0,0.0,0.0,0.0,0.0,0.0,0.0,0.0,0.0,0.0,0.0,0.0,0.0,0.0,0.0,0.0,-0.1182,-0.2137,-0.2147,-0.072,0.0,0.0,0.0,0.0,0.0,0.0,0.0,0.0,0.0,0.0,0.0,0.0,0.0,0.0,0.0,0.0,0.0,0.0,0.0,0.0,0.0,0.0,0.0,0.0,0.0,0.0,0.0,0.0,0.0,0.0,0.0,0.0,0.0,0.0,0.0,0.0,0.0,0.0,0.0,0.0,0.0,-0.8079,-0.8594,-0.8757,-0.8573,-0.8803,0.0,0.0,0.0,0.0,0.0,0.0,-0.4461,-0.3007,-0.2391,-0.1492,-0.0139,-0.0,0.0,0.0,0.0,0.0,0.0,0.0,0.0,0.0,0.0,0.0,0.0,0.0,0.0,0.0,0.0,0.0,0.0,0.0,0.0,0.0,0.0,0.0,0.0,0.0,0.0,0.0,0.0,0.0,0.0,0.0,0.0,0.0,0.0,0.0,0.0,0.0,0.0,0.0,0.0,0.0,0.0,0.0,0.0,0.0,0.0,0.0,0.0,0.0,0.0,0.0,0.0,0.0,0.0,0.0,0.0,0.0,0.0,0.0,0.0,0.0,0.0,0.0,0.0,0.0,0.0,0.0,0.0,0.0,0.0,0.0,0.0,0.0,0.0,0.0,0.0,0.0,0.0,0.0,0.0,0.0,0.0,0.0,0.0,0.0,0.0,0.0,0.0,0.0,0.0,0.0,0.0,0.0,0.0,0.0,0.0,0.0,-0.8701,-0.8764,-0.8783,-0.8759,-0.883,-0.8876,-0.8882,-0.882,0.0,0.0,0.0,0.0,0.0,0.0,0.0,-0.3809,-0.2578,-0.1713,-0.0948,-0.0272,0.0,0.0,0.0,0.0,0.0,0.0,0.0,0.0,0.0,0.0,0.0,0.0,0.0,0.0,0.0,0.0,0.0,0.0,0.0,0.0,0.0,0.0,0.0,0.0,0.0,0.0,0.0,0.0,0.0,0.0,0.0,0.0,0.0,0.0,0.0,0.0,0.0,0.0,0.0,0.0,0.0,0.0,0.0,0.0,0.0,0.0,0.0,0.0,0.0,0.0,0.0,0.0,0.0,0.0,0.0,0.0,0.0,0.0,0.0,0.0,0.0,0.0,0.0,0.0,0.0,0.0,0.0,0.0,0.0,0.0,0.0,0.0,0.0,0.0,0.0,0.0,0.0,0.0,0.0,0.0,0.0,0.0,0.0,0.0,0.0,0.0,0.0,0.0,0.0,0.0,0.0,0.0,0.0,0.0,0.0,0.0,0.0,-0.9209,-0.934,-0.9359,-0.9392,-0.9359,-0.9388,-0.9381,-0.9325,0.0,0.0,0.0,0.0,0.0,0.0,-0.4484,-0.3162,-0.2183,-0.1562,-0.0525,0.0,0.0,0.0,0.0,0.0,0.0,0.0,0.0,0.0,0.0,0.0,0.0,0.0,0.0,0.0,0.0,0.0,0.0,0.0,0.0,0.0,0.0,0.0,0.0,0.0,0.0,0.0,0.0,0.0,0.0,0.0,0.0,0.0,0.0,0.0,0.0,0.0,0.0,0.0,0.0,0.0,0.0,0.0,0.0,0.0,0.0,0.0,0.0,0.0,0.0,0.0,0.0,0.0,0.0,0.0,0.0,0.0,0.0,0.0,0.0,0.0,0.0,0.0,0.0,0.0,0.0,0.0,0.0,0.0,0.0,0.0,0.0,0.0,0.0,0.0,0.0,0.0,0.0,0.0,0.0,0.0,0.0,0.0,0.0,0.0,0.0,0.0,0.0,0.0,0.0,0.0,0.0,0.0,0.0,0.0,0.0,0.0,-0.9525,-0.984,-1.0019,-1.0025,-0.9964,-0.9982,-0.9912,-0.9801,0.0,0.0,0.0,0.0,0.0,0.0,0.0,0.0,-0.2766,-0.2019,0.0,0.0,0.0,0.0,0.0,0.0,0.0,0.0,0.0,0.0,0.0,0.0,0.0,0.0,0.0,0.0,0.0,0.0,0.0,0.0,0.0,0.0,0.0,0.0,0.0,0.0,0.0,0.0,0.0,0.0,0.0,0.0,0.0,0.0,0.0,0.0,0.0,0.0,0.0,0.0,0.0,0.0,0.0,0.0,0.0,0.0,0.0,0.0,0.0,0.0,0.0,0.0,0.0,0.0,0.0,0.0,0.0,0.0,0.0,0.0,0.0,0.0,0.0,0.0,0.0,0.0,0.0,0.0,0.0,0.0,0.0,0.0,0.0,0.0,0.0,0.0,0.0,0.0,0.0,0.0,0.0,0.0,0.0,0.0,0.0,0.0,0.0,0.0,0.0,0.0,0.0,0.0,0.0,0.0,0.0,0.0,0.0,0.0,-0.9813,-1.0033,-1.0587,-1.0644,-1.0637,-1.0594,-1.0073,-0.9808,0.0,0.0,0.0,0.0,0.0,0.0,0.0,0.0,0.0,0.0,0.0,0.0,0.0,0.0,0.0,0.0,0.0,0.0,0.0,0.0,0.0,0.0,0.0,0.0,0.0,0.0,0.0,0.0,0.0,0.0,0.0,0.0,0.0,0.0,0.0,0.0,0.0,0.0,0.0,0.0,0.0,0.0,0.0,0.0,0.0,0.0,0.0,0.0,0.0,0.0,0.0,0.0,0.0,0.0,0.0,0.0,0.0,0.0,0.0,0.0,0.0,0.0,0.0,0.0,0.0,0.0,0.0,0.0,0.0,0.0,0.0,0.0,0.0,0.0,0.0,0.0,0.0,0.0,0.0,0.0,0.0,0.0,0.0,0.0,0.0,0.0,0.0,0.0,0.0,0.0,0.0,0.0,0.0,0.0,0.0,0.0,0.0,0.0,0.0,0.0,0.0,0.0,0.0,0.0,0.0,0.0,0.0,-0.9669,-1.0079,-1.0399,-1.0658,-1.0704,-1.0644,-1.0684,-1.0538,-1.0252,-0.9848,0.0,0.0,0.0,0.0,0.0,0.0,0.0,0.0,0.0,0.0,-0.1402,0.0,0.0,0.0,0.0,0.0,0.0,0.0,0.0,0.0,0.0,0.0,0.0,0.0,0.0,0.0,0.0,0.0,0.0,0.0,0.0,0.0,0.0,0.0,0.0,0.0,0.0,0.0,0.0,0.0,0.0,0.0,0.0,0.0,0.0,0.0,0.0,0.0,0.0,0.0,0.0,0.0,0.0,0.0,0.0,0.0,0.0,0.0,0.0,0.0,0.0,0.0,0.0,0.0,0.0,0.0,0.0,0.0,0.0,0.0,0.0,0.0,0.0,0.0,0.0,0.0,0.0,0.0,0.0,0.0,0.0,0.0,0.0,0.0,0.0,0.0,0.0,0.0,0.0,0.0,0.0,0.0,0.0,0.0,0.0,0.0,0.0,0.0,0.0,0.0,0.0,0.0,0.0,0.0,0.0,-0.9131,-0.9662,-1.0134,-1.0503,-1.0728,-1.0658,-1.0761,-1.0699,-1.0663,-1.0496,-0.987,-0.9808,0.0,0.0,0.0,0.0,0.0,0.0,0.0,0.0,0.0,-0.1401,0.0,0.0,0.0,0.0,0.0,0.0,0.0,0.0,0.0,0.0,0.0,0.0,0.0,0.0,0.0,0.0,0.0,0.0,0.0,0.0,0.0,0.0,0.0,0.0,0.0,0.0,0.0,0.0,0.0,0.0,0.0,0.0,0.0,0.0,0.0,0.0,0.0,0.0,0.0,0.0,0.0,0.0,0.0,0.0,0.0,0.0,0.0,0.0,0.0,0.0,0.0,0.0,0.0,0.0,0.0,0.0,0.0,0.0,0.0,0.0,0.0,0.0,0.0,0.0,0.0,0.0,0.0,0.0,0.0,0.0,0.0,0.0,0.0,0.0,0.0,0.0,0.0,0.0,0.0,0.0,0.0,0.0,0.0,0.0,0.0,0.0,0.0,0.0,0.0,0.0,0.0,0.0,0.0,0.0,0.0,-0.9689,-0.9856,-1.0029,-1.0582,-1.076,-1.0685,-1.0704,-1.0725,-1.041,-0.9882,-0.9744,0.0,0.0,0.0,0.0,0.0,0.0,0.0,0.0,0.0,-0.128,0.0,0.0,0.0,0.0,0.0,0.0,0.0,0.0,0.0,0.0,0.0,0.0,0.0,0.0,0.0,0.0,0.0,0.0,0.0,0.0,0.0,0.0,0.0,0.0,0.0,0.0,0.0,0.0,0.0,0.0,0.0,0.0,0.0,0.0,0.0,0.0,0.0,0.0,0.0,0.0,0.0,0.0,0.0,0.0,0.0,0.0,0.0,0.0,0.0,0.0,0.0,0.0,0.0,0.0,0.0,0.0,0.0,0.0,0.0,0.0,0.0,0.0,0.0,0.0,0.0,0.0,0.0,0.0,0.0,0.0,0.0,0.0,0.0,0.0,0.0,0.0,0.0,0.0,0.0,0.0,0.0,0.0,0.0,0.0,0.0,0.0,0.0,0.0,0.0,0.0,0.0,0.0,0.0,0.0,0.0,0.0,-0.9834,-0.9841,-1.0035,-1.041,-1.0756,-1.0684,-1.0637,-1.051,-0.9863,-0.9808,0.0,0.0,0.0,0.0,0.0,0.0,0.0,0.0,0.0,-0.2914,-0.1471,-0.0548,0.0,0.0,0.0,0.0,0.0,0.0,0.0,0.0,0.0,0.0,0.0,0.0,0.0,0.0,0.0,0.0,0.0,0.0,0.0,0.0,0.0,0.0,0.0,0.0,0.0,0.0,0.0,0.0,0.0,0.0,0.0,0.0,0.0,0.0,0.0,0.0,0.0,0.0,0.0,0.0,0.0,0.0,0.0,0.0,0.0,0.0,0.0,0.0,0.0,0.0,0.0,0.0,0.0,0.0,0.0,0.0,0.0,0.0,0.0,0.0,0.0,0.0,0.0,0.0,0.0,0.0,0.0,0.0,0.0,0.0,0.0,0.0,0.0,0.0,0.0,0.0,0.0,0.0,0.0,0.0,0.0,0.0,0.0,0.0,0.0,0.0,0.0,0.0,0.0,0.0,0.0,0.0,0.0,0.0,-0.9683,-0.9795,-0.9814,-1.01,-1.0349,-1.0404,-1.0399,-1.0177,-0.9797,-0.9781,0.0,0.0,0.0,0.0,0.0,0.0,0.0,0.0,-0.4895,-0.3661,-0.2204,-0.0704,0.0,0.0,0.0,0.0,0.0,0.0,0.0,0.0,0.0,0.0,0.0,0.0,0.0,0.0,0.0,0.0,0.0,0.0,0.0,0.0,0.0,0.0,0.0,0.0,0.0,0.0,0.0,0.0,0.0,0.0,0.0,0.0,0.0,0.0,0.0,0.0,0.0,0.0,0.0,0.0,0.0,0.0,0.0,0.0,0.0,0.0,0.0,0.0,0.0,0.0,0.0,0.0,0.0,0.0,0.0,0.0,0.0,0.0,0.0,0.0,0.0,0.0,0.0,0.0,0.0,0.0,0.0,0.0,0.0,0.0,0.0,0.0,0.0,0.0,0.0,0.0,0.0,0.0,0.0,0.0,0.0,0.0,0.0,0.0,0.0,0.0,0.0,0.0,0.0,0.0,0.0,0.0,0.0,0.0,-0.9408,-0.9758,-0.9788,-0.9801,-0.9817,-0.9836,-0.9857,-0.9777,-0.9777,0.0,0.0,0.0,0.0,0.0,0.0,0.0,0.0,0.0,-0.5218,-0.3716,-0.229,-0.0872,-0.0148,0.0,0.0,0.0,0.0,0.0,0.0,0.0,0.0,0.0,0.0,0.0,0.0,0.0,0.0,0.0,0.0,0.0,0.0,0.0,0.0,0.0,0.0,0.0,0.0,0.0,0.0,0.0,0.0,0.0,0.0,0.0,0.0,0.0,0.0,0.0,0.0,0.0,0.0,0.0,0.0,0.0,0.0,0.0,0.0,0.0,0.0,0.0,0.0,0.0,0.0,0.0,0.0,0.0,0.0,0.0,0.0,0.0,0.0,0.0,0.0,0.0,0.0,0.0,0.0,0.0,0.0,0.0,0.0,0.0,0.0,0.0,0.0,0.0,0.0,0.0,0.0,0.0,0.0,0.0,0.0,0.0,0.0,0.0,0.0,0.0,0.0,0.0,0.0,0.0,0.0,0.0,0.0,0.0,0.0,0.0,0.0,-0.9813,-0.9768,-0.9787,-0.9774,-0.9754,0.0,0.0,0.0,0.0,0.0,0.0,0.0,0.0,0.0,0.0,-0.6923,-0.4979,-0.2319,-0.2098,-0.1226,0.0,0.0,0.0,0.0,0.0,0.0,0.0,0.0,0.0,0.0,0.0,0.0,0.0,0.0,0.0,0.0,0.0,0.0,0.0,0.0,0.0,0.0,0.0,0.0,0.0,0.0,0.0,0.0,0.0,0.0,0.0,0.0,0.0,0.0,0.0,0.0,0.0,0.0,0.0,0.0,0.0,0.0,0.0,0.0,0.0,0.0,0.0,0.0,0.0,0.0,0.0,0.0,0.0,0.0,0.0,0.0,0.0,0.0,0.0,0.0,0.0,0.0,0.0,0.0,0.0,0.0,0.0,0.0,0.0,0.0,0.0,0.0,0.0,0.0,0.0,0.0,0.0,0.0,0.0,0.0,0.0,0.0,0.0,0.0,0.0,0.0,0.0,0.0,0.0,0.0,0.0,0.0,0.0,0.0,0.0,0.0,0.0,-0.9765,0.0,0.0,0.0,0.0,0.0,0.0,0.0,0.0,0.0,0.0,0.0,0.0,-0.8617,-0.7508,-0.5852,-0.3468,-0.2773,-0.157,0.0,0.0,0.0,0.0,0.0,0.0,0.0,0.0,0.0,0.0,0.0,0.0,0.0,0.0,0.0,0.0,0.0,0.0,0.0,0.0,0.0,0.0,0.0,0.0,0.0,0.0,0.0,0.0,0.0,0.0,0.0,0.0,0.0,0.0,0.0,0.0,0.0,0.0,0.0,0.0,0.0,0.0,0.0,0.0,0.0,0.0,0.0,0.0,0.0,0.0,0.0,0.0,0.0,0.0,0.0,0.0,0.0,0.0,0.0,0.0,0.0,0.0,0.0,0.0,0.0,0.0,0.0,0.0,0.0,0.0,0.0,0.0,0.0,0.0,0.0,0.0,0.0,0.0,0.0,0.0,0.0,0.0,0.0,0.0,0.0,0.0,0.0,0.0,0.0,0.0,0.0,0.0,0.0,0.0,0.0,0.0,0.0,0.0,0.0,0.0,0.0,0.0,0.0,0.0,0.0,0.0,0.0,0.0,0.0,-1.0078,-0.8692,-0.7648,-0.6444,-0.5022,-0.3315,-0.16,0.0,0.0,0.0,0.0,0.0,0.0,0.0,0.0,0.0,0.0,0.0,0.0,0.0,0.0,0.0,0.0,0.0,0.0,0.0,0.0,0.0,0.0,0.0,0.0,0.0,0.0,0.0,0.0,0.0,0.0,0.0,0.0,0.0,0.0,0.0,0.0,0.0,0.0,0.0,0.0,0.0,0.0,0.0,0.0,0.0,0.0,0.0,0.0,0.0,0.0,0.0,0.0,0.0,0.0,0.0,0.0,0.0,0.0,0.0,0.0,0.0,0.0,0.0,0.0,0.0,0.0,0.0,0.0,0.0,0.0,0.0,0.0,0.0,0.0,0.0,0.0,0.0,0.0,0.0,0.0,0.0,0.0,0.0,0.0,0.0,0.0,0.0,0.0,0.0,0.0,0.0,0.0,0.0,0.0,0.0,0.0,0.0,0.0,0.0,0.0,0.0,0.0,0.0,0.0,0.0,0.0,0.0,0.0,0.0,-1.0264,-0.9231,-0.7966,-0.6553,-0.5022,-0.3397,-0.1809,0.0,0.0,0.0,0.0,0.0,0.0,0.0,0.0,0.0,0.0,0.0,0.0,0.0,0.0,0.0,0.0,0.0,0.0,0.0,0.0,0.0,0.0,0.0,0.0,0.0,0.0,0.0,0.0,0.0,0.0,0.0,0.0,0.0,0.0,0.0,0.0,0.0,0.0,0.0,0.0,0.0,0.0,0.0,0.0,0.0,0.0,0.0,0.0,0.0,0.0,0.0,0.0,0.0,0.0,0.0,0.0,0.0,0.0,0.0,0.0,0.0,0.0,0.0,0.0,0.0,0.0,0.0,0.0,0.0,0.0,0.0,0.0,0.0,0.0,0.0,0.0,0.0,0.0,0.0,0.0,0.0,0.0,0.0,0.0,0.0,0.0,0.0,0.0,0.0,0.0,0.0,0.0,0.0,0.0,0.0,0.0,0.0,0.0,0.0,0.0,0.0,0.0,0.0,0.0,0.0,0.0,0.0,0.0,0.0,-1.0614,-0.9259,-0.8044,-0.6751,-0.5213,-0.3478,-0.1848,0.0,0.0,0.0,0.0,0.0,0.0,0.0,0.0,0.0,0.0,0.0,0.0,0.0,0.0,0.0,0.0,0.0,0.0,0.0,0.0,0.0,0.0,0.0,0.0,0.0,0.0,0.0,0.0,0.0,0.0,0.0,0.0,0.0,0.0,0.0,0.0,0.0,0.0,0.0,0.0,0.0,0.0,0.0,0.0,0.0,0.0,0.0,0.0,0.0,0.0,0.0,0.0,0.0,0.0,0.0,0.0,0.0,0.0,0.0,0.0,0.0,0.0,0.0,0.0,0.0,0.0,0.0,0.0,0.0,0.0,0.0,0.0,0.0,0.0,0.0,0.0,0.0,0.0,0.0,0.0,0.0,0.0,0.0,0.0,0.0,0.0,0.0,0.0,0.0,0.0,0.0,0.0,0.0,0.0,0.0,0.0,0.0,0.0,0.0,0.0,0.0,0.0,0.0,0.0,0.0,0.0,0.0,0.0,0.0,0.0,-0.9511,-0.8229,-0.6919,-0.5376,-0.3542,-0.1875,0.0,0.0,0.0,0.0,0.0,0.0,0.0,0.0,0.0,0.0,0.0,0.0,0.0,0.0,0.0,0.0,0.0,0.0,0.0,0.0,0.0,0.0,0.0,0.0,0.0,0.0,0.0,0.0,0.0,0.0,0.0,0.0,0.0,0.0,0.0,0.0,0.0,0.0,0.0,0.0,0.0,0.0,0.0,0.0,0.0,0.0,0.0,0.0,0.0,0.0,0.0,0.0,0.0,0.0,0.0,0.0,0.0,0.0,0.0,0.0,0.0,0.0,0.0,0.0,0.0,0.0,0.0,0.0,0.0,0.0,0.0,0.0,0.0,0.0,0.0,0.0,0.0,0.0,0.0,0.0,0.0,0.0,0.0,0.0,0.0,0.0,0.0,0.0,0.0,0.0,0.0,0.0,0.0,0.0,0.0,0.0,0.0,0.0,0.0,0.0,0.0,0.0,0.0,0.0,0.0,0.0,0.0,0.0,0.0,0.0,-0.9972,-0.8769,-0.714,-0.5376,-0.3739,-0.1882,0.0,0.0,0.0,0.0,0.0,0.0,0.0,0.0,0.0,0.0,0.0,0.0,0.0,0.0,0.0,0.0,0.0,0.0,0.0,0.0,0.0,0.0,0.0,0.0,0.0,0.0,0.0,0.0,0.0,0.0,0.0,0.0,0.0,0.0,0.0,0.0,0.0,0.0,0.0,0.0,0.0,0.0,0.0,0.0,0.0,0.0,0.0,0.0,0.0,0.0,0.0,0.0,0.0,0.0,0.0,0.0,0.0,0.0,0.0,0.0,0.0,0.0,0.0,0.0,0.0,0.0,0.0,0.0,0.0,0.0,0.0,0.0,0.0,0.0,0.0,0.0,0.0,0.0,0.0,0.0,0.0,0.0,0.0,0.0,0.0,0.0,0.0,0.0,0.0,0.0,0.0,0.0,0.0,0.0,0.0,0.0,0.0,0.0,0.0,0.0,0.0,0.0,0.0,0.0,0.0,0.0,0.0,0.0,0.0,-1.1135,-1.0037,-0.8749,-0.7248,-0.5319,-0.2447,-0.0701,0.0,0.0,0.0,0.0,0.0,0.0,0.0,0.0,0.0,0.0,0.0,0.0,0.0,0.0,0.0,0.0,0.0,0.0,0.0,0.0,0.0,0.0,0.0,0.0,0.0,0.0,0.0,0.0,0.0,0.0,0.0,0.0,0.0,0.0,0.0,0.0,0.0,0.0,0.0,0.0,0.0,0.0,0.0,0.0,0.0,0.0,0.0,0.0,0.0,0.0,0.0,0.0,0.0,0.0,0.0,0.0,0.0,0.0,0.0,0.0,0.0,0.0,0.0,0.0,0.0,0.0,0.0,0.0,0.0,0.0,0.0,0.0,0.0,0.0,0.0,0.0,0.0,0.0,0.0,0.0,0.0,0.0,0.0,0.0,0.0,0.0,0.0,0.0,0.0,0.0,0.0,0.0,0.0,0.0,0.0,0.0,0.0,0.0,0.0,0.0,0.0,0.0,0.0,0.0,0.0,-1.0355,-1.0637,-1.0717,-1.1281,-1.1032,-1.0008,-0.8823,-0.7143,-0.5385,-0.177,0.0,0.0,0.0,0.0,0.0,0.0,0.0,0.0,0.0,0.0,0.0,0.0,0.0,0.0,0.0,0.0,0.0,0.0,0.0,0.0,0.0,0.0,0.0,0.0,0.0,0.0,0.0,0.0,0.0,0.0,0.0,0.0,0.0,0.0,0.0,0.0,0.0,0.0,0.0,0.0,0.0,0.0,0.0,0.0,0.0,0.0,0.0,0.0,0.0,0.0,0.0,0.0,0.0,0.0,0.0,0.0,0.0,0.0,0.0,0.0,0.0,0.0,0.0,0.0,0.0,0.0,0.0,0.0,0.0,0.0,0.0,0.0,0.0,0.0,0.0,0.0,0.0,0.0,0.0,0.0,0.0,0.0,0.0,0.0,0.0,0.0,0.0,0.0,0.0,0.0,0.0,0.0,0.0,0.0,0.0,0.0,0.0,0.0,0.0,0.0,0.0,0.0,0.0,0.0,0.0,-0.9742,-1.041,-1.0678,-1.0711,-1.1328,-1.1032,-1.0008,-0.8659,-0.7139,-0.5385,-0.1756,0.0,0.0,0.0,0.0,0.0,0.0,0.0,0.0,0.0,0.0,0.0,0.0,0.0,0.0,0.0,0.0,0.0,0.0,0.0,0.0,0.0,0.0,0.0,0.0,0.0,0.0,0.0,0.0,0.0,0.0,0.0,0.0,0.0,0.0,0.0,0.0,0.0,0.0,0.0,0.0,0.0,0.0,0.0,0.0,0.0,0.0,0.0,0.0,0.0,0.0,0.0,0.0,0.0,0.0,0.0,0.0,0.0,0.0,0.0,0.0,0.0,0.0,0.0,0.0,0.0,0.0,0.0,0.0,0.0,0.0,0.0,0.0,0.0,0.0,0.0,0.0,0.0,0.0,0.0,0.0,0.0,0.0,0.0,0.0,0.0,0.0,0.0,0.0,0.0,0.0,0.0,0.0,0.0,0.0,0.0,0.0,0.0,0.0,0.0,0.0,0.0,0.0,0.0,0.0,0.0,-0.9742,-1.041,-1.0678,-1.0711,-1.1328,-1.1135,-1.0037,-0.7463,-0.5379,-0.361,-0.1216,0.0,0.0,0.0,0.0,0.0,0.0,0.0,0.0,0.0,0.0,0.0,0.0,0.0,0.0,0.0,0.0,0.0,0.0,0.0,0.0,0.0,0.0,0.0,0.0,0.0,0.0,0.0,0.0,0.0,0.0,0.0,0.0,0.0,0.0,0.0,0.0,0.0,0.0,0.0,0.0,0.0,0.0,0.0,0.0,0.0,0.0,0.0,0.0,0.0,0.0,0.0,0.0,0.0,0.0,0.0,0.0,0.0,0.0,0.0,0.0,0.0,0.0,0.0,0.0,0.0,0.0,0.0,0.0,0.0,0.0,0.0,0.0,0.0,0.0,0.0,0.0,0.0,0.0,0.0,0.0,0.0,0.0,0.0,0.0,0.0,0.0,0.0,0.0,0.0,0.0,0.0,0.0,0.0,0.0,0.0,-0.9258,-0.9707,-0.9829,-0.9822,0.0,0.0,0.0,-0.9822,-0.9822,0.0,-0.9784,-1.0376,-1.0651,-1.0633,-1.1248,-1.0791,-0.8977,-0.6675,-0.4526,-0.2871,-0.0857,0.0,0.0,0.0,0.0,0.0,0.0,0.0,0.0,0.0,0.0,0.0,0.0,0.0,0.0,0.0,0.0,0.0,0.0,0.0,0.0,0.0,0.0,0.0,0.0,0.0,0.0,0.0,0.0,0.0,0.0,0.0,0.0,0.0,0.0,0.0,0.0,0.0,0.0,0.0,0.0,0.0,0.0,0.0,0.0,0.0,0.0,0.0,0.0,0.0,0.0,0.0,0.0,0.0,0.0,0.0,0.0,0.0,0.0,0.0,0.0,0.0,0.0,0.0,0.0,0.0,0.0,0.0,0.0,0.0,0.0,0.0,0.0,0.0,0.0,0.0,0.0,0.0,0.0,0.0,0.0,0.0,0.0,0.0,0.0,0.0,0.0,0.0,0.0,0.0,0.0,0.0,0.0,0.0,0.0,-0.7059,-0.8355,-0.9592,-0.9829,-0.9822,0.0,0.0,0.0,-0.9822,-0.9822,-0.9761,-0.9784,-1.0328,-1.061,-1.0631,-1.1121,-1.0164,-0.7517,-0.6152,-0.4452,-0.2647,-0.0845,0.0,0.0,0.0,0.0,0.0,0.0,0.0,0.0,0.0,0.0,0.0,0.0,0.0,0.0,0.0,0.0,0.0,0.0,0.0,0.0,0.0,0.0,0.0,0.0,0.0,0.0,0.0,0.0,0.0,0.0,0.0,0.0,0.0,0.0,0.0,0.0,0.0,0.0,0.0,0.0,0.0,0.0,0.0,0.0,0.0,0.0,0.0,0.0,0.0,0.0,0.0,0.0,0.0,0.0,0.0,0.0,0.0,0.0,0.0,0.0,0.0,0.0,0.0,0.0,0.0,0.0,0.0,0.0,0.0,0.0,0.0,0.0,0.0,0.0,0.0,0.0,0.0,0.0,0.0,0.0,0.0,0.0,0.0,0.0,0.0,0.0,0.0,0.0,0.0,0.0,0.0,0.0,0.0,-0.5639,-0.6996,-0.836,-0.9605,-0.9836,-0.9822,-0.9822,-0.9822,0.0,-0.9822,-0.9822,-0.9761,-0.9784,-0.9936,-1.0161,-1.0618,-1.0162,-0.906,-0.7517,-0.5849,-0.4344,-0.2647,-0.0839,0.0,0.0,0.0,0.0,0.0,0.0,0.0,0.0,0.0,0.0,0.0,0.0,0.0,0.0,0.0,0.0,0.0,0.0,0.0,0.0,0.0,0.0,0.0,0.0,0.0,0.0,0.0,0.0,0.0,0.0,0.0,0.0,0.0,0.0,0.0,0.0,0.0,0.0,0.0,0.0,0.0,0.0,0.0,0.0,0.0,0.0,0.0,0.0,0.0,0.0,0.0,0.0,0.0,0.0,0.0,0.0,0.0,0.0,0.0,0.0,0.0,0.0,0.0,0.0,0.0,0.0,0.0,0.0,0.0,0.0,0.0,0.0,0.0,0.0,0.0,0.0,0.0,0.0,0.0,0.0,0.0,0.0,0.0,0.0,0.0,0.0,0.0,0.0,0.0,0.0,0.0,0.0,0.0,0.0,0.0,-0.8372,-0.9605,-0.9842,-0.9829,-0.9822,-0.9822,0.0,0.0,-0.9822,-0.9856,-0.9808,-0.9764,-1.0078,-1.065,-0.9824,-0.8592,-0.7237,-0.5773,-0.4141,-0.2626,-0.083,0.0,0.0,0.0,0.0,0.0,0.0,0.0,0.0,0.0,0.0,0.0,0.0,0.0,0.0,0.0,0.0,0.0,0.0,0.0,0.0,0.0,0.0,0.0,0.0,0.0,0.0,0.0,0.0,0.0,0.0,0.0,0.0,0.0,0.0,0.0,0.0,0.0,0.0,0.0,0.0,0.0,0.0,0.0,0.0,0.0,0.0,0.0,0.0,0.0,0.0,0.0,0.0,0.0,0.0,0.0,0.0,0.0,0.0,0.0,0.0,0.0,0.0,0.0,0.0,0.0,0.0,0.0,0.0,0.0,0.0,0.0,0.0,0.0,0.0,0.0,0.0,0.0,0.0,0.0,0.0,0.0,0.0,0.0,0.0,0.0,0.0,0.0,0.0,0.0,0.0,0.0,0.0,0.0,0.0,0.0,0.0,-0.9355,-0.9721,-0.9836,-0.9822,-0.9822,-0.9822,0.0,0.0,0.0,-0.9822,-0.985,-1.013,-1.0391,-0.9694,-0.8489,-0.6608,-0.524,-0.3948,-0.2425,-0.0823,0.0,0.0,0.0,0.0,0.0,0.0,0.0,0.0,0.0,0.0,0.0,0.0,0.0,0.0,0.0,0.0,0.0,0.0,0.0,0.0,0.0,0.0,0.0,0.0,0.0,0.0,0.0,0.0,0.0,0.0,0.0,0.0,0.0,0.0,0.0,0.0,0.0,0.0,0.0,0.0,0.0,0.0,0.0,0.0,0.0,0.0,0.0,0.0,0.0,0.0,0.0,0.0,0.0,0.0,0.0,0.0,0.0,0.0,0.0,0.0,0.0,0.0,0.0,0.0,0.0,0.0,0.0,0.0,0.0,0.0,0.0,0.0,0.0,0.0,0.0,0.0,0.0,0.0,0.0,0.0,0.0,0.0,0.0,0.0,0.0,0.0,0.0,0.0,0.0,0.0,0.0,0.0,0.0,0.0,0.0,0.0,0.0,-0.9098,-0.9836,-0.9836,-0.9829,-0.9822,-0.9822,-0.9822,-0.9822,-0.9822,0.0,0.0,-0.8895,-0.9159,-0.7983,-0.5116,-0.3602,-0.2771,-0.2526,-0.0824,0.0,0.0,0.0,0.0,0.0,0.0,0.0,0.0,0.0,0.0,0.0,0.0,0.0,0.0,0.0,0.0,0.0,0.0,0.0,0.0,0.0,0.0,0.0,0.0,0.0,0.0,0.0,0.0,0.0,0.0,0.0,0.0,0.0,0.0,0.0,0.0,0.0,0.0,0.0,0.0,0.0,0.0,0.0,0.0,0.0,0.0,0.0,0.0,0.0,0.0,0.0,0.0,0.0,0.0,0.0,0.0,0.0,0.0,0.0,0.0,0.0,0.0,0.0,0.0,0.0,0.0,0.0,0.0,0.0,0.0,0.0,0.0,0.0,0.0,0.0,0.0,0.0,0.0,0.0,0.0,0.0,0.0,0.0,0.0,0.0,0.0,0.0,0.0,0.0,0.0,0.0,0.0,0.0,0.0,0.0,0.0,0.0,0.0,-0.8976,-0.9727,-0.9836,-0.9836,-0.9842,-0.9836,-0.9747,-0.9834,-0.9406,-0.8992,-0.8584,-0.8006,-0.6807,-0.4805,-0.3138,-0.2453,-0.2514,-0.0824,0.0,0.0,0.0,0.0,0.0,0.0,0.0,0.0,0.0,0.0,0.0,0.0,0.0,0.0,0.0,0.0,0.0,0.0,0.0,0.0,0.0,0.0,0.0,0.0,0.0,0.0,0.0,0.0,0.0,0.0,0.0,0.0,0.0,0.0,0.0,0.0,0.0,0.0,0.0,0.0,0.0,0.0,0.0,0.0,0.0,0.0,0.0,0.0,0.0,0.0,0.0,0.0,0.0,0.0,0.0,0.0,0.0,0.0,0.0,0.0,0.0,0.0,0.0,0.0,0.0,0.0,0.0,0.0,0.0,0.0,0.0,0.0,0.0,0.0,0.0,0.0,0.0,0.0,0.0,0.0,0.0,0.0,0.0,0.0,0.0,0.0,0.0,0.0,0.0,0.0,0.0,0.0,0.0,0.0,0.0,0.0,0.0,0.0,-0.8244,-0.9233,0.0,0.0,0.0,-0.947,-0.9284,-0.9312,-0.8425,-0.7941,-0.8015,-0.6752,-0.5373,-0.4184,-0.2525,-0.1828,-0.1868,0.0,0.0,0.0,0.0,0.0,0.0,0.0,0.0,0.0,0.0,0.0,0.0,0.0,0.0,0.0,0.0,0.0,0.0,0.0,0.0,0.0,0.0,0.0,0.0,0.0,0.0,0.0,0.0,0.0,0.0,0.0,0.0,0.0,0.0,0.0,0.0,0.0,0.0,0.0,0.0,0.0,0.0,0.0,0.0,0.0,0.0,0.0,0.0,0.0,0.0,0.0,0.0,0.0,0.0,0.0,0.0,0.0,0.0,0.0,0.0,0.0,0.0,0.0,0.0,0.0,0.0,0.0,0.0,0.0,0.0,0.0,0.0,0.0,0.0,0.0,0.0,0.0,0.0,0.0,0.0,0.0,0.0,0.0,0.0,0.0,0.0,0.0,0.0,0.0,0.0,0.0,0.0,0.0,0.0,0.0,0.0,0.0,0.0,0.0,-0.7883,-0.7994,-0.7983,-0.8477,-0.9727,-0.8726,-0.8038,-0.8057,-0.7922,-0.7528,-0.6596,-0.5211,0.0,-0.2387,-0.0875,-0.015,-0.0152,0.0,0.0,0.0,0.0,0.0,0.0,0.0,0.0,0.0,0.0,0.0,0.0,0.0,0.0,0.0,0.0,0.0,0.0,0.0,0.0,0.0,0.0,0.0,0.0,0.0,0.0,0.0,0.0,0.0,0.0,0.0,0.0,0.0,0.0,0.0,0.0,0.0,0.0,0.0,0.0,0.0,0.0,0.0,0.0,0.0,0.0,0.0,0.0,0.0,0.0,0.0,0.0,0.0,0.0,0.0,0.0,0.0,0.0,0.0,0.0,0.0,0.0,0.0,0.0,0.0,0.0,0.0,0.0,0.0,0.0,0.0,0.0,0.0,0.0,0.0,0.0,0.0,0.0,0.0,0.0,0.0,0.0,0.0,0.0,0.0,0.0,0.0,0.0,0.0,0.0,0.0,0.0,0.0,0.0,0.0,0.0,0.0,0.0,0.0,0.0,0.0,-0.7345,-0.8111,-0.8506,-0.735,-0.6598,-0.6637,-0.5956,0.0,-0.5139,-0.3702,-0.2803,-0.2244,-0.0729,0.0,0.0,0.0,0.0,0.0,0.0,0.0,0.0,0.0,0.0,0.0,0.0,0.0,0.0,0.0,0.0,0.0,0.0,0.0,0.0,0.0,0.0,0.0,0.0,0.0,0.0,0.0,0.0,0.0,0.0,0.0,0.0,0.0,0.0,0.0,0.0,0.0,0.0,0.0,0.0,0.0,0.0,0.0,0.0,0.0,0.0,0.0,0.0,0.0,0.0,0.0,0.0,0.0,0.0,0.0,0.0,0.0,0.0,0.0,0.0,0.0,0.0,0.0,0.0,0.0,0.0,0.0,0.0,0.0,0.0,0.0,0.0,0.0,0.0,0.0,0.0,0.0,0.0,0.0,0.0,0.0,0.0,0.0,0.0,0.0,0.0,0.0,0.0,0.0,0.0,0.0,0.0,0.0,0.0,0.0,0.0,0.0,0.0,0.0,-0.3118,0.0,0.0,0.0,0.0,-0.6666,-0.6671,-0.5881,-0.5367,-0.5395,-0.4229,-0.3594,-0.3631,-0.221,-0.1546,-0.1554,-0.0582,0.0,0.0,0.0,0.0,0.0,0.0,0.0,0.0,0.0,0.0,0.0,0.0,0.0,0.0,0.0,0.0,0.0,0.0,0.0,0.0,0.0,0.0,0.0,0.0,0.0,0.0,0.0,0.0,0.0,0.0,0.0,0.0,0.0,0.0,0.0,0.0,0.0,0.0,0.0,0.0,0.0,0.0,0.0,0.0,0.0,0.0,0.0,0.0,0.0,0.0,0.0,0.0,0.0,0.0,0.0,0.0,0.0,0.0,0.0,0.0,0.0,0.0,0.0,0.0,0.0,0.0,0.0,0.0,0.0,0.0,0.0,0.0,0.0,0.0,0.0,0.0,0.0,0.0,0.0,0.0,0.0,0.0,0.0,0.0,0.0,0.0,0.0,0.0,0.0,0.0,0.0,0.0,0.0,0.0,0.0,0.0,0.0,0.0,-0.0528,-0.1982,0.0,0.0,0.0,0.0,0.0,-0.4174,-0.4174,-0.42,-0.4258,-0.2986,-0.218,-0.21,-0.0701,0.0,0.0,0.0,0.0,0.0,0.0,0.0,0.0,0.0,0.0,0.0,0.0,0.0,0.0,0.0,0.0,0.0,0.0,0.0,0.0,0.0,0.0,0.0,0.0,0.0,0.0,0.0,0.0,0.0,0.0,0.0,0.0,0.0,0.0,0.0,0.0,0.0,0.0,0.0,0.0,0.0,0.0,0.0,0.0,0.0,0.0,0.0,0.0,0.0,0.0,0.0,0.0,0.0,0.0,0.0,0.0,0.0,0.0,0.0,0.0,0.0,0.0,0.0,0.0,0.0,0.0,0.0,0.0,0.0,0.0,0.0,0.0,0.0,0.0,0.0,0.0,0.0,0.0,0.0,0.0,0.0,0.0,0.0,0.0,0.0,0.0,0.0,0.0,0.0,0.0,0.0,0.0,0.0,0.0,0.0,0.0,0.0,0.0,0.0,0.0,0.0,-0.0554,0.0,0.0,0.0,0.0,0.0,0.0,-0.2815,-0.2811,-0.2806,-0.2791,-0.2503,-0.1809,-0.0701,-0.0283,0.0,0.0,0.0,0.0,0.0,0.0,0.0,0.0,0.0,0.0,0.0,0.0,0.0,0.0,0.0,0.0,0.0,0.0,0.0,0.0,0.0,0.0,0.0,0.0,0.0,0.0,0.0,0.0,0.0,0.0,0.0,0.0,0.0,0.0,0.0,0.0,0.0,0.0,0.0,0.0,0.0,0.0,0.0,0.0,0.0,0.0,0.0,0.0,0.0,0.0,0.0,0.0,0.0,0.0,0.0,0.0,0.0,0.0,0.0,0.0,0.0,0.0,0.0,0.0,0.0,0.0,0.0,0.0,0.0,0.0,0.0,0.0,0.0,0.0,0.0,0.0,0.0,0.0,0.0,0.0,0.0,0.0,0.0,0.0,0.0,0.0,0.0,0.0,0.0,0.0,0.0,0.0,0.0,0.0,0.0,0.0,0.0,0.0,0.0,0.0,0.0,-0.0288,0.0,0.0,0.0,0.0,0.0,0.0,-0.1319,-0.1318,-0.1315,-0.1305,-0.1298,-0.1007,-0.0,0.0,0.0,0.0,0.0,0.0,0.0,0.0,0.0,0.0,0.0,0.0,0.0,0.0,0.0,0.0,0.0,0.0,0.0,0.0,0.0,0.0,0.0,0.0,0.0,0.0,0.0,0.0,0.0,0.0,0.0,0.0,0.0,0.0,0.0,0.0,0.0,0.0,0.0,0.0,0.0,0.0,0.0,0.0,0.0,0.0,0.0,0.0,0.0,0.0,0.0,0.0,0.0,0.0,0.0,0.0,0.0,0.0,0.0,0.0,0.0,0.0,0.0,0.0,0.0,0.0,0.0,0.0,0.0,0.0,0.0,0.0,0.0,0.0,0.0,0.0,0.0,0.0,0.0,0.0,0.0,0.0,0.0,0.0,0.0,0.0,0.0,0.0,0.0,0.0,0.0,0.0,0.0,0.0,0.0,0.0,0.0,0.0,0.0,0.0,0.0,0.0,0.0,0.0,0.0,0.0,0.0,0.0,0.0,0.0,0.0,0.0,0.0,0.0,0.0,0.0,0.0,0.0,0.0,0.0,0.0,0.0,0.0,0.0,0.0,0.0,0.0,0.0,0.0,0.0,0.0,0.0,0.0,0.0,0.0,0.0,0.0,0.0,0.0,0.0,0.0,0.0,0.0,0.0,0.0,0.0,0.0,0.0,0.0,0.0,0.0,0.0,0.0,0.0,0.0,0.0,0.0,0.0,0.0,0.0,0.0,0.0,0.0,0.0,0.0,0.0,0.0,0.0,0.0,0.0,0.0,0.0,0.0,0.0,0.0,0.0,0.0,0.0,0.0,0.0,0.0,0.0,0.0,0.0,0.0,0.0,0.0,0.0,0.0,0.0,0.0,0.0,0.0,0.0,0.0,0.0,0.0,0.0,0.0,0.0,0.0,0.0,0.0,0.0,0.0,0.0,0.0,0.0,0.0,0.0,0.0,0.0,0.0,0.0,0.0,0.0,0.0,0.0,0.0,0.0,0.0,0.0,0.0,0.0,0.0,0.0,0.0,0.0,0.0,0.0,0.0,0.0,0.0,0.0,0.0,0.0,0.0,0.0,0.0,0.0,0.0,0.0,0.0,0.0,0.0,0.0,0.0,0.0,0.0,0.0,0.0,0.0,0.0,0.0,0.0,0.0,0.0,0.0,0.0,0.0,0.0,0.0,0.0,0.0,0.0,0.0,0.0,0.0,0.0,0.0,0.0,0.0,0.0,0.0,0.0,0.0,0.0,0.0,0.0,0.0,0.0,0.0,0.0,0.0,0.0,0.0,0.0,0.0,0.0,0.0,0.0,0.0,0.0,0.0,0.0,0.0,0.0,0.0,0.0,0.0,0.0,0.0,0.0,0.0,0.0,0.0,0.0,0.0,0.0,0.0,0.0,0.0,0.0,0.0,0.0,0.0,0.0,0.0,0.0,0.0,0.0,0.0,0.0,0.0,0.0,0.0,0.0,0.0,0.0,0.0,0.0,0.0,0.0,0.0,0.0,0.0,0.0,0.0,0.0,0.0,0.0,0.0,0.0,0.0,0.0,0.0,0.0,0.0,0.0,0.0,0.0,0.0,0.0,0.0,0.0,0.0,0.0,0.0,0.0,0.0,0.0,0.0,0.0,0.0,0.0,0.0,0.0,0.0,0.0,0.0,0.0,0.0,0.0,0.0,0.0,0.0,0.0,0.0,0.0,0.0,0.0,0.0,0.0,0.0,0.0,0.0,0.0,0.0,0.0,0.0,0.0,0.0,0.0,0.0,0.0,0.0,0.0,0.0,0.0,0.0,0.0,0.0,0.0,0.0,0.0,0.0,0.0,0.0,0.0,0.0,0.0,0.0,0.0,0.0,0.0,0.0,0.0,0.0,0.0,0.0,0.0,0.0,0.0,0.0,0.0,0.0,0.0,0.0,0.0,0.0,0.0,0.0,0.0,0.0,0.0,0.0,0.0,0.0,0.0,0.0,0.0,0.0,0.0,0.0,0.0,0.0,0.0,0.0,0.0,0.0,0.0,0.0,0.0,0.0,0.0,0.0,0.0,0.0,0.0,0.0,0.0,0.0,0.0,0.0,0.0,0.0,0.0,0.0,0.0,0.0,0.0,0.0,0.0,0.0,0.0,0.0,0.0,0.0,0.0,0.0,0.0,0.0,0.0,0.0,0.0,0.0,0.0,0.0,0.0,0.0,0.0,0.0,0.0,0.0,0.0,0.0,0.0,0.0,0.0,0.0,0.0,0.0,0.0,0.0,0.0,0.0,0.0,0.0,0.0,0.0,0.0,0.0,0.0,0.0,0.0,0.0,0.0,0.0,0.0,0.0,0.0,0.0,0.0,0.0,0.0,0.0,0.0,0.0,0.0,0.0,0.0,0.0,0.0,0.0,0.0,0.0,0.0,0.0,0.0,0.0,0.0,0.0,0.0,0.0,0.0,0.0,0.0,0.0,0.0,0.0,0.0,0.0,0.0,0.0,0.0,0.0,0.0,0.0,0.0,0.0,0.0,0.0,0.0,0.0,0.0,0.0,0.0,0.0,0.0,0.0,0.0,0.0,0.0,0.0,0.0,0.0,0.0,0.0,0.0,0.0,0.0,0.0,0.0,0.0,0.0,0.0,0.0,0.0,0.0,0.0,0.0,0.0,0.0,0.0,0.0,0.0,0.0,0.0,0.0,0.0,0.0,0.0,0.0,0.0,0.0,0.0,0.0,0.0,0.0,0.0,0.0,0.0,0.0,0.0,0.0,0.0,0.0,0.0,0.0,0.0,0.0,0.0,0.0,0.0,0.0,0.0,0.0,0.0,0.0,0.0,0.0,0.0,0.0,0.0,0.0,0.0,0.0,0.0,0.0,0.0,0.0,0.0,0.0,0.0,0.0,0.0,0.0,0.0,0.0,0.0,0.0,0.0,0.0,0.0,0.0,0.0,0.0,0.0,0.0,0.0,0.0,0.0,0.0,0.0,0.0,0.0,0.0,0.0,0.0,0.0,0.0,0.0,0.0,0.0,0.0,0.0,0.0,0.0,0.0,0.0,0.0,0.0,0.0,0.0,0.0,0.0,0.0,0.0,0.0,0.0,0.0,0.0,0.0,0.0,0.0,0.0,0.0,0.0,0.0,0.0,0.0,0.0,0.0,0.0,0.0,0.0,0.0,0.0,0.0,0.0,0.0,0.0,0.0,0.0,0.0,0.0,0.0,0.0,0.0,0.0,0.0,0.0,0.0,0.0,0.0,0.0,0.0,0.0,0.0,0.0,0.0,0.0,0.0,0.0,0.0,0.0,0.0,0.0,0.0,0.0,0.0,0.0,0.0,0.0,0.0,0.0,0.0,0.0,0.0,0.0,0.0,0.0,0.0,0.0,0.0,0.0,0.0,0.0,0.0,0.0,0.0,0.0,0.0,0.0,0.0,0.0,0.0,0.0,0.0,0.0,0.0,0.0,0.0,0.0,0.0,0.0,0.0,0.0,0.0,0.0,0.0,0.0,0.0,0.0,0.0,0.0,0.0,0.0,0.0,0.0,0.0,0.0,0.0,0.0,0.0,0.0,0.0,0.0,0.0,0.0,0.0,0.0,0.0,0.0,0.0,0.0,0.0,0.0,0.0,0.0,0.0,0.0,0.0,0.0,0.0,0.0,0.0,0.0,0.0,0.0,0.0,0.0,0.0,0.0,0.0,0.0,0.0,0.0,0.0,0.0,0.0,0.0,0.0,0.0,0.0,0.0,0.0,0.0,0.0,0.0,0.0,0.0,0.0,0.0,0.0,0.0,0.0,0.0,0.0,0.0,0.0,0.0,0.0,0.0,0.0,0.0,0.0,0.0,0.0,0.0,0.0,0.0,0.0,0.0,0.0,0.0,0.0,0.0,0.0,0.0,0.0,0.0,0.0,0.0,0.0,0.0,0.0,0.0,0.0,0.0,0.0,0.0,0.0,0.0,0.0,0.0,0.0,0.0,0.0,0.0,0.0,0.0,0.0,0.0,0.0,0.0,0.0,0.0,0.0,0.0,0.0,0.0,0.0,0.0,0.0,0.0,0.0,0.0,0.0,0.0,0.0,0.0,0.0,0.0,0.0,0.0,0.0,0.0,0.0,0.0,0.0,0.0,0.0,0.0,0.0,0.0,0.0,0.0,0.0,0.0,0.0,0.0,0.0,0.0,0.0,0.0,0.0,0.0,0.0,0.0,0.0,0.0,0.0,0.0,0.0,0.0,0.0,0.0,0.0,0.0,0.0,0.0,0.0,0.0,0.0,0.0,0.0,0.0,0.0,0.0,0.0,0.0,0.0,0.0,0.0,0.0,0.0,0.0,0.0,0.0,0.0,0.0,0.0,0.0,0.0,0.0,0.0,0.0,0.0,0.0,0.0,0.0,0.0,0.0,0.0,0.0,0.0,0.0,0.0,0.0,0.0,0.0,0.0,0.0,0.0,0.0,0.0,0.0,0.0,0.0,0.0,0.0,0.0,0.0,0.0,0.0,0.0,0.0,0.0,0.0,0.0,0.0,0.0,0.0,0.0,0.0,0.0,0.0,0.0,0.0,0.0,0.0,0.0,0.0,0.0,0.0,0.0,0.0,0.0,0.0,0.0,0.0,0.0,0.0,0.0,0.0,0.0,0.0,0.0,0.0,0.0,0.0,0.0,0.0,0.0,0.0,0.0,0.0,0.0,0.0,0.0,0.0,0.0,0.0,0.0,0.0,0.0,0.0,0.0,0.0,0.0,0.0,0.0,0.0,0.0,0.0,0.0,0.0,0.0,0.0,0.0,0.0,0.0,0.0,0.0,0.0,0.0,0.0,0.0,0.0,0.0,0.0,0.0,0.0,0.0,0.0,0.0,0.0,0.0,0.0,0.0,0.0,0.0,0.0,0.0,0.0,0.0,0.0,0.0,0.0,0.0,0.0,0.0,0.0,0.0,0.0,0.0,0.0,0.0,0.0,0.0,0.0,0.0,0.0,0.0,0.0,0.0,0.0,0.0,0.0,0.0,0.0,0.0,0.0,0.0,0.0,0.0,0.0,0.0,0.0,0.0,0.0,0.0,0.0,0.0,0.0,0.0,0.0,0.0,0.0,0.0,0.0,0.0,0.0,0.0,0.0,0.0,0.0,0.0,0.0,0.0,0.0,0.0,0.0,0.0,0.0,0.0,0.0,0.0,0.0,0.0,0.0,0.0,0.0,0.0,0.0,0.0,0.0,0.0,0.0,0.0,0.0,0.0,0.0,0.0,0.0,0.0,0.0,0.0,0.0,0.0,0.0,0.0,0.0,0.0,0.0,0.0,0.0,0.0,0.0,0.0,0.0,0.0,0.0,0.0,0.0,0.0,0.0,0.0,0.0,0.0,0.0,0.0,0.0,0.0,0.0,0.0,0.0,0.0,0.0,0.0,0.0,0.0,0.0,0.0,0.0,0.0,0.0,0.0,0.0,0.0,0.0,0.0,0.0,0.0,0.0,0.0,0.0,0.0,0.0,0.0,0.0,0.0,0.0,0.0,0.0,0.0,0.0,0.0,0.0,0.0,0.0,0.0,0.0,0.0,0.0,0.0,0.0,0.0,0.0,0.0,0.0,0.0,0.0,0.0,0.0,0.0,0.0,0.0,0.0,0.0,0.0,0.0,0.0,0.0,0.0,0.0,0.0,0.0,0.0,0.0,0.0,0.0,0.0,0.0,0.0,0.0,0.0,0.0,0.0,0.0,0.0,0.0,0.0,0.0,0.0,0.0,0.0,0.0,0.0,0.0,0.0,0.0,0.0,0.0,0.0,0.0,0.0253,0.0259,0.0,0.0256,0.0262,0.0264,0.0,0.0,0.0,0.0,0.0,0.0,0.0,0.0,0.0,0.0,0.0,0.0,0.0,0.0,0.0,0.0,0.0,0.0,0.0,0.0,0.0,0.0,0.0,0.0,0.0,0.0,0.0,0.0,0.0,0.0,0.0,0.0,0.0,0.0,0.0,0.0,0.0,0.0,0.0,0.0,0.0,0.0,0.0,0.0,0.0,0.0,0.0,0.0,0.0,0.0,0.0,0.0,0.0,0.0,0.0,0.0,0.0,0.0,0.0,0.0,0.0,0.0,0.0,0.0,0.0,0.0,0.0,0.0,0.035,0.0,0.0,0.0,0.0,0.0,0.0,0.0,0.0,0.0,0.0,0.0,0.0,0.0,0.0,0.0,0.0,0.0,0.0,0.0,0.0,0.0,0.0,0.0,0.0,0.0,0.0,0.0,0.0,0.0,0.0,0.0,0.0,0.0,0.0,0.0,0.0,0.0,0.0,0.0,0.0,0.1246,0.3266,0.31,0.3124,0.3116,0.3152,0.2638,0.1583,0.1583,0.1583,0.1319,0.0264,0.0,0.0,0.0,0.0,0.0,0.0,0.0,0.0,0.0,0.0,0.0,0.0,0.0,0.0,0.0,0.0,0.0,0.0,0.0,0.0,0.0,0.0,0.0,0.0,0.0,0.0,0.0,0.0,0.0,0.0,0.0,0.0,0.0,0.0,0.0,0.0,0.0,0.0,0.0,0.0,0.0,0.0,0.0,0.0,0.0,0.0,0.0,0.0,0.0,0.0,0.0,0.0,0.0,0.0,0.0,0.0,0.0,0.0,0.0,0.0,0.0,0.0,0.0,0.0363,0.0,0.0,0.0,0.0,0.0,0.0,0.0,0.0,0.0,0.0,0.0,0.0,0.0,0.0,0.0,0.0,0.0,0.0,0.0,0.0,0.0,0.0,0.0,0.0,0.0,0.0,0.0,0.0,0.0,0.0,0.0,0.0,0.0,0.0,0.0,0.0,0.0,0.0,0.0,0.1474,0.276,0.0,0.4957,0.5279,0.5557,0.6111,0.5323,0.399,0.399,0.3728,0.2928,0.213,0.1065,0.0,0.0,0.0,0.0,0.0,0.0,0.0,0.0,0.0,0.0,0.0,0.0,0.0,0.0,0.0,0.0,0.0,0.0,0.0,0.0,0.0,0.0,0.0,0.0,0.0,0.0,0.0,0.0,0.0,0.0,0.0,0.0,0.0,0.0,0.0,0.0,0.0,0.0,0.0,0.0,0.0,0.0,0.0,0.0,0.0,0.0,0.0,0.0,0.0,0.0,0.0,0.0,0.0,0.0,0.0,0.0,0.0,0.0,0.0,0.0,0.0,0.0,0.0382,0.0,0.0,0.0,0.0,0.0,0.0,0.0,0.0,0.0,0.0,0.0,0.0,0.0,0.0,0.0,0.0,0.0,0.0,0.0,0.0,0.0,0.0,0.0,0.0,0.0,0.0,0.0,0.0,0.0,0.0,0.0,0.0,0.0,0.0,0.0,0.0,0.0,0.0233,0.0711,0.3231,0.4338,0.4659,0.6087,0.6967,0.7543,0.8616,0.8076,0.6731,0.6731,0.5922,0.4578,0.4309,0.2693,0.0538,0.0,0.0,0.0,0.0,0.0,0.0,0.0,0.0,0.0,0.0,0.0,0.0,0.0,0.0,0.0,0.0,0.0,0.0,0.0,0.0,0.0,0.0,0.0,0.0,0.0,0.0,0.0,0.0,0.0,0.0,0.0,0.0,0.0,0.0,0.0,0.0,0.0,0.0,0.0,0.0,0.0,0.0,0.0,0.0,0.0,0.0,0.0,0.0,0.0,0.0,0.0,0.0,0.0,0.0,0.0,0.0,0.0,0.0,0.0,0.0,0.0,0.0387,0.0,0.0,0.0,0.0,0.0,0.0,0.0,0.0,0.0,0.0,0.0,0.0,0.0,0.0,0.0,0.0,0.0,0.0,0.0,0.0,0.0,0.0,0.0,0.0,0.0,0.0,0.0,0.0,0.0,0.0,0.0,0.0,0.0,0.0,0.0,0.0,0.0,0.0,0.3348,0.4034,0.4636,0.5697,0.665,0.8068,0.941,1.0218,0.941,0.8337,0.8337,0.7536,0.6725,0.4845,0.404,0.2962,0.0806,0.0,0.0,0.0,0.0,0.0,0.0,0.0,0.0,0.0,0.0,0.0,0.0,0.0,0.0,0.0,0.0,0.0,0.0,0.0,0.0,0.0,0.0,0.0,0.0,0.0,0.0,0.0,0.0,0.0,0.0,0.0,0.0,0.0,0.0,0.0,0.0,0.0,0.0,0.0,0.0,0.0,0.0,0.0,0.0,0.0,0.0,0.0,0.0,0.0,0.0,0.0,0.0,0.0,0.0,0.0,0.0,0.0,0.0,0.0,0.0,0.1825,0.0,0.0,0.0,0.0,0.0,0.0,0.0,0.0,0.0,0.0,0.0,0.0,0.0,0.0,0.0,0.0,0.0,0.0,0.0,0.0,0.0,0.0,0.0,0.0,0.0,0.0,0.0,0.0,0.0,0.0,0.0,0.0,0.0,0.0,0.0,0.0,0.0,0.0,0.4189,0.5095,0.5716,0.6574,0.8022,0.941,1.1023,1.2355,1.2623,1.1823,1.0751,0.9682,0.8879,0.6996,0.5384,0.404,0.2693,0.1077,0.0,0.0,0.0,0.0,0.0,0.0,0.0,0.0,0.0,0.0,0.0,0.0,0.0,0.0,0.0,0.0,0.0,0.0,0.0,0.0,0.0,0.0,0.0,0.0,0.0,0.0,0.0,0.0,0.0,0.0,0.0,0.0,0.0,0.0,0.0,0.0,0.0,0.0,0.0,0.0,0.0,0.0,0.0,0.0,0.0,0.0,0.0,0.0,0.0,0.0,0.0,0.0,0.0,0.0,0.0,0.0,0.0,0.0,0.0,0.0,0.3627,0.0,0.0,0.0662,0.0,0.0,0.0,0.0,0.0,0.0,0.0,0.0,0.0,0.0,0.0,0.0,0.0,0.0,0.0,0.0,0.0,0.049,0.0732,0.0726,0.0484,0.048,0.0,0.0,0.0,0.0,0.0,0.0,0.0,0.0,0.0,0.0,0.0,0.2197,0.4308,0.5927,0.7076,0.7997,0.9657,1.1284,1.2899,1.4771,1.5573,1.5573,1.3697,1.2095,1.1023,0.941,0.7265,0.4845,0.4309,0.2424,0.0269,0.0,0.0,0.0,0.0,0.0,0.0,0.0,0.0,0.0,0.0,0.0,0.0,0.0,0.0,0.0,0.0,0.0,0.0,0.0,0.0,0.0,0.0,0.0,0.0,0.0,0.0,0.0,0.0,0.0,0.0,0.0,0.0,0.0,0.0,0.0,0.0,0.0,0.0,0.0,0.0,0.0,0.0,0.0,0.0,0.0,0.0,0.0,0.0,0.0,0.0,0.0,0.0,0.0,0.0,0.0,0.0,0.0,0.0,0.0,0.0,0.0,0.0,0.0,0.0,0.0,0.0,0.0,0.0,0.0,0.0,0.0,0.0,0.0,0.0,0.0,0.0,0.0,0.0,0.0,0.0,0.2243,0.3464,0.3416,0.244,0.17,0.0,0.0,0.0,0.0,0.0,0.0,0.0,0.0,0.0,0.0,0.2707,0.4016,0.4341,0.6262,0.793,0.9587,1.0988,1.3425,1.583,1.6646,1.7707,1.8778,1.7174,1.5038,1.2367,1.1023,0.9148,0.6727,0.4849,0.3231,0.1615,0.0269,0.0,0.0,0.0,0.0,0.0,0.0,0.0,0.0,0.0,0.0,0.0,0.0,0.0,0.0,0.0,0.0,0.0,0.0,0.0,0.0,0.0,0.0,0.0,0.0,0.0,0.0,0.0,0.0,0.0,0.0,0.0,0.0,0.0,0.0,0.0,0.0,0.0,0.0,0.0,0.0,0.0,0.0,0.0,0.0,0.0,0.0,0.0,0.0,0.0,0.0,0.0,0.0,0.0,0.0,0.0,0.0,0.0,0.0,0.0,0.0,0.0,0.0,0.0,0.0,0.2429,0.1715,0.0246,0.0,0.0,0.0,0.0,0.0,0.0,0.0,0.0,0.0,0.0,0.0757,0.2514,0.3519,0.4253,0.5199,0.4702,0.4427,0.0,0.0,0.0,0.0,0.0,0.0,0.0,0.0,0.1203,0.1479,0.3498,0.4588,0.5474,0.7917,0.9318,1.044,1.2886,1.5038,1.6902,1.8506,1.9304,1.9304,1.8772,1.6912,1.4508,1.2095,1.0222,0.8345,0.595,0.4063,0.2168,0.0545,0.0,0.0,0.0,0.0,0.0,0.0,0.0,0.0,0.0,0.0,0.0,0.0,0.0,0.0,0.0,0.0,0.0,0.0,0.0,0.0,0.0,0.0,0.0,0.0,0.0,0.0,0.0,0.0,0.0,0.0,0.0,0.0,0.0,0.0,0.0,0.0,0.0,0.0,0.0,0.0,0.0,0.0,0.0,0.0,0.0,0.0,0.0,0.0,0.0,0.0,0.0,0.0,0.0,0.0,0.0,0.0,0.0,1.2856,0.0,1.2166,0.0,0.9083,0.819,0.5384,0.519,0.4229,0.15,0.1249,0.0998,0.0,0.0,0.0,0.0,0.076,0.1268,0.127,0.127,0.2791,0.6333,0.5825,0.0,0.7016,0.6763,0.648,0.6657,0.5654,0.0,0.0,0.0,0.0,0.0,0.3394,0.3206,0.3532,0.4827,0.5946,0.7147,0.9571,1.1227,1.2363,1.4771,1.6646,1.8251,1.9854,2.0114,1.9835,1.9582,1.8251,1.6117,1.3438,1.1574,0.9991,0.7331,0.5172,0.3003,0.1647,0.1101,0.0552,0.0,0.0,0.0,0.0,0.0,0.0,0.0,0.0,0.0,0.0,0.0,0.0,0.0,0.0,0.0,0.0,0.0,0.0,0.0,0.0,0.0,0.0,0.0,0.0,0.0,0.0,0.0,0.0,0.0,0.0,0.0,0.0,0.0,0.0,0.0,0.0,0.0,0.0,0.0,0.0,0.0,0.0,0.0,0.0,0.0,0.0,0.0,0.0,0.0,0.0,0.0,0.0,0.0,0.0,0.0,1.5801,1.5673,1.5005,1.2277,1.1639,1.0959,0.8213,0.7777,0.6812,0.4286,0.4061,0.3053,0.0253,0.0,0.0,0.0,0.255,0.4097,0.4124,0.4128,0.6431,0.0,0.0,0.8641,0.9588,0.8577,0.8071,0.8071,0.0,0.0,0.5418,0.567,0.597,0.6053,0.61,0.6147,0.6452,0.7792,0.8939,1.0128,1.1173,1.3079,1.5043,1.6646,1.8506,2.0379,2.0379,2.0911,2.1169,2.0652,1.931,1.7718,1.4771,1.296,1.1676,0.9237,0.6556,0.4392,0.4397,0.3315,0.1944,0.0278,0.0,0.0,0.0,0.0,0.0,0.0,0.0,0.0,0.0,0.0,0.0,0.0,0.0,0.0,0.0,0.0,0.0,0.0,0.0,0.0,0.0,0.0,0.0,0.0,0.0,0.0,0.0,0.0,0.0,0.0,0.0,0.0,0.0,0.0,0.0,0.0,0.0,0.0,0.0,0.0,0.0,0.0,0.0,0.0,0.0,0.0,0.0,0.0,0.0,0.0,0.0,0.0,0.0,0.0,1.8435,1.8467,1.7754,1.497,1.4528,1.3803,1.128,1.086,0.9902,0.7362,0.6899,0.6672,0.5634,0.3841,0.282,0.0,0.3597,0.4885,0.0,0.6966,0.7728,0.9506,1.1314,1.178,1.0666,1.0412,1.0388,1.0831,0.0,0.0,0.0,0.8135,0.7951,0.757,0.767,0.7759,0.7853,0.9492,1.0073,1.0646,1.3104,1.4743,1.583,1.7973,1.931,2.0386,2.0911,2.1236,2.1597,2.0789,2.0324,1.9579,1.7689,1.5499,1.3054,1.099,0.9655,0.8574,0.6115,0.4742,0.3634,0.3074,0.2242,0.1403,0.1403,0.1403,0.1401,0.1391,0.1387,0.1382,0.1375,0.0549,0.0,0.0,0.0,0.0,0.0,0.0,0.0,0.0,0.0,0.0,0.0,0.0,0.0,0.0,0.0,0.0,0.0,0.0,0.0,0.0,0.0,0.0,0.0,0.0,0.0,0.0,0.0,0.0,0.0,0.0,0.0,0.0,0.0,0.0,0.0,0.0,0.0,0.0,0.0,0.0,0.0,0.0,0.0,0.0,1.9883,1.9883,1.9385,1.7851,1.7666,1.6692,1.4385,1.4,1.3306,1.1506,1.0528,0.9788,0.9788,0.8245,0.0,0.5667,0.6701,0.7986,0.9795,0.9798,0.9788,0.9782,1.366,1.4922,1.3038,0.0,0.0,1.3705,1.2947,1.1875,1.1015,1.0548,1.0132,0.9995,0.983,0.9937,1.0311,1.1413,1.1988,1.2555,1.4748,1.6374,1.7435,1.9038,2.0146,2.0997,2.1256,2.1618,2.176,2.1202,2.0991,2.054,1.9768,1.8093,1.5873,1.3541,1.2489,1.1417,0.8669,0.7004,0.5882,0.5326,0.4206,0.3646,0.3929,0.3929,0.3923,0.3908,0.3904,0.362,0.3048,0.2212,0.138,0.0828,0.0828,0.0828,0.0828,0.0273,0.0,0.0,0.0,0.0,0.0,0.0,0.0,0.0,0.0,0.0,0.0,0.0,0.0,0.0,0.0,0.0,0.0,0.0,0.0,0.0,0.0,0.0,0.0,0.0,0.0,0.0,0.0,0.0,0.0,0.0,0.0,0.0,0.0,0.0,0.0,0.0,0.0,0.0,2.0416,2.0416,0.0,0.0,2.0553,0.0,1.7051,1.6662,1.6761,1.65,1.4168,1.262,1.262,1.262,1.1582,0.9005,0.0,0.0,0.0,1.262,1.2608,1.2599,1.65,0.0,1.6717,1.6717,1.6717,1.6717,1.5439,1.4676,1.4676,1.3491,1.2812,1.29,1.29,1.2941,1.3041,1.3832,1.4682,1.5315,1.6912,1.8245,1.9576,2.0126,2.1016,2.1672,2.1686,2.1774,2.1903,2.1903,2.136,2.085,2.0985,2.0476,1.9378,1.6611,1.475,1.3434,1.2031,1.0363,0.8965,0.6724,0.6162,0.6448,0.6734,0.6734,0.6734,0.6734,0.6734,0.6454,0.5049,0.4742,0.4168,0.278,0.2502,0.2502,0.2502,0.1381,0.0274,0.0,0.0,0.0,0.0,0.0,0.0,0.0,0.0,0.0,0.0,0.0,0.0,0.0,0.0,0.0,0.0,0.0,0.0,0.0,0.0,0.0,0.0,0.0,0.0,0.0,0.0,0.0,0.0,0.0,0.0,0.0,0.0,0.0,0.0,0.0,0.0,0.0,0.0,0.0,2.0438,2.0438,2.0492,2.0278,1.9757,1.9528,1.8795,1.6717,1.5934,1.5434,1.5434,1.5434,1.5173,1.4652,1.5193,1.5459,1.5444,1.5434,1.5434,1.5418,1.8546,1.9842,1.9561,1.8515,1.7993,1.7993,1.7838,1.7376,1.685,1.6712,1.6303,1.5893,1.5893,1.5959,1.6332,1.6859,1.7147,1.7446,1.905,1.9854,2.0126,2.1036,2.1631,2.1686,2.1794,2.1937,2.2059,2.2059,2.1866,2.1967,2.2,2.1455,2.0614,1.8667,1.7592,1.6502,1.5101,1.3434,1.2035,1.0356,0.9244,0.8408,0.841,0.841,0.841,0.841,0.841,0.8408,0.8128,0.6714,0.5589,0.5033,0.5313,0.5597,0.5597,0.4432,0.3019,0.0,0.0821,0.0,0.0,0.0,0.0,0.0,0.0,0.0,0.0,0.0,0.0,0.0,0.0,0.0,0.0,0.0,0.0,0.0,0.0,0.0,0.0,0.0,0.0,0.0,0.0,0.0,0.0,0.0,0.0,0.0,0.0,0.0,0.0,0.0,0.0,0.0,2.0506,2.0386,2.0539,2.0539,2.056,2.056,2.056,2.0573,2.0071,1.8515,1.8254,1.8254,1.8272,1.8254,1.8254,1.8254,1.8272,1.8284,1.8272,1.8272,1.8254,1.8254,1.9822,2.0594,2.0573,1.979,1.9528,1.9528,1.9157,1.9,1.8797,1.8409,1.8277,1.8141,1.8141,1.817,1.8245,1.8506,1.8778,1.9322,2.0107,2.0691,2.1016,2.1631,2.176,2.1882,2.195,2.2093,2.2215,2.2215,2.2269,2.2337,2.2337,2.2054,2.1507,2.067,1.9827,1.8724,1.7608,1.6219,1.4548,1.2597,1.148,1.0918,1.0918,1.0918,1.0918,1.0918,1.0918,1.0918,1.0645,0.9521,0.8677,0.8121,0.8128,0.8128,0.7853,0.665,0.0,0.3571,0.2473,0.1649,0.0,0.0,0.0,0.0,0.0,0.0,0.0,0.0,0.0,0.0,0.0,0.0,0.0,0.0,0.0,0.0,0.0,0.0,0.0,0.0,0.0,0.0,0.0,0.0,0.0,0.0,0.0,0.0,0.0,0.0,0.0,0.0,0.0,0.0,2.0513,2.0386,2.0539,2.0539,2.0539,2.0539,2.0539,2.056,2.0573,2.0573,2.0573,2.0594,2.0594,2.0594,2.0573,2.0573,2.0573,2.0594,2.0594,2.0594,2.0573,2.0573,2.0573,2.056,2.0539,2.0539,2.0539,2.0539,2.019,1.9819,1.9948,1.9578,1.9452,1.9582,1.9582,1.9582,1.9582,1.9582,2.0107,2.0652,2.0671,2.1016,2.1672,2.1726,2.1903,2.2113,2.2127,2.2235,2.2337,2.2337,2.2337,2.2337,2.2337,2.2337,2.2337,2.2337,2.1501,2.0393,1.9544,1.8163,1.677,1.4818,1.4265,1.3987,1.3987,1.3987,1.3987,1.3987,1.3987,1.3983,1.3151,1.2868,1.2318,1.1197,1.0619,1.0337,0.9801,0.0,0.7426,0.5505,0.4958,0.3583,0.0827,0.0279,0.0,0.0,0.0,0.0,0.0,0.0,0.0,0.0,0.0,0.0,0.0,0.0,0.0,0.0,0.0,0.0,0.0,0.0,0.0,0.0,0.0,0.0,0.0,0.0,0.0,0.0,0.0,0.0,0.0,0.0,0.0,0.0,2.0526,2.0386,2.0539,2.0539,2.0539,2.0539,2.0539,2.0539,2.0539,2.0539,2.0539,2.0539,2.0539,2.0539,2.0539,2.0539,2.0539,2.0539,2.0539,2.0539,2.0539,2.0539,2.0539,2.0539,2.0539,2.0539,2.0539,2.0539,2.0695,2.0593,2.0734,2.0888,2.1029,2.1163,2.1163,2.1163,2.1163,2.1163,2.1169,2.1189,2.131,2.1652,2.1706,2.195,2.2072,2.2127,2.2249,2.2323,2.2337,2.2337,2.2337,2.2337,2.2337,2.2337,2.2337,2.2337,2.206,2.179,2.0941,1.9827,1.8447,1.8163,1.7608,1.7336,1.7336,1.7336,1.7336,1.7336,1.7336,1.7058,1.7058,1.594,1.5115,1.4831,1.3587,1.2707,1.2578,0.0,0.9924,0.9202,0.6422,0.4191,0.3914,0.1401,0.0,0.0,0.0,0.0,0.0,0.0,0.0,0.0,0.0,0.0,0.0,0.0,0.0,0.0,0.0,0.0,0.0,0.0,0.0,0.0,0.0,0.0,0.0,0.0,0.0,0.0,0.0,0.0,0.0,0.0,0.0,0.0,2.054,2.0386,2.0539,2.0539,2.0539,2.0539,2.0539,2.0539,2.0539,2.0539,2.0539,2.0539,2.0539,2.0539,2.0539,2.0539,2.0539,2.0539,2.0539,2.0539,2.0539,2.0539,2.0539,2.0539,2.0539,2.0539,2.0539,2.0539,2.0702,2.0811,2.0878,2.1109,2.1245,2.1319,2.1408,2.1441,2.1441,2.1441,2.1496,2.1564,2.1638,2.176,2.1916,2.2059,2.216,2.2249,2.2323,2.2337,2.2337,2.2337,2.2337,2.2337,2.2337,2.2337,2.2337,2.2337,2.2337,2.206,2.1501,2.067,2.0116,1.9827,1.9279,1.8996,1.8996,1.8996,1.8996,1.8996,1.8996,1.8996,1.8996,1.8447,1.7891,1.7608,1.6683,0.0,0.0,1.42,1.279,1.147,0.8959,0.6724,0.4764,0.2523,0.0842,0.0,0.0,0.0,0.0,0.0,0.0,0.0,0.0,0.0,0.0,0.0,0.0,0.0,0.0,0.0,0.0,0.0,0.0,0.0,0.0,0.0,0.0,0.0,0.0,0.0,0.0,0.0,0.0,0.0,0.0,0.0,2.0486,2.0627,2.0539,2.0539,2.0539,2.0539,2.0539,2.0539,2.0539,2.0539,2.0539,2.0539,2.0539,2.0539,2.0539,2.0539,2.0539,2.0539,2.0539,2.0539,2.0539,2.0539,2.0539,2.0539,2.0539,2.0539,2.0539,2.0539,2.0668,2.0736,2.077,2.1034,2.1177,2.1211,2.1367,2.1441,2.1441,2.1475,2.1564,2.1672,2.174,2.1916,2.2113,2.2147,2.2235,2.2337,2.2337,2.2337,2.2337,2.2337,2.2337,2.2337,2.2337,2.2337,2.2337,2.2337,2.2337,2.206,2.1507,2.1501,2.1224,2.067,2.0664,2.0664,2.0664,2.0664,2.0664,2.0664,2.0664,2.0664,2.0664,2.0387,2.0116,1.955,0.0,0.0,0.0,1.6734,1.5337,1.3704,1.1752,0.9239,0.5882,0.3923,0.1963,0.0,0.0,0.0,0.0,0.0,0.0,0.0,0.0,0.0,0.0,0.0,0.0,0.0,0.0,0.0,0.0,0.0,0.0,0.0,0.0,0.0,0.0,0.0,0.0,0.0,0.0,0.0,0.0,0.0,0.0,0.0,2.0594,2.0539,2.0539,2.0539,2.0539,2.0539,2.0539,2.0539,2.0539,2.0539,2.0539,2.0539,2.0539,2.0539,2.0539,2.0539,2.0539,2.0539,2.0539,2.0539,2.0539,2.0539,2.0539,2.0539,2.0539,2.0539,2.0539,2.0539,2.056,2.0627,2.077,2.0946,2.1089,2.1211,2.1367,2.1441,2.1455,2.1597,2.1652,2.1692,2.1971,2.2093,2.2127,2.2269,2.2323,2.2337,2.2337,2.2337,2.2337,2.2337,2.2337,2.2337,2.2337,2.2337,2.2337,2.2337,2.2337,2.2337,2.2337,2.2337,2.2337,2.206,2.206,2.206,2.206,2.206,2.206,2.206,2.206,2.206,2.206,2.1507,2.1218,2.0941,0.0,0.0,1.9803,1.8531,1.7093,1.6467,1.3983,1.1197,0.8957,0.6162,0.3082,0.028,0.0,0.0,0.0,0.0,0.0,0.0,0.0,0.0,0.0,0.0,0.0,0.0,0.0,0.0,0.0,0.0,0.0,0.0,0.0,0.0,0.0,0.0,0.0,0.0,0.0,0.0,0.0,0.0,0.0,0.0,2.0573,2.0539,2.0539,2.0539,2.0539,2.0539,2.0539,2.0539,2.0539,2.0539,2.0539,2.0539,2.0539,2.0539,2.0539,2.0539,2.0539,2.0539,2.0539,2.0539,2.0539,2.0539,2.0539,2.0539,2.0539,2.0539,2.0539,2.0539,2.0539,2.0573,2.0627,2.0878,2.1034,2.1089,2.1333,2.1496,2.1584,2.1652,2.1774,2.195,2.2059,2.216,2.2249,2.2323,2.2337,2.2337,2.2337,2.2337,2.2337,2.2337,2.2337,2.2337,2.2337,2.2337,2.2337,2.2337,2.2337,2.2337,2.2337,2.2337,2.2337,2.2337,2.2337,2.2337,2.2337,2.2337,2.2337,2.2337,2.2337,2.2337,2.2337,2.2054,2.1777,2.1777,0.0,2.1108,2.0935,2.0301,1.9173,1.7597,1.594,1.3987,1.1201,0.8677,0.6162,0.3082,0.1121,0.0,0.0,0.0,0.0,0.0,0.0,0.0,0.0,0.0,0.0,0.0,0.0,0.0,0.0,0.0,0.0,0.0,0.0,0.0,0.0,0.0,0.0,0.0,0.0,0.0,0.0,0.0,0.0,0.0,2.056,2.0539,2.0539,2.0539,2.0539,2.0539,2.0539,2.0539,2.0539,2.0539,2.0539,2.0539,2.0539,2.0539,2.0539,2.0539,2.0539,2.0539,2.0539,2.0539,2.0539,2.0539,2.0539,2.0539,2.0539,2.0539,2.0539,2.0539,2.0539,2.056,2.0614,2.0878,2.1021,2.1089,2.1387,2.1564,2.1672,2.1774,2.1916,2.2113,2.216,2.2249,2.2337,2.2337,2.2337,2.2337,2.2337,2.2337,2.2337,2.2337,2.2337,2.2337,2.2337,2.2337,2.2337,2.2337,2.2337,2.2337,2.2337,2.2337,2.2337,2.2337,2.2337,2.2337,2.2337,2.2337,2.2337,2.2337,2.2337,2.2337,2.2337,2.2337,2.2337,2.2337,2.2337,2.206,2.1507,2.1224,2.0664,1.8996,1.7891,1.6219,1.3987,1.147,0.8957,0.6162,0.3082,0.1122,0.0,0.0,0.0,0.0,0.0,0.0,0.0,0.0,0.0,0.0,0.0,0.0,0.0,0.0,0.0,0.0,0.0,0.0,0.0,0.0,0.0,0.0,0.0,0.0,0.0,0.0,0.0,0.0,2.0539,2.0539,2.0539,2.0539,2.0539,2.0539,2.0539,2.0539,2.0539,2.0539,2.0539,2.0539,2.0539,2.0539,2.0539,2.0539,2.0539,2.0539,2.0539,2.0539,2.0539,2.0539,2.0539,2.0539,2.0539,2.0539,2.0539,2.0539,2.0539,2.0614,2.077,2.0933,2.1068,2.1231,2.153,2.1672,2.1692,2.1991,2.2113,2.2127,2.2289,2.2337,2.2337,2.2337,2.2337,2.2337,2.2337,2.2337,2.2337,2.2337,2.2337,2.2337,2.2337,2.2337,2.2337,2.2337,2.2337,2.2337,2.2337,2.2337,2.2337,2.2337,2.2337,2.2337,2.2337,2.2337,2.2337,2.2337,2.2337,2.2337,2.2337,2.2337,2.2337,2.2337,2.2337,2.2337,2.2337,2.1784,2.1218,2.1218,1.9279,1.7608,1.6775,1.3987,1.148,0.9239,0.6162,0.3091,0.0283,0.0,0.0,0.0,0.0,0.0,0.0,0.0,0.0,0.0,0.0,0.0,0.0,0.0,0.0,0.0,0.0,0.0,0.0,0.0,0.0,0.0,0.0,0.0,0.0,0.0,0.0,0.0,2.056,2.0539,2.0539,2.0539,2.0539,2.0539,2.0539,2.0539,2.0539,2.0539,2.0539,2.0539,2.0539,2.0539,2.0539,2.0539,2.0539,2.0539,2.0539,2.0539,2.0539,2.0539,2.0539,2.0539,2.0539,2.0539,2.0539,2.0539,2.0539,2.0614,2.077,2.0933,2.1068,2.1231,2.153,2.1726,2.1828,2.2025,2.2181,2.2269,2.2323,2.2337,2.2337,2.2337,2.2337,2.2337,2.2337,2.2337,2.2337,2.2337,2.2337,2.2337,2.2337,2.2337,2.2337,2.2337,2.2337,2.2337,2.2337,2.2337,2.2337,2.2337,2.2337,2.2337,2.2337,2.2337,2.2337,2.2337,2.2337,2.2337,2.2337,2.2337,2.2337,2.2337,2.2337,2.2337,2.2337,2.206,2.1771,2.1218,2.0664,1.9544,1.7608,1.5935,1.3434,1.0636,0.6755,0.3116,0.0285,0.0,0.0,0.0,0.0,0.0,0.0,0.0,0.0,0.0,0.0,0.0,0.0,0.0,0.0,0.0,0.0,0.0,0.0,0.0,0.0,0.0,0.0,0.0,0.0,0.0,0.0,0.0,2.0473,2.0453,2.0453,2.0453,2.0453,2.0453,2.0453,2.0453,2.0439,2.0386,2.0627,2.0607,2.0539,2.0539,2.0539,2.0539,2.0539,2.0539,2.0539,2.0539,2.0539,2.0539,2.0539,2.0539,2.0539,2.0539,2.0539,2.0539,2.0594,2.0716,2.0858,2.1021,2.1197,2.1408,2.1652,2.1828,2.1991,2.2127,2.2249,2.2337,2.2337,2.2337,2.2337,2.2337,2.2337,2.2337,2.2337,2.2337,2.2337,2.2337,2.2337,2.2337,2.2337,2.2337,2.2337,2.2337,2.2337,2.2337,2.2337,2.2337,2.2337,2.2337,2.2337,2.2337,2.2337,2.2337,2.2337,2.2337,2.2337,2.2337,2.2337,2.2337,2.2337,2.2337,2.2337,2.2337,2.2337,2.2337,2.206,2.1784,2.1501,2.0664,1.9279,1.7608,1.5124,1.1525,0.7359,0.3993,0.1148,0.0288,0.0,0.0,0.0,0.0,0.0,0.0,0.0,0.0,0.0,0.0,0.0,0.0,0.0,0.0,0.0,0.0,0.0,0.0,0.0,0.0,0.0,0.0,0.0,0.0,0.0,0.0,2.0467,2.0467,2.0467,2.0467,2.0467,2.0467,2.0467,2.0467,2.068,2.054,2.0526,2.0473,2.0594,2.0573,2.056,2.056,2.0539,2.0539,2.0539,2.0539,2.0539,2.0539,2.0539,2.0539,2.056,2.056,2.056,2.056,2.0716,2.0878,2.1021,2.1157,2.1387,2.1672,2.1828,2.1991,2.2127,2.2269,2.2337,2.2337,2.2337,2.2337,2.2337,2.2337,2.2337,2.2337,2.2337,2.2337,2.2337,2.2337,2.2337,2.2337,2.2337,2.2337,2.2337,2.2337,2.2337,2.2337,2.2337,2.2337,2.2337,2.2337,2.2337,2.2337,2.2337,2.2337,2.2337,2.2337,2.2337,2.2337,2.2337,2.2337,2.2337,2.2337,2.2337,2.2337,2.2337,2.2337,2.2337,2.2337,2.1784,2.1218,2.1237,1.9025,1.6013,1.1606,0.8266,0.5167,0.2602,0.0867,0.0,0.0,0.0,0.0,0.0,0.0,0.0,0.0,0.0,0.0,0.0,0.0,0.0,0.0,0.0,0.0,0.0,0.0,0.0,0.0,0.0,0.0,0.0,0.0,0.0,0.0,2.1281,2.1267,2.1267,2.1267,2.1267,2.1267,2.1267,2.1267,2.1247,2.1212,2.068,2.0401,2.0381,2.0526,2.0453,2.0453,2.0607,2.0539,2.0539,2.0539,2.0539,2.0539,2.0539,2.0594,2.0979,2.0722,2.0716,2.0716,2.0878,2.1021,2.1177,2.1319,2.1496,2.1686,2.195,2.2079,2.2127,2.2269,2.2337,2.2337,2.2337,2.2337,2.2337,2.2337,2.2337,2.2337,2.2337,2.2337,2.2337,2.2337,2.2337,2.2337,2.2337,2.2337,2.2337,2.2337,2.2337,2.2337,2.2337,2.2337,2.2337,2.2337,2.2337,2.2337,2.2337,2.2337,2.2337,2.2337,2.2337,2.2337,2.2337,2.2337,2.2337,2.2337,2.2337,2.2337,2.2337,2.2337,2.2337,2.2337,2.206,2.1824,2.1372,1.839,1.5097,1.1766,0.892,0.6359,0.4367,0.1455,0.0,0.0,0.0,0.0,0.0,0.0,0.0,0.0,0.0,0.0,0.0,0.0,0.0,0.0,0.0,0.0,0.0,0.0,0.0,0.0,0.0,0.0,0.0,0.0,0.0,0.0,2.1501,2.148,2.148,2.148,2.148,2.148,2.148,2.148,2.1446,2.1377,2.1109,2.0808,2.1001,2.0933,2.0858,2.0506,2.0439,2.0607,2.0539,2.0539,2.0573,2.0386,2.0386,2.0716,2.0878,2.0946,2.0946,2.0878,2.1034,2.1177,2.1319,2.1475,2.1672,2.1882,2.2038,2.2147,2.2235,2.2303,2.2337,2.2337,2.2337,2.2337,2.2337,2.2337,2.2337,2.2337,2.2337,2.2337,2.2337,2.2337,2.2337,2.2337,2.2337,2.2337,2.2337,2.2337,2.2337,2.2337,2.2337,2.2337,2.2337,2.2337,2.2337,2.2337,2.2337,2.2337,2.2337,2.2337,2.2337,2.2337,2.2337,2.2391,2.2445,2.2445,2.25,2.2554,2.2554,2.2554,2.2554,2.2554,2.2554,2.2302,2.154,1.9111,1.6638,1.3834,1.0995,0.8419,0.5541,0.2625,0.0875,0.0,0.0,0.0,0.0,0.0,0.0,0.0,0.0,0.0,0.0,0.0,0.0,0.0,0.0,0.0,0.0,0.0,0.0,0.0,0.0,0.0,0.0,0.0,0.0,0.0,2.1441,2.1441,2.1441,2.1441,2.1441,2.1441,2.1441,2.1441,2.1387,2.1272,2.1514,2.148,2.1356,2.1322,2.1247,2.0817,2.054,2.0486,2.0627,2.0607,2.0419,2.054,2.054,2.0872,2.1034,2.1177,2.119,2.1068,2.1211,2.1367,2.1509,2.1672,2.1882,2.2113,2.2147,2.2215,2.2337,2.2337,2.2337,2.2337,2.2337,2.2337,2.2337,2.2337,2.2337,2.2337,2.2337,2.2337,2.2337,2.2337,2.2337,2.2337,2.2337,2.2337,2.2337,2.2337,2.2337,2.2337,2.2337,2.2337,2.2337,2.2337,2.2337,2.2337,2.2337,2.2337,2.2337,2.2337,2.2337,2.2337,2.2378,2.2479,2.2554,2.2588,2.2696,2.2784,2.2784,2.2784,2.2784,2.2784,2.2798,2.2543,2.1688,2.0394,1.8743,1.6449,1.3341,1.0191,0.6705,0.4082,0.175,0.0,0.0,0.0,0.0,0.0,0.0,0.0,0.0,0.0,0.0,0.0,0.0,0.0,0.0,0.0,0.0,0.0,0.0,0.0,0.0,0.0,0.0,0.0,0.0,0.0,2.1441,2.1441,2.1441,2.1441,2.1441,2.1441,2.1441,2.1441,2.1441,2.1408,2.1408,2.1408,2.1387,2.1272,2.1391,2.1253,2.07,2.0434,2.0415,2.0401,2.0415,2.0434,2.0967,2.1302,2.1446,2.1333,2.1408,2.1387,2.153,2.1686,2.1828,2.1991,2.2079,2.2113,2.2249,2.2323,2.2337,2.2337,2.2337,2.2337,2.2337,2.2337,2.2337,2.2337,2.2337,2.2337,2.2337,2.2337,2.2337,2.2337,2.2337,2.2337,2.2337,2.2337,2.2337,2.2337,2.2337,2.2337,2.2337,2.2337,2.2337,2.2337,2.2337,2.2337,2.2337,2.2337,2.2337,2.2337,2.2337,2.2378,2.25,2.2534,2.2588,2.273,2.2764,2.2784,2.2784,2.2784,2.2784,2.2784,2.2907,2.2697,2.1824,2.052,1.887,1.656,1.3384,1.0482,0.7872,0.5541,0.2918,0.0,0.0,0.0,0.0,0.0,0.0,0.0,0.0,0.0,0.0,0.0,0.0,0.0,0.0,0.0,0.0,0.0,0.0,0.0,0.0,0.0,0.0,0.0,0.0,0.0,2.1455,2.1441,2.1441,2.1441,2.1441,2.1441,2.1441,2.1441,2.1441,2.1441,2.1441,2.1441,2.1441,2.1387,2.1285,2.1391,2.1123,2.1089,2.1001,2.1001,2.1034,2.1123,2.1391,2.1466,2.134,2.1496,2.1604,2.1692,2.176,2.1862,2.2004,2.2079,2.216,2.2235,2.2303,2.2337,2.2337,2.2337,2.2337,2.2337,2.2337,2.2337,2.2337,2.2337,2.2337,2.2337,2.2337,2.2337,2.2337,2.2337,2.2337,2.2337,2.2337,2.2337,2.2337,2.2337,2.2337,2.2337,2.2337,2.2337,2.2337,2.2337,2.2337,2.2337,2.2337,2.2391,2.2466,2.2466,2.2466,2.25,2.2656,2.2744,2.2832,2.2907,2.2974,2.3029,2.3029,2.3029,2.3029,2.3029,2.3083,2.2844,2.2545,2.1743,2.0329,1.8315,1.5707,1.2808,0.9613,0.6996,0.4374,0.1459,0.0583,0.0,0.0,0.0,0.0,0.0,0.0,0.0,0.0,0.0,0.0,0.0,0.0,0.0,0.0,0.0,0.0,0.0,0.0,0.0,0.0,0.0,0.0,0.0]}]]